<?xml version="1.0" encoding="UTF-8" standalone="no" ?>
<gpx xmlns="http://www.topografix.com/GPX/1/1" xmlns:xsi="http://www.w3.org/2001/XMLSchema-instance" xsi:schemaLocation="http://www.topografix.com/GPX/1/1 http://www.topografix.com/GPX/1/1/gpx.xsd" version="1.1" creator="VisuGPX - https://www.visugpx.com">
  <metadata>
    <name>Le Pié Ferré (Glandasse) au départ de Valcroissant</name>
    <desc><![CDATA[Rando CAF Valence du 7 juin 2022 organisé par Marie-Aimée.]]></desc>
  </metadata>
  <trk>
    <name><![CDATA[2022-06-07 16:43:16]]></name>
    <trkseg>
      <trkpt lat="44.74538" lon="5.43276">
        <ele>666.81</ele>
        <time>2022-06-07T06:24:55Z</time>
      </trkpt>
      <trkpt lat="44.74537" lon="5.43279">
        <ele>667.77</ele>
        <time>2022-06-07T06:25:11Z</time>
      </trkpt>
      <trkpt lat="44.74536" lon="5.43282">
        <ele>667.77</ele>
        <time>2022-06-07T06:25:15Z</time>
      </trkpt>
      <trkpt lat="44.74535" lon="5.43303">
        <ele>669.7</ele>
        <time>2022-06-07T06:25:30Z</time>
      </trkpt>
      <trkpt lat="44.74535" lon="5.43311">
        <ele>670.18</ele>
        <time>2022-06-07T06:25:36Z</time>
      </trkpt>
      <trkpt lat="44.74534" lon="5.43329">
        <ele>671.62</ele>
        <time>2022-06-07T06:25:50Z</time>
      </trkpt>
      <trkpt lat="44.74531" lon="5.43349">
        <ele>673.54</ele>
        <time>2022-06-07T06:26:05Z</time>
      </trkpt>
      <trkpt lat="44.74529" lon="5.43366">
        <ele>675.94</ele>
        <time>2022-06-07T06:26:22Z</time>
      </trkpt>
      <trkpt lat="44.74528" lon="5.43386">
        <ele>677.39</ele>
        <time>2022-06-07T06:26:38Z</time>
      </trkpt>
      <trkpt lat="44.7453" lon="5.43407">
        <ele>680.27</ele>
        <time>2022-06-07T06:26:55Z</time>
      </trkpt>
      <trkpt lat="44.74532" lon="5.43426">
        <ele>682.19</ele>
        <time>2022-06-07T06:27:11Z</time>
      </trkpt>
      <trkpt lat="44.74532" lon="5.43439">
        <ele>684.12</ele>
        <time>2022-06-07T06:27:25Z</time>
      </trkpt>
      <trkpt lat="44.74533" lon="5.43447">
        <ele>685.08</ele>
        <time>2022-06-07T06:27:43Z</time>
      </trkpt>
      <trkpt lat="44.74533" lon="5.43458">
        <ele>687.48</ele>
        <time>2022-06-07T06:27:57Z</time>
      </trkpt>
      <trkpt lat="44.74535" lon="5.43471">
        <ele>689.4</ele>
        <time>2022-06-07T06:28:10Z</time>
      </trkpt>
      <trkpt lat="44.74535" lon="5.43489">
        <ele>691.33</ele>
        <time>2022-06-07T06:28:26Z</time>
      </trkpt>
      <trkpt lat="44.74537" lon="5.43504">
        <ele>693.73</ele>
        <time>2022-06-07T06:28:40Z</time>
      </trkpt>
      <trkpt lat="44.74541" lon="5.43519">
        <ele>695.17</ele>
        <time>2022-06-07T06:28:53Z</time>
      </trkpt>
      <trkpt lat="44.74543" lon="5.43532">
        <ele>698.05</ele>
        <time>2022-06-07T06:29:07Z</time>
      </trkpt>
      <trkpt lat="44.74543" lon="5.43547">
        <ele>699.98</ele>
        <time>2022-06-07T06:29:21Z</time>
      </trkpt>
      <trkpt lat="44.74545" lon="5.43562">
        <ele>702.38</ele>
        <time>2022-06-07T06:29:37Z</time>
      </trkpt>
      <trkpt lat="44.74548" lon="5.43579">
        <ele>704.78</ele>
        <time>2022-06-07T06:29:51Z</time>
      </trkpt>
      <trkpt lat="44.7455" lon="5.43593">
        <ele>706.71</ele>
        <time>2022-06-07T06:30:05Z</time>
      </trkpt>
      <trkpt lat="44.74551" lon="5.4361">
        <ele>709.11</ele>
        <time>2022-06-07T06:30:20Z</time>
      </trkpt>
      <trkpt lat="44.74553" lon="5.43627">
        <ele>711.99</ele>
        <time>2022-06-07T06:30:35Z</time>
      </trkpt>
      <trkpt lat="44.74551" lon="5.43642">
        <ele>712.95</ele>
        <time>2022-06-07T06:30:48Z</time>
      </trkpt>
      <trkpt lat="44.7455" lon="5.43663">
        <ele>715.36</ele>
        <time>2022-06-07T06:31:05Z</time>
      </trkpt>
      <trkpt lat="44.74551" lon="5.43681">
        <ele>716.8</ele>
        <time>2022-06-07T06:31:20Z</time>
      </trkpt>
      <trkpt lat="44.74553" lon="5.43697">
        <ele>719.2</ele>
        <time>2022-06-07T06:31:35Z</time>
      </trkpt>
      <trkpt lat="44.74555" lon="5.43714">
        <ele>720.65</ele>
        <time>2022-06-07T06:31:48Z</time>
      </trkpt>
      <trkpt lat="44.74558" lon="5.43729">
        <ele>722.09</ele>
        <time>2022-06-07T06:32:03Z</time>
      </trkpt>
      <trkpt lat="44.7456" lon="5.43744">
        <ele>723.05</ele>
        <time>2022-06-07T06:32:16Z</time>
      </trkpt>
      <trkpt lat="44.74563" lon="5.43763">
        <ele>725.45</ele>
        <time>2022-06-07T06:32:31Z</time>
      </trkpt>
      <trkpt lat="44.74565" lon="5.43781">
        <ele>726.41</ele>
        <time>2022-06-07T06:32:43Z</time>
      </trkpt>
      <trkpt lat="44.74564" lon="5.43799">
        <ele>727.86</ele>
        <time>2022-06-07T06:32:59Z</time>
      </trkpt>
      <trkpt lat="44.7457" lon="5.43799">
        <ele>725.93</ele>
        <time>2022-06-07T06:33:08Z</time>
      </trkpt>
      <trkpt lat="44.74583" lon="5.43798">
        <ele>723.53</ele>
        <time>2022-06-07T06:33:21Z</time>
      </trkpt>
      <trkpt lat="44.74591" lon="5.43811">
        <ele>723.53</ele>
        <time>2022-06-07T06:33:37Z</time>
      </trkpt>
      <trkpt lat="44.74603" lon="5.43825">
        <ele>725.45</ele>
        <time>2022-06-07T06:33:51Z</time>
      </trkpt>
      <trkpt lat="44.74613" lon="5.43832">
        <ele>725.93</ele>
        <time>2022-06-07T06:34:05Z</time>
      </trkpt>
      <trkpt lat="44.74617" lon="5.43847">
        <ele>724.01</ele>
        <time>2022-06-07T06:34:25Z</time>
      </trkpt>
      <trkpt lat="44.7462" lon="5.43849">
        <ele>724.97</ele>
        <time>2022-06-07T06:34:29Z</time>
      </trkpt>
      <trkpt lat="44.74629" lon="5.43852">
        <ele>727.86</ele>
        <time>2022-06-07T06:34:45Z</time>
      </trkpt>
      <trkpt lat="44.74638" lon="5.43843">
        <ele>725.45</ele>
        <time>2022-06-07T06:35:02Z</time>
      </trkpt>
      <trkpt lat="44.74639" lon="5.43825">
        <ele>726.41</ele>
        <time>2022-06-07T06:35:16Z</time>
      </trkpt>
      <trkpt lat="44.74642" lon="5.43811">
        <ele>727.37</ele>
        <time>2022-06-07T06:35:28Z</time>
      </trkpt>
      <trkpt lat="44.74647" lon="5.43799">
        <ele>728.82</ele>
        <time>2022-06-07T06:35:41Z</time>
      </trkpt>
      <trkpt lat="44.74653" lon="5.43801">
        <ele>729.78</ele>
        <time>2022-06-07T06:35:55Z</time>
      </trkpt>
      <trkpt lat="44.74656" lon="5.43816">
        <ele>731.7</ele>
        <time>2022-06-07T06:36:11Z</time>
      </trkpt>
      <trkpt lat="44.74662" lon="5.43828">
        <ele>733.62</ele>
        <time>2022-06-07T06:36:24Z</time>
      </trkpt>
      <trkpt lat="44.74667" lon="5.43843">
        <ele>735.07</ele>
        <time>2022-06-07T06:36:37Z</time>
      </trkpt>
      <trkpt lat="44.74672" lon="5.4386">
        <ele>736.51</ele>
        <time>2022-06-07T06:36:52Z</time>
      </trkpt>
      <trkpt lat="44.74677" lon="5.43874">
        <ele>738.43</ele>
        <time>2022-06-07T06:37:06Z</time>
      </trkpt>
      <trkpt lat="44.74682" lon="5.43888">
        <ele>740.35</ele>
        <time>2022-06-07T06:37:21Z</time>
      </trkpt>
      <trkpt lat="44.74686" lon="5.43903">
        <ele>742.28</ele>
        <time>2022-06-07T06:37:38Z</time>
      </trkpt>
      <trkpt lat="44.74693" lon="5.43918">
        <ele>745.16</ele>
        <time>2022-06-07T06:37:54Z</time>
      </trkpt>
      <trkpt lat="44.74696" lon="5.43931">
        <ele>746.6</ele>
        <time>2022-06-07T06:38:09Z</time>
      </trkpt>
      <trkpt lat="44.74701" lon="5.43945">
        <ele>748.52</ele>
        <time>2022-06-07T06:38:23Z</time>
      </trkpt>
      <trkpt lat="44.74707" lon="5.43956">
        <ele>749.97</ele>
        <time>2022-06-07T06:38:38Z</time>
      </trkpt>
      <trkpt lat="44.74705" lon="5.43962">
        <ele>750.93</ele>
        <time>2022-06-07T06:38:49Z</time>
      </trkpt>
      <trkpt lat="44.74693" lon="5.43971">
        <ele>751.89</ele>
        <time>2022-06-07T06:39:03Z</time>
      </trkpt>
      <trkpt lat="44.74685" lon="5.43987">
        <ele>753.81</ele>
        <time>2022-06-07T06:39:19Z</time>
      </trkpt>
      <trkpt lat="44.74682" lon="5.43993">
        <ele>754.29</ele>
        <time>2022-06-07T06:39:25Z</time>
      </trkpt>
      <trkpt lat="44.7467" lon="5.43995">
        <ele>755.73</ele>
        <time>2022-06-07T06:39:39Z</time>
      </trkpt>
      <trkpt lat="44.74659" lon="5.43986">
        <ele>757.18</ele>
        <time>2022-06-07T06:39:53Z</time>
      </trkpt>
      <trkpt lat="44.74646" lon="5.43983">
        <ele>758.62</ele>
        <time>2022-06-07T06:40:09Z</time>
      </trkpt>
      <trkpt lat="44.74637" lon="5.43994">
        <ele>760.06</ele>
        <time>2022-06-07T06:40:24Z</time>
      </trkpt>
      <trkpt lat="44.74636" lon="5.43996">
        <ele>760.54</ele>
        <time>2022-06-07T06:40:26Z</time>
      </trkpt>
      <trkpt lat="44.74621" lon="5.43999">
        <ele>761.98</ele>
        <time>2022-06-07T06:40:42Z</time>
      </trkpt>
      <trkpt lat="44.7461" lon="5.43997">
        <ele>763.9</ele>
        <time>2022-06-07T06:40:55Z</time>
      </trkpt>
      <trkpt lat="44.74598" lon="5.43994">
        <ele>765.83</ele>
        <time>2022-06-07T06:41:09Z</time>
      </trkpt>
      <trkpt lat="44.74591" lon="5.43992">
        <ele>766.79</ele>
        <time>2022-06-07T06:41:18Z</time>
      </trkpt>
      <trkpt lat="44.74581" lon="5.43986">
        <ele>768.23</ele>
        <time>2022-06-07T06:41:31Z</time>
      </trkpt>
      <trkpt lat="44.74571" lon="5.43978">
        <ele>770.15</ele>
        <time>2022-06-07T06:41:44Z</time>
      </trkpt>
      <trkpt lat="44.74557" lon="5.43965">
        <ele>772.08</ele>
        <time>2022-06-07T06:42:00Z</time>
      </trkpt>
      <trkpt lat="44.74544" lon="5.43963">
        <ele>774.48</ele>
        <time>2022-06-07T06:42:17Z</time>
      </trkpt>
      <trkpt lat="44.74533" lon="5.43965">
        <ele>776.88</ele>
        <time>2022-06-07T06:42:31Z</time>
      </trkpt>
      <trkpt lat="44.74521" lon="5.43973">
        <ele>778.32</ele>
        <time>2022-06-07T06:42:45Z</time>
      </trkpt>
      <trkpt lat="44.74511" lon="5.43982">
        <ele>779.77</ele>
        <time>2022-06-07T06:43:00Z</time>
      </trkpt>
      <trkpt lat="44.74509" lon="5.43985">
        <ele>779.77</ele>
        <time>2022-06-07T06:43:04Z</time>
      </trkpt>
      <trkpt lat="44.74497" lon="5.43995">
        <ele>781.21</ele>
        <time>2022-06-07T06:43:20Z</time>
      </trkpt>
      <trkpt lat="44.74486" lon="5.43996">
        <ele>783.13</ele>
        <time>2022-06-07T06:43:32Z</time>
      </trkpt>
      <trkpt lat="44.7448" lon="5.43999">
        <ele>785.05</ele>
        <time>2022-06-07T06:43:48Z</time>
      </trkpt>
      <trkpt lat="44.7449" lon="5.44002">
        <ele>786.98</ele>
        <time>2022-06-07T06:44:04Z</time>
      </trkpt>
      <trkpt lat="44.74496" lon="5.44005">
        <ele>786.98</ele>
        <time>2022-06-07T06:44:12Z</time>
      </trkpt>
      <trkpt lat="44.74511" lon="5.44003">
        <ele>788.42</ele>
        <time>2022-06-07T06:44:29Z</time>
      </trkpt>
      <trkpt lat="44.74512" lon="5.44001">
        <ele>788.9</ele>
        <time>2022-06-07T06:44:32Z</time>
      </trkpt>
      <trkpt lat="44.74527" lon="5.4399">
        <ele>789.86</ele>
        <time>2022-06-07T06:44:48Z</time>
      </trkpt>
      <trkpt lat="44.7453" lon="5.43991">
        <ele>790.82</ele>
        <time>2022-06-07T06:44:51Z</time>
      </trkpt>
      <trkpt lat="44.74541" lon="5.43997">
        <ele>791.78</ele>
        <time>2022-06-07T06:45:05Z</time>
      </trkpt>
      <trkpt lat="44.74551" lon="5.44006">
        <ele>793.22</ele>
        <time>2022-06-07T06:45:18Z</time>
      </trkpt>
      <trkpt lat="44.7456" lon="5.44018">
        <ele>794.19</ele>
        <time>2022-06-07T06:45:32Z</time>
      </trkpt>
      <trkpt lat="44.74563" lon="5.44021">
        <ele>794.19</ele>
        <time>2022-06-07T06:45:36Z</time>
      </trkpt>
      <trkpt lat="44.7457" lon="5.44035">
        <ele>795.63</ele>
        <time>2022-06-07T06:45:49Z</time>
      </trkpt>
      <trkpt lat="44.74575" lon="5.44043">
        <ele>796.59</ele>
        <time>2022-06-07T06:45:56Z</time>
      </trkpt>
      <trkpt lat="44.74584" lon="5.44052">
        <ele>798.03</ele>
        <time>2022-06-07T06:46:09Z</time>
      </trkpt>
      <trkpt lat="44.74591" lon="5.44062">
        <ele>800.44</ele>
        <time>2022-06-07T06:46:21Z</time>
      </trkpt>
      <trkpt lat="44.746" lon="5.44085">
        <ele>801.88</ele>
        <time>2022-06-07T06:46:38Z</time>
      </trkpt>
      <trkpt lat="44.74608" lon="5.44097">
        <ele>803.32</ele>
        <time>2022-06-07T06:46:51Z</time>
      </trkpt>
      <trkpt lat="44.7462" lon="5.44095">
        <ele>804.76</ele>
        <time>2022-06-07T06:47:05Z</time>
      </trkpt>
      <trkpt lat="44.7463" lon="5.44098">
        <ele>806.68</ele>
        <time>2022-06-07T06:47:18Z</time>
      </trkpt>
      <trkpt lat="44.74639" lon="5.44104">
        <ele>808.61</ele>
        <time>2022-06-07T06:47:30Z</time>
      </trkpt>
      <trkpt lat="44.74648" lon="5.44113">
        <ele>810.53</ele>
        <time>2022-06-07T06:47:44Z</time>
      </trkpt>
      <trkpt lat="44.74654" lon="5.44125">
        <ele>811.97</ele>
        <time>2022-06-07T06:47:56Z</time>
      </trkpt>
      <trkpt lat="44.74663" lon="5.44136">
        <ele>813.89</ele>
        <time>2022-06-07T06:48:10Z</time>
      </trkpt>
      <trkpt lat="44.74671" lon="5.44151">
        <ele>815.82</ele>
        <time>2022-06-07T06:48:25Z</time>
      </trkpt>
      <trkpt lat="44.74676" lon="5.44168">
        <ele>817.74</ele>
        <time>2022-06-07T06:48:40Z</time>
      </trkpt>
      <trkpt lat="44.74678" lon="5.44186">
        <ele>819.66</ele>
        <time>2022-06-07T06:48:55Z</time>
      </trkpt>
      <trkpt lat="44.74679" lon="5.44204">
        <ele>821.58</ele>
        <time>2022-06-07T06:49:11Z</time>
      </trkpt>
      <trkpt lat="44.74682" lon="5.44213">
        <ele>823.03</ele>
        <time>2022-06-07T06:49:25Z</time>
      </trkpt>
      <trkpt lat="44.74691" lon="5.44227">
        <ele>824.95</ele>
        <time>2022-06-07T06:49:39Z</time>
      </trkpt>
      <trkpt lat="44.74703" lon="5.44221">
        <ele>826.87</ele>
        <time>2022-06-07T06:49:56Z</time>
      </trkpt>
      <trkpt lat="44.74715" lon="5.44222">
        <ele>828.31</ele>
        <time>2022-06-07T06:50:10Z</time>
      </trkpt>
      <trkpt lat="44.74716" lon="5.44226">
        <ele>829.27</ele>
        <time>2022-06-07T06:50:15Z</time>
      </trkpt>
      <trkpt lat="44.74722" lon="5.44238">
        <ele>830.72</ele>
        <time>2022-06-07T06:50:29Z</time>
      </trkpt>
      <trkpt lat="44.74735" lon="5.44248">
        <ele>832.16</ele>
        <time>2022-06-07T06:50:44Z</time>
      </trkpt>
      <trkpt lat="44.74751" lon="5.44256">
        <ele>834.08</ele>
        <time>2022-06-07T06:51:00Z</time>
      </trkpt>
      <trkpt lat="44.74756" lon="5.44261">
        <ele>836.48</ele>
        <time>2022-06-07T06:51:14Z</time>
      </trkpt>
      <trkpt lat="44.74753" lon="5.44267">
        <ele>837.93</ele>
        <time>2022-06-07T06:51:30Z</time>
      </trkpt>
      <trkpt lat="44.74743" lon="5.44273">
        <ele>839.37</ele>
        <time>2022-06-07T06:51:45Z</time>
      </trkpt>
      <trkpt lat="44.74733" lon="5.44282">
        <ele>841.29</ele>
        <time>2022-06-07T06:52:00Z</time>
      </trkpt>
      <trkpt lat="44.74724" lon="5.44289">
        <ele>842.73</ele>
        <time>2022-06-07T06:52:14Z</time>
      </trkpt>
      <trkpt lat="44.74712" lon="5.44285">
        <ele>844.66</ele>
        <time>2022-06-07T06:52:28Z</time>
      </trkpt>
      <trkpt lat="44.74701" lon="5.44283">
        <ele>846.1</ele>
        <time>2022-06-07T06:52:42Z</time>
      </trkpt>
      <trkpt lat="44.74691" lon="5.4429">
        <ele>847.54</ele>
        <time>2022-06-07T06:52:56Z</time>
      </trkpt>
      <trkpt lat="44.74683" lon="5.44297">
        <ele>848.5</ele>
        <time>2022-06-07T06:53:08Z</time>
      </trkpt>
      <trkpt lat="44.74674" lon="5.44306">
        <ele>849.46</ele>
        <time>2022-06-07T06:53:20Z</time>
      </trkpt>
      <trkpt lat="44.74662" lon="5.44316">
        <ele>850.9</ele>
        <time>2022-06-07T06:53:35Z</time>
      </trkpt>
      <trkpt lat="44.74651" lon="5.44319">
        <ele>851.87</ele>
        <time>2022-06-07T06:53:49Z</time>
      </trkpt>
      <trkpt lat="44.74638" lon="5.4431">
        <ele>853.31</ele>
        <time>2022-06-07T06:54:07Z</time>
      </trkpt>
      <trkpt lat="44.74632" lon="5.4429">
        <ele>853.79</ele>
        <time>2022-06-07T06:54:20Z</time>
      </trkpt>
      <trkpt lat="44.74631" lon="5.44279">
        <ele>854.27</ele>
        <time>2022-06-07T06:54:29Z</time>
      </trkpt>
      <trkpt lat="44.74633" lon="5.44258">
        <ele>855.71</ele>
        <time>2022-06-07T06:54:45Z</time>
      </trkpt>
      <trkpt lat="44.74627" lon="5.44235">
        <ele>857.63</ele>
        <time>2022-06-07T06:55:03Z</time>
      </trkpt>
      <trkpt lat="44.7462" lon="5.44224">
        <ele>858.11</ele>
        <time>2022-06-07T06:55:18Z</time>
      </trkpt>
      <trkpt lat="44.74611" lon="5.44216">
        <ele>859.08</ele>
        <time>2022-06-07T06:55:29Z</time>
      </trkpt>
      <trkpt lat="44.74599" lon="5.44207">
        <ele>860.52</ele>
        <time>2022-06-07T06:55:44Z</time>
      </trkpt>
      <trkpt lat="44.74592" lon="5.44206">
        <ele>860.52</ele>
        <time>2022-06-07T06:56:00Z</time>
      </trkpt>
      <trkpt lat="44.74586" lon="5.44199">
        <ele>860.52</ele>
        <time>2022-06-07T06:56:17Z</time>
      </trkpt>
      <trkpt lat="44.74582" lon="5.44198">
        <ele>861</ele>
        <time>2022-06-07T06:56:38Z</time>
      </trkpt>
      <trkpt lat="44.7458" lon="5.44196">
        <ele>861</ele>
        <time>2022-06-07T06:56:53Z</time>
      </trkpt>
      <trkpt lat="44.74578" lon="5.44195">
        <ele>860.52</ele>
        <time>2022-06-07T06:57:08Z</time>
      </trkpt>
      <trkpt lat="44.74578" lon="5.44192">
        <ele>861</ele>
        <time>2022-06-07T06:57:25Z</time>
      </trkpt>
      <trkpt lat="44.74578" lon="5.44186">
        <ele>861</ele>
        <time>2022-06-07T06:57:44Z</time>
      </trkpt>
      <trkpt lat="44.74579" lon="5.44185">
        <ele>861.48</ele>
        <time>2022-06-07T06:58:00Z</time>
      </trkpt>
      <trkpt lat="44.74571" lon="5.44185">
        <ele>861.96</ele>
        <time>2022-06-07T06:58:18Z</time>
      </trkpt>
      <trkpt lat="44.74558" lon="5.44182">
        <ele>863.88</ele>
        <time>2022-06-07T06:58:34Z</time>
      </trkpt>
      <trkpt lat="44.74547" lon="5.44164">
        <ele>864.84</ele>
        <time>2022-06-07T06:58:50Z</time>
      </trkpt>
      <trkpt lat="44.74543" lon="5.44158">
        <ele>865.8</ele>
        <time>2022-06-07T06:59:05Z</time>
      </trkpt>
      <trkpt lat="44.74545" lon="5.44153">
        <ele>865.8</ele>
        <time>2022-06-07T06:59:24Z</time>
      </trkpt>
      <trkpt lat="44.74547" lon="5.44153">
        <ele>865.8</ele>
        <time>2022-06-07T06:59:41Z</time>
      </trkpt>
      <trkpt lat="44.74547" lon="5.44155">
        <ele>866.29</ele>
        <time>2022-06-07T07:00:02Z</time>
      </trkpt>
      <trkpt lat="44.74549" lon="5.44164">
        <ele>866.77</ele>
        <time>2022-06-07T07:00:19Z</time>
      </trkpt>
      <trkpt lat="44.7455" lon="5.44166">
        <ele>867.25</ele>
        <time>2022-06-07T07:00:21Z</time>
      </trkpt>
      <trkpt lat="44.74556" lon="5.44179">
        <ele>868.21</ele>
        <time>2022-06-07T07:00:34Z</time>
      </trkpt>
      <trkpt lat="44.74564" lon="5.44193">
        <ele>870.13</ele>
        <time>2022-06-07T07:00:47Z</time>
      </trkpt>
      <trkpt lat="44.74578" lon="5.44204">
        <ele>872.53</ele>
        <time>2022-06-07T07:01:02Z</time>
      </trkpt>
      <trkpt lat="44.74589" lon="5.44214">
        <ele>874.46</ele>
        <time>2022-06-07T07:01:16Z</time>
      </trkpt>
      <trkpt lat="44.74595" lon="5.44226">
        <ele>876.38</ele>
        <time>2022-06-07T07:01:29Z</time>
      </trkpt>
      <trkpt lat="44.74598" lon="5.44238">
        <ele>878.78</ele>
        <time>2022-06-07T07:01:42Z</time>
      </trkpt>
      <trkpt lat="44.74599" lon="5.44253">
        <ele>879.74</ele>
        <time>2022-06-07T07:01:55Z</time>
      </trkpt>
      <trkpt lat="44.746" lon="5.44269">
        <ele>881.19</ele>
        <time>2022-06-07T07:02:07Z</time>
      </trkpt>
      <trkpt lat="44.74599" lon="5.44283">
        <ele>882.63</ele>
        <time>2022-06-07T07:02:20Z</time>
      </trkpt>
      <trkpt lat="44.74602" lon="5.44296">
        <ele>884.55</ele>
        <time>2022-06-07T07:02:33Z</time>
      </trkpt>
      <trkpt lat="44.74602" lon="5.44295">
        <ele>885.51</ele>
        <time>2022-06-07T07:02:38Z</time>
      </trkpt>
      <trkpt lat="44.74598" lon="5.44286">
        <ele>886.47</ele>
        <time>2022-06-07T07:02:58Z</time>
      </trkpt>
      <trkpt lat="44.74596" lon="5.44282">
        <ele>886.47</ele>
        <time>2022-06-07T07:03:17Z</time>
      </trkpt>
      <trkpt lat="44.74589" lon="5.44271">
        <ele>887.43</ele>
        <time>2022-06-07T07:03:29Z</time>
      </trkpt>
      <trkpt lat="44.74586" lon="5.44248">
        <ele>889.84</ele>
        <time>2022-06-07T07:03:45Z</time>
      </trkpt>
      <trkpt lat="44.74578" lon="5.44241">
        <ele>891.76</ele>
        <time>2022-06-07T07:03:59Z</time>
      </trkpt>
      <trkpt lat="44.74578" lon="5.44241">
        <ele>891.76</ele>
        <time>2022-06-07T07:04:00Z</time>
      </trkpt>
      <trkpt lat="44.74566" lon="5.44243">
        <ele>893.2</ele>
        <time>2022-06-07T07:04:14Z</time>
      </trkpt>
      <trkpt lat="44.74552" lon="5.44239">
        <ele>895.12</ele>
        <time>2022-06-07T07:04:28Z</time>
      </trkpt>
      <trkpt lat="44.74542" lon="5.44226">
        <ele>896.57</ele>
        <time>2022-06-07T07:04:44Z</time>
      </trkpt>
      <trkpt lat="44.74532" lon="5.44212">
        <ele>898.49</ele>
        <time>2022-06-07T07:04:59Z</time>
      </trkpt>
      <trkpt lat="44.74532" lon="5.44213">
        <ele>900.89</ele>
        <time>2022-06-07T07:05:11Z</time>
      </trkpt>
      <trkpt lat="44.74539" lon="5.44227">
        <ele>903.3</ele>
        <time>2022-06-07T07:05:25Z</time>
      </trkpt>
      <trkpt lat="44.74542" lon="5.44243">
        <ele>904.74</ele>
        <time>2022-06-07T07:05:39Z</time>
      </trkpt>
      <trkpt lat="44.74543" lon="5.44244">
        <ele>905.22</ele>
        <time>2022-06-07T07:05:40Z</time>
      </trkpt>
      <trkpt lat="44.74555" lon="5.44259">
        <ele>907.14</ele>
        <time>2022-06-07T07:05:56Z</time>
      </trkpt>
      <trkpt lat="44.7456" lon="5.44274">
        <ele>909.06</ele>
        <time>2022-06-07T07:06:10Z</time>
      </trkpt>
      <trkpt lat="44.74563" lon="5.44291">
        <ele>911.47</ele>
        <time>2022-06-07T07:06:25Z</time>
      </trkpt>
      <trkpt lat="44.74566" lon="5.44307">
        <ele>913.39</ele>
        <time>2022-06-07T07:06:41Z</time>
      </trkpt>
      <trkpt lat="44.74567" lon="5.44325">
        <ele>915.79</ele>
        <time>2022-06-07T07:06:57Z</time>
      </trkpt>
      <trkpt lat="44.74564" lon="5.44341">
        <ele>917.24</ele>
        <time>2022-06-07T07:07:10Z</time>
      </trkpt>
      <trkpt lat="44.7457" lon="5.44357">
        <ele>918.68</ele>
        <time>2022-06-07T07:07:22Z</time>
      </trkpt>
      <trkpt lat="44.7457" lon="5.44371">
        <ele>921.08</ele>
        <time>2022-06-07T07:07:35Z</time>
      </trkpt>
      <trkpt lat="44.7457" lon="5.44387">
        <ele>922.04</ele>
        <time>2022-06-07T07:07:49Z</time>
      </trkpt>
      <trkpt lat="44.74574" lon="5.44406">
        <ele>923.96</ele>
        <time>2022-06-07T07:08:06Z</time>
      </trkpt>
      <trkpt lat="44.7458" lon="5.44415">
        <ele>924.93</ele>
        <time>2022-06-07T07:08:20Z</time>
      </trkpt>
      <trkpt lat="44.7459" lon="5.44411">
        <ele>926.85</ele>
        <time>2022-06-07T07:08:34Z</time>
      </trkpt>
      <trkpt lat="44.74598" lon="5.44413">
        <ele>928.29</ele>
        <time>2022-06-07T07:08:48Z</time>
      </trkpt>
      <trkpt lat="44.7461" lon="5.4442">
        <ele>930.21</ele>
        <time>2022-06-07T07:09:01Z</time>
      </trkpt>
      <trkpt lat="44.74623" lon="5.44421">
        <ele>932.14</ele>
        <time>2022-06-07T07:09:15Z</time>
      </trkpt>
      <trkpt lat="44.74633" lon="5.4443">
        <ele>934.06</ele>
        <time>2022-06-07T07:09:29Z</time>
      </trkpt>
      <trkpt lat="44.7464" lon="5.4444">
        <ele>935.5</ele>
        <time>2022-06-07T07:09:48Z</time>
      </trkpt>
      <trkpt lat="44.74651" lon="5.44451">
        <ele>936.94</ele>
        <time>2022-06-07T07:10:02Z</time>
      </trkpt>
      <trkpt lat="44.74655" lon="5.44458">
        <ele>938.38</ele>
        <time>2022-06-07T07:10:10Z</time>
      </trkpt>
      <trkpt lat="44.74667" lon="5.44467">
        <ele>939.83</ele>
        <time>2022-06-07T07:10:23Z</time>
      </trkpt>
      <trkpt lat="44.74669" lon="5.44467">
        <ele>939.83</ele>
        <time>2022-06-07T07:10:25Z</time>
      </trkpt>
      <trkpt lat="44.74679" lon="5.44477">
        <ele>942.71</ele>
        <time>2022-06-07T07:10:39Z</time>
      </trkpt>
      <trkpt lat="44.7469" lon="5.44484">
        <ele>944.15</ele>
        <time>2022-06-07T07:10:53Z</time>
      </trkpt>
      <trkpt lat="44.74696" lon="5.44486">
        <ele>945.11</ele>
        <time>2022-06-07T07:11:00Z</time>
      </trkpt>
      <trkpt lat="44.74707" lon="5.44492">
        <ele>947.04</ele>
        <time>2022-06-07T07:11:14Z</time>
      </trkpt>
      <trkpt lat="44.74714" lon="5.44506">
        <ele>948.96</ele>
        <time>2022-06-07T07:11:27Z</time>
      </trkpt>
      <trkpt lat="44.74724" lon="5.44518">
        <ele>950.4</ele>
        <time>2022-06-07T07:11:41Z</time>
      </trkpt>
      <trkpt lat="44.74727" lon="5.44521">
        <ele>951.84</ele>
        <time>2022-06-07T07:11:45Z</time>
      </trkpt>
      <trkpt lat="44.7473" lon="5.44524">
        <ele>952.32</ele>
        <time>2022-06-07T07:11:49Z</time>
      </trkpt>
      <trkpt lat="44.74738" lon="5.44538">
        <ele>954.25</ele>
        <time>2022-06-07T07:12:05Z</time>
      </trkpt>
      <trkpt lat="44.74744" lon="5.44544">
        <ele>955.21</ele>
        <time>2022-06-07T07:12:13Z</time>
      </trkpt>
      <trkpt lat="44.74749" lon="5.44537">
        <ele>955.69</ele>
        <time>2022-06-07T07:12:20Z</time>
      </trkpt>
      <trkpt lat="44.74753" lon="5.44538">
        <ele>955.69</ele>
        <time>2022-06-07T07:12:24Z</time>
      </trkpt>
      <trkpt lat="44.74763" lon="5.44539">
        <ele>957.61</ele>
        <time>2022-06-07T07:12:40Z</time>
      </trkpt>
      <trkpt lat="44.74764" lon="5.44537">
        <ele>958.57</ele>
        <time>2022-06-07T07:13:31Z</time>
      </trkpt>
      <trkpt lat="44.74769" lon="5.44538">
        <ele>958.57</ele>
        <time>2022-06-07T07:13:47Z</time>
      </trkpt>
      <trkpt lat="44.74777" lon="5.44544">
        <ele>959.05</ele>
        <time>2022-06-07T07:13:55Z</time>
      </trkpt>
      <trkpt lat="44.74782" lon="5.44545">
        <ele>959.53</ele>
        <time>2022-06-07T07:14:00Z</time>
      </trkpt>
      <trkpt lat="44.74795" lon="5.44553">
        <ele>961.94</ele>
        <time>2022-06-07T07:14:16Z</time>
      </trkpt>
      <trkpt lat="44.74809" lon="5.44559">
        <ele>963.86</ele>
        <time>2022-06-07T07:14:29Z</time>
      </trkpt>
      <trkpt lat="44.74819" lon="5.44567">
        <ele>964.82</ele>
        <time>2022-06-07T07:14:41Z</time>
      </trkpt>
      <trkpt lat="44.74829" lon="5.44574">
        <ele>966.74</ele>
        <time>2022-06-07T07:14:55Z</time>
      </trkpt>
      <trkpt lat="44.74836" lon="5.44571">
        <ele>967.7</ele>
        <time>2022-06-07T07:15:02Z</time>
      </trkpt>
      <trkpt lat="44.74852" lon="5.44568">
        <ele>969.15</ele>
        <time>2022-06-07T07:15:18Z</time>
      </trkpt>
      <trkpt lat="44.74863" lon="5.44569">
        <ele>970.11</ele>
        <time>2022-06-07T07:15:30Z</time>
      </trkpt>
      <trkpt lat="44.74877" lon="5.44557">
        <ele>972.03</ele>
        <time>2022-06-07T07:15:47Z</time>
      </trkpt>
      <trkpt lat="44.74884" lon="5.44566">
        <ele>972.99</ele>
        <time>2022-06-07T07:15:59Z</time>
      </trkpt>
      <trkpt lat="44.74893" lon="5.44586">
        <ele>974.43</ele>
        <time>2022-06-07T07:16:15Z</time>
      </trkpt>
      <trkpt lat="44.74905" lon="5.446">
        <ele>975.88</ele>
        <time>2022-06-07T07:16:30Z</time>
      </trkpt>
      <trkpt lat="44.74914" lon="5.44609">
        <ele>977.32</ele>
        <time>2022-06-07T07:16:43Z</time>
      </trkpt>
      <trkpt lat="44.74916" lon="5.4461">
        <ele>977.8</ele>
        <time>2022-06-07T07:16:46Z</time>
      </trkpt>
      <trkpt lat="44.74921" lon="5.44612">
        <ele>978.76</ele>
        <time>2022-06-07T07:16:52Z</time>
      </trkpt>
      <trkpt lat="44.74928" lon="5.4461">
        <ele>980.2</ele>
        <time>2022-06-07T07:17:04Z</time>
      </trkpt>
      <trkpt lat="44.74929" lon="5.44603">
        <ele>980.68</ele>
        <time>2022-06-07T07:17:11Z</time>
      </trkpt>
      <trkpt lat="44.74931" lon="5.44596">
        <ele>981.64</ele>
        <time>2022-06-07T07:17:17Z</time>
      </trkpt>
      <trkpt lat="44.7494" lon="5.44584">
        <ele>983.57</ele>
        <time>2022-06-07T07:17:29Z</time>
      </trkpt>
      <trkpt lat="44.74942" lon="5.44571">
        <ele>985.01</ele>
        <time>2022-06-07T07:17:38Z</time>
      </trkpt>
      <trkpt lat="44.74946" lon="5.44562">
        <ele>985.49</ele>
        <time>2022-06-07T07:17:45Z</time>
      </trkpt>
      <trkpt lat="44.74954" lon="5.4454">
        <ele>987.41</ele>
        <time>2022-06-07T07:18:02Z</time>
      </trkpt>
      <trkpt lat="44.74964" lon="5.44523">
        <ele>988.37</ele>
        <time>2022-06-07T07:18:17Z</time>
      </trkpt>
      <trkpt lat="44.74965" lon="5.44522">
        <ele>988.85</ele>
        <time>2022-06-07T07:18:30Z</time>
      </trkpt>
      <trkpt lat="44.74974" lon="5.44514">
        <ele>988.85</ele>
        <time>2022-06-07T07:18:46Z</time>
      </trkpt>
      <trkpt lat="44.74981" lon="5.44507">
        <ele>989.81</ele>
        <time>2022-06-07T07:18:55Z</time>
      </trkpt>
      <trkpt lat="44.74983" lon="5.44506">
        <ele>990.3</ele>
        <time>2022-06-07T07:18:58Z</time>
      </trkpt>
      <trkpt lat="44.74989" lon="5.44504">
        <ele>990.78</ele>
        <time>2022-06-07T07:19:04Z</time>
      </trkpt>
      <trkpt lat="44.75002" lon="5.44496">
        <ele>993.18</ele>
        <time>2022-06-07T07:19:19Z</time>
      </trkpt>
      <trkpt lat="44.75017" lon="5.4449">
        <ele>994.62</ele>
        <time>2022-06-07T07:19:35Z</time>
      </trkpt>
      <trkpt lat="44.75022" lon="5.44487">
        <ele>995.1</ele>
        <time>2022-06-07T07:19:42Z</time>
      </trkpt>
      <trkpt lat="44.75033" lon="5.44481">
        <ele>996.54</ele>
        <time>2022-06-07T07:19:54Z</time>
      </trkpt>
      <trkpt lat="44.75043" lon="5.4447">
        <ele>998.47</ele>
        <time>2022-06-07T07:20:09Z</time>
      </trkpt>
      <trkpt lat="44.75054" lon="5.44459">
        <ele>999.91</ele>
        <time>2022-06-07T07:20:23Z</time>
      </trkpt>
      <trkpt lat="44.75064" lon="5.44451">
        <ele>1001.83</ele>
        <time>2022-06-07T07:20:38Z</time>
      </trkpt>
      <trkpt lat="44.75073" lon="5.44444">
        <ele>1003.27</ele>
        <time>2022-06-07T07:20:51Z</time>
      </trkpt>
      <trkpt lat="44.75086" lon="5.44438">
        <ele>1004.72</ele>
        <time>2022-06-07T07:21:05Z</time>
      </trkpt>
      <trkpt lat="44.75089" lon="5.44436">
        <ele>1005.2</ele>
        <time>2022-06-07T07:21:09Z</time>
      </trkpt>
      <trkpt lat="44.751" lon="5.44432">
        <ele>1006.64</ele>
        <time>2022-06-07T07:21:20Z</time>
      </trkpt>
      <trkpt lat="44.75111" lon="5.44429">
        <ele>1008.08</ele>
        <time>2022-06-07T07:21:35Z</time>
      </trkpt>
      <trkpt lat="44.75122" lon="5.44431">
        <ele>1010</ele>
        <time>2022-06-07T07:21:49Z</time>
      </trkpt>
      <trkpt lat="44.75136" lon="5.44429">
        <ele>1011.44</ele>
        <time>2022-06-07T07:22:04Z</time>
      </trkpt>
      <trkpt lat="44.75149" lon="5.4443">
        <ele>1012.89</ele>
        <time>2022-06-07T07:22:19Z</time>
      </trkpt>
      <trkpt lat="44.7516" lon="5.44432">
        <ele>1013.85</ele>
        <time>2022-06-07T07:22:32Z</time>
      </trkpt>
      <trkpt lat="44.75168" lon="5.4443">
        <ele>1016.25</ele>
        <time>2022-06-07T07:25:56Z</time>
      </trkpt>
      <trkpt lat="44.75161" lon="5.4444">
        <ele>1017.69</ele>
        <time>2022-06-07T07:26:11Z</time>
      </trkpt>
      <trkpt lat="44.75153" lon="5.4445">
        <ele>1018.65</ele>
        <time>2022-06-07T07:26:25Z</time>
      </trkpt>
      <trkpt lat="44.75147" lon="5.44461">
        <ele>1021.06</ele>
        <time>2022-06-07T07:26:39Z</time>
      </trkpt>
      <trkpt lat="44.75136" lon="5.44474">
        <ele>1022.98</ele>
        <time>2022-06-07T07:26:56Z</time>
      </trkpt>
      <trkpt lat="44.75129" lon="5.44485">
        <ele>1025.38</ele>
        <time>2022-06-07T07:27:10Z</time>
      </trkpt>
      <trkpt lat="44.75122" lon="5.44496">
        <ele>1026.34</ele>
        <time>2022-06-07T07:27:23Z</time>
      </trkpt>
      <trkpt lat="44.75115" lon="5.44509">
        <ele>1028.27</ele>
        <time>2022-06-07T07:27:39Z</time>
      </trkpt>
      <trkpt lat="44.75109" lon="5.44516">
        <ele>1028.75</ele>
        <time>2022-06-07T07:28:07Z</time>
      </trkpt>
      <trkpt lat="44.751" lon="5.4453">
        <ele>1029.23</ele>
        <time>2022-06-07T07:28:26Z</time>
      </trkpt>
      <trkpt lat="44.75088" lon="5.44549">
        <ele>1032.11</ele>
        <time>2022-06-07T07:28:46Z</time>
      </trkpt>
      <trkpt lat="44.75078" lon="5.44565">
        <ele>1033.07</ele>
        <time>2022-06-07T07:29:01Z</time>
      </trkpt>
      <trkpt lat="44.75067" lon="5.44579">
        <ele>1035</ele>
        <time>2022-06-07T07:29:16Z</time>
      </trkpt>
      <trkpt lat="44.75058" lon="5.44591">
        <ele>1036.44</ele>
        <time>2022-06-07T07:29:29Z</time>
      </trkpt>
      <trkpt lat="44.75044" lon="5.44606">
        <ele>1036.92</ele>
        <time>2022-06-07T07:29:45Z</time>
      </trkpt>
      <trkpt lat="44.75029" lon="5.44621">
        <ele>1038.84</ele>
        <time>2022-06-07T07:30:02Z</time>
      </trkpt>
      <trkpt lat="44.75017" lon="5.44636">
        <ele>1039.8</ele>
        <time>2022-06-07T07:30:15Z</time>
      </trkpt>
      <trkpt lat="44.75009" lon="5.44654">
        <ele>1041.73</ele>
        <time>2022-06-07T07:30:31Z</time>
      </trkpt>
      <trkpt lat="44.75006" lon="5.44669">
        <ele>1042.21</ele>
        <time>2022-06-07T07:30:43Z</time>
      </trkpt>
      <trkpt lat="44.75004" lon="5.44687">
        <ele>1043.17</ele>
        <time>2022-06-07T07:30:57Z</time>
      </trkpt>
      <trkpt lat="44.75003" lon="5.44713">
        <ele>1043.65</ele>
        <time>2022-06-07T07:31:12Z</time>
      </trkpt>
      <trkpt lat="44.75002" lon="5.44731">
        <ele>1044.13</ele>
        <time>2022-06-07T07:31:28Z</time>
      </trkpt>
      <trkpt lat="44.74999" lon="5.44752">
        <ele>1045.57</ele>
        <time>2022-06-07T07:31:46Z</time>
      </trkpt>
      <trkpt lat="44.74993" lon="5.44771">
        <ele>1045.57</ele>
        <time>2022-06-07T07:32:03Z</time>
      </trkpt>
      <trkpt lat="44.74983" lon="5.44791">
        <ele>1047.01</ele>
        <time>2022-06-07T07:32:24Z</time>
      </trkpt>
      <trkpt lat="44.74976" lon="5.44809">
        <ele>1047.97</ele>
        <time>2022-06-07T07:32:40Z</time>
      </trkpt>
      <trkpt lat="44.74963" lon="5.44832">
        <ele>1050.86</ele>
        <time>2022-06-07T07:32:57Z</time>
      </trkpt>
      <trkpt lat="44.74962" lon="5.44845">
        <ele>1051.34</ele>
        <time>2022-06-07T07:33:13Z</time>
      </trkpt>
      <trkpt lat="44.74957" lon="5.44863">
        <ele>1052.78</ele>
        <time>2022-06-07T07:33:29Z</time>
      </trkpt>
      <trkpt lat="44.74941" lon="5.44884">
        <ele>1054.22</ele>
        <time>2022-06-07T07:33:49Z</time>
      </trkpt>
      <trkpt lat="44.74936" lon="5.44894">
        <ele>1057.11</ele>
        <time>2022-06-07T07:34:08Z</time>
      </trkpt>
      <trkpt lat="44.74927" lon="5.44899">
        <ele>1059.99</ele>
        <time>2022-06-07T07:34:24Z</time>
      </trkpt>
      <trkpt lat="44.74919" lon="5.44898">
        <ele>1062.87</ele>
        <time>2022-06-07T07:34:42Z</time>
      </trkpt>
      <trkpt lat="44.74912" lon="5.44902">
        <ele>1065.28</ele>
        <time>2022-06-07T07:34:58Z</time>
      </trkpt>
      <trkpt lat="44.74903" lon="5.44896">
        <ele>1068.64</ele>
        <time>2022-06-07T07:35:14Z</time>
      </trkpt>
      <trkpt lat="44.74896" lon="5.44891">
        <ele>1076.81</ele>
        <time>2022-06-07T07:36:01Z</time>
      </trkpt>
      <trkpt lat="44.7489" lon="5.44888">
        <ele>1078.74</ele>
        <time>2022-06-07T07:36:16Z</time>
      </trkpt>
      <trkpt lat="44.74883" lon="5.44886">
        <ele>1081.14</ele>
        <time>2022-06-07T07:36:29Z</time>
      </trkpt>
      <trkpt lat="44.74878" lon="5.44888">
        <ele>1084.02</ele>
        <time>2022-06-07T07:36:44Z</time>
      </trkpt>
      <trkpt lat="44.74871" lon="5.44877">
        <ele>1086.43</ele>
        <time>2022-06-07T07:37:02Z</time>
      </trkpt>
      <trkpt lat="44.74871" lon="5.44869">
        <ele>1087.87</ele>
        <time>2022-06-07T07:37:17Z</time>
      </trkpt>
      <trkpt lat="44.74866" lon="5.4486">
        <ele>1089.31</ele>
        <time>2022-06-07T07:37:36Z</time>
      </trkpt>
      <trkpt lat="44.74859" lon="5.44851">
        <ele>1091.23</ele>
        <time>2022-06-07T07:37:49Z</time>
      </trkpt>
      <trkpt lat="44.74856" lon="5.44844">
        <ele>1092.68</ele>
        <time>2022-06-07T07:37:57Z</time>
      </trkpt>
      <trkpt lat="44.74849" lon="5.44838">
        <ele>1095.08</ele>
        <time>2022-06-07T07:38:09Z</time>
      </trkpt>
      <trkpt lat="44.7484" lon="5.44834">
        <ele>1097.48</ele>
        <time>2022-06-07T07:38:24Z</time>
      </trkpt>
      <trkpt lat="44.74834" lon="5.4483">
        <ele>1099.89</ele>
        <time>2022-06-07T07:38:37Z</time>
      </trkpt>
      <trkpt lat="44.74826" lon="5.44826">
        <ele>1103.25</ele>
        <time>2022-06-07T07:38:51Z</time>
      </trkpt>
      <trkpt lat="44.74816" lon="5.44815">
        <ele>1105.17</ele>
        <time>2022-06-07T07:39:06Z</time>
      </trkpt>
      <trkpt lat="44.7481" lon="5.4481">
        <ele>1107.58</ele>
        <time>2022-06-07T07:39:18Z</time>
      </trkpt>
      <trkpt lat="44.74799" lon="5.44801">
        <ele>1109.98</ele>
        <time>2022-06-07T07:39:35Z</time>
      </trkpt>
      <trkpt lat="44.74791" lon="5.44793">
        <ele>1112.86</ele>
        <time>2022-06-07T07:39:50Z</time>
      </trkpt>
      <trkpt lat="44.74782" lon="5.44787">
        <ele>1116.23</ele>
        <time>2022-06-07T07:40:04Z</time>
      </trkpt>
      <trkpt lat="44.74775" lon="5.44776">
        <ele>1119.11</ele>
        <time>2022-06-07T07:40:19Z</time>
      </trkpt>
      <trkpt lat="44.74773" lon="5.44775">
        <ele>1119.59</ele>
        <time>2022-06-07T07:40:22Z</time>
      </trkpt>
      <trkpt lat="44.74766" lon="5.44774">
        <ele>1122.96</ele>
        <time>2022-06-07T07:40:38Z</time>
      </trkpt>
      <trkpt lat="44.74765" lon="5.44771">
        <ele>1124.4</ele>
        <time>2022-06-07T07:41:38Z</time>
      </trkpt>
      <trkpt lat="44.74757" lon="5.4477">
        <ele>1127.76</ele>
        <time>2022-06-07T07:41:52Z</time>
      </trkpt>
      <trkpt lat="44.74751" lon="5.44767">
        <ele>1131.13</ele>
        <time>2022-06-07T07:42:06Z</time>
      </trkpt>
      <trkpt lat="44.74748" lon="5.44771">
        <ele>1133.53</ele>
        <time>2022-06-07T07:42:21Z</time>
      </trkpt>
      <trkpt lat="44.74745" lon="5.44778">
        <ele>1136.9</ele>
        <time>2022-06-07T07:42:36Z</time>
      </trkpt>
      <trkpt lat="44.7473" lon="5.44772">
        <ele>1137.86</ele>
        <time>2022-06-07T07:42:54Z</time>
      </trkpt>
      <trkpt lat="44.74718" lon="5.44775">
        <ele>1139.3</ele>
        <time>2022-06-07T07:43:10Z</time>
      </trkpt>
      <trkpt lat="44.74705" lon="5.44777">
        <ele>1142.18</ele>
        <time>2022-06-07T07:43:25Z</time>
      </trkpt>
      <trkpt lat="44.74695" lon="5.44778">
        <ele>1145.55</ele>
        <time>2022-06-07T07:43:42Z</time>
      </trkpt>
      <trkpt lat="44.74682" lon="5.44781">
        <ele>1146.99</ele>
        <time>2022-06-07T07:43:58Z</time>
      </trkpt>
      <trkpt lat="44.74671" lon="5.44775">
        <ele>1147.95</ele>
        <time>2022-06-07T07:44:11Z</time>
      </trkpt>
      <trkpt lat="44.74658" lon="5.44772">
        <ele>1148.43</ele>
        <time>2022-06-07T07:44:27Z</time>
      </trkpt>
      <trkpt lat="44.74648" lon="5.44784">
        <ele>1148.43</ele>
        <time>2022-06-07T07:44:41Z</time>
      </trkpt>
      <trkpt lat="44.74641" lon="5.44804">
        <ele>1151.32</ele>
        <time>2022-06-07T07:45:01Z</time>
      </trkpt>
      <trkpt lat="44.74636" lon="5.4482">
        <ele>1154.2</ele>
        <time>2022-06-07T07:45:21Z</time>
      </trkpt>
      <trkpt lat="44.74634" lon="5.44834">
        <ele>1157.08</ele>
        <time>2022-06-07T07:45:39Z</time>
      </trkpt>
      <trkpt lat="44.74628" lon="5.44848">
        <ele>1159.97</ele>
        <time>2022-06-07T07:45:57Z</time>
      </trkpt>
      <trkpt lat="44.74614" lon="5.44854">
        <ele>1163.33</ele>
        <time>2022-06-07T07:46:13Z</time>
      </trkpt>
      <trkpt lat="44.74598" lon="5.44853">
        <ele>1166.7</ele>
        <time>2022-06-07T07:46:31Z</time>
      </trkpt>
      <trkpt lat="44.74583" lon="5.44849">
        <ele>1169.58</ele>
        <time>2022-06-07T07:46:50Z</time>
      </trkpt>
      <trkpt lat="44.74572" lon="5.44846">
        <ele>1171.5</ele>
        <time>2022-06-07T07:47:05Z</time>
      </trkpt>
      <trkpt lat="44.74563" lon="5.44839">
        <ele>1174.39</ele>
        <time>2022-06-07T07:47:21Z</time>
      </trkpt>
      <trkpt lat="44.74555" lon="5.44832">
        <ele>1176.79</ele>
        <time>2022-06-07T07:47:37Z</time>
      </trkpt>
      <trkpt lat="44.74548" lon="5.44824">
        <ele>1179.67</ele>
        <time>2022-06-07T07:47:51Z</time>
      </trkpt>
      <trkpt lat="44.74545" lon="5.44819">
        <ele>1180.64</ele>
        <time>2022-06-07T07:47:58Z</time>
      </trkpt>
      <trkpt lat="44.74542" lon="5.44813">
        <ele>1185.92</ele>
        <time>2022-06-07T07:50:13Z</time>
      </trkpt>
      <trkpt lat="44.74536" lon="5.44812">
        <ele>1187.85</ele>
        <time>2022-06-07T07:50:38Z</time>
      </trkpt>
      <trkpt lat="44.74528" lon="5.44816">
        <ele>1190.25</ele>
        <time>2022-06-07T07:50:57Z</time>
      </trkpt>
      <trkpt lat="44.74516" lon="5.44811">
        <ele>1193.13</ele>
        <time>2022-06-07T07:51:13Z</time>
      </trkpt>
      <trkpt lat="44.74505" lon="5.44809">
        <ele>1196.5</ele>
        <time>2022-06-07T07:51:29Z</time>
      </trkpt>
      <trkpt lat="44.74498" lon="5.44806">
        <ele>1199.86</ele>
        <time>2022-06-07T07:51:45Z</time>
      </trkpt>
      <trkpt lat="44.7449" lon="5.44805">
        <ele>1202.27</ele>
        <time>2022-06-07T07:52:00Z</time>
      </trkpt>
      <trkpt lat="44.74485" lon="5.44807">
        <ele>1204.67</ele>
        <time>2022-06-07T07:52:16Z</time>
      </trkpt>
      <trkpt lat="44.74481" lon="5.44813">
        <ele>1208.03</ele>
        <time>2022-06-07T07:52:33Z</time>
      </trkpt>
      <trkpt lat="44.74472" lon="5.44823">
        <ele>1210.92</ele>
        <time>2022-06-07T07:52:52Z</time>
      </trkpt>
      <trkpt lat="44.74461" lon="5.44823">
        <ele>1213.32</ele>
        <time>2022-06-07T07:53:10Z</time>
      </trkpt>
      <trkpt lat="44.74447" lon="5.44812">
        <ele>1216.21</ele>
        <time>2022-06-07T07:53:29Z</time>
      </trkpt>
      <trkpt lat="44.74437" lon="5.44802">
        <ele>1219.57</ele>
        <time>2022-06-07T07:53:45Z</time>
      </trkpt>
      <trkpt lat="44.74429" lon="5.44794">
        <ele>1222.93</ele>
        <time>2022-06-07T07:54:01Z</time>
      </trkpt>
      <trkpt lat="44.74423" lon="5.44797">
        <ele>1225.82</ele>
        <time>2022-06-07T07:54:20Z</time>
      </trkpt>
      <trkpt lat="44.74418" lon="5.44803">
        <ele>1229.18</ele>
        <time>2022-06-07T07:54:40Z</time>
      </trkpt>
      <trkpt lat="44.74411" lon="5.44813">
        <ele>1232.07</ele>
        <time>2022-06-07T07:54:56Z</time>
      </trkpt>
      <trkpt lat="44.744" lon="5.44817">
        <ele>1234.95</ele>
        <time>2022-06-07T07:55:14Z</time>
      </trkpt>
      <trkpt lat="44.74392" lon="5.44828">
        <ele>1235.43</ele>
        <time>2022-06-07T07:55:31Z</time>
      </trkpt>
      <trkpt lat="44.74381" lon="5.44847">
        <ele>1235.43</ele>
        <time>2022-06-07T07:55:46Z</time>
      </trkpt>
      <trkpt lat="44.7437" lon="5.44861">
        <ele>1235.43</ele>
        <time>2022-06-07T07:56:01Z</time>
      </trkpt>
      <trkpt lat="44.74364" lon="5.44872">
        <ele>1236.39</ele>
        <time>2022-06-07T07:56:16Z</time>
      </trkpt>
      <trkpt lat="44.74352" lon="5.44881">
        <ele>1238.8</ele>
        <time>2022-06-07T07:56:36Z</time>
      </trkpt>
      <trkpt lat="44.74339" lon="5.44887">
        <ele>1241.68</ele>
        <time>2022-06-07T07:56:53Z</time>
      </trkpt>
      <trkpt lat="44.7432" lon="5.44882">
        <ele>1240.72</ele>
        <time>2022-06-07T07:57:15Z</time>
      </trkpt>
      <trkpt lat="44.74305" lon="5.4488">
        <ele>1240.72</ele>
        <time>2022-06-07T07:57:32Z</time>
      </trkpt>
      <trkpt lat="44.74299" lon="5.44882">
        <ele>1242.16</ele>
        <time>2022-06-07T07:57:38Z</time>
      </trkpt>
      <trkpt lat="44.74285" lon="5.44883">
        <ele>1244.56</ele>
        <time>2022-06-07T07:57:57Z</time>
      </trkpt>
      <trkpt lat="44.74271" lon="5.44887">
        <ele>1247.45</ele>
        <time>2022-06-07T07:58:14Z</time>
      </trkpt>
      <trkpt lat="44.74258" lon="5.44887">
        <ele>1249.85</ele>
        <time>2022-06-07T07:58:33Z</time>
      </trkpt>
      <trkpt lat="44.74245" lon="5.44884">
        <ele>1249.85</ele>
        <time>2022-06-07T07:58:50Z</time>
      </trkpt>
      <trkpt lat="44.74231" lon="5.44878">
        <ele>1250.81</ele>
        <time>2022-06-07T07:59:06Z</time>
      </trkpt>
      <trkpt lat="44.74222" lon="5.44875">
        <ele>1251.77</ele>
        <time>2022-06-07T07:59:23Z</time>
      </trkpt>
      <trkpt lat="44.74216" lon="5.44875">
        <ele>1252.25</ele>
        <time>2022-06-07T07:59:40Z</time>
      </trkpt>
      <trkpt lat="44.74215" lon="5.44878">
        <ele>1253.22</ele>
        <time>2022-06-07T08:00:03Z</time>
      </trkpt>
      <trkpt lat="44.74205" lon="5.44878">
        <ele>1256.58</ele>
        <time>2022-06-07T08:00:20Z</time>
      </trkpt>
      <trkpt lat="44.74199" lon="5.44879">
        <ele>1258.02</ele>
        <time>2022-06-07T08:00:35Z</time>
      </trkpt>
      <trkpt lat="44.74194" lon="5.44885">
        <ele>1261.39</ele>
        <time>2022-06-07T08:00:49Z</time>
      </trkpt>
      <trkpt lat="44.74194" lon="5.44895">
        <ele>1263.31</ele>
        <time>2022-06-07T08:01:01Z</time>
      </trkpt>
      <trkpt lat="44.74198" lon="5.44901">
        <ele>1266.67</ele>
        <time>2022-06-07T08:01:16Z</time>
      </trkpt>
      <trkpt lat="44.74202" lon="5.44913">
        <ele>1269.56</ele>
        <time>2022-06-07T08:01:35Z</time>
      </trkpt>
      <trkpt lat="44.7421" lon="5.44919">
        <ele>1272.44</ele>
        <time>2022-06-07T08:01:52Z</time>
      </trkpt>
      <trkpt lat="44.74211" lon="5.44927">
        <ele>1275.81</ele>
        <time>2022-06-07T08:02:06Z</time>
      </trkpt>
      <trkpt lat="44.74216" lon="5.44937">
        <ele>1279.17</ele>
        <time>2022-06-07T08:02:24Z</time>
      </trkpt>
      <trkpt lat="44.74221" lon="5.4494">
        <ele>1282.54</ele>
        <time>2022-06-07T08:02:41Z</time>
      </trkpt>
      <trkpt lat="44.74229" lon="5.4495">
        <ele>1285.42</ele>
        <time>2022-06-07T08:03:00Z</time>
      </trkpt>
      <trkpt lat="44.7423" lon="5.44956">
        <ele>1288.3</ele>
        <time>2022-06-07T08:03:18Z</time>
      </trkpt>
      <trkpt lat="44.74227" lon="5.44965">
        <ele>1291.67</ele>
        <time>2022-06-07T08:03:35Z</time>
      </trkpt>
      <trkpt lat="44.74233" lon="5.44973">
        <ele>1294.55</ele>
        <time>2022-06-07T08:03:53Z</time>
      </trkpt>
      <trkpt lat="44.74239" lon="5.44979">
        <ele>1296.96</ele>
        <time>2022-06-07T08:04:09Z</time>
      </trkpt>
      <trkpt lat="44.74241" lon="5.44982">
        <ele>1300.32</ele>
        <time>2022-06-07T08:04:23Z</time>
      </trkpt>
      <trkpt lat="44.74245" lon="5.44989">
        <ele>1303.2</ele>
        <time>2022-06-07T08:04:42Z</time>
      </trkpt>
      <trkpt lat="44.74249" lon="5.44995">
        <ele>1306.57</ele>
        <time>2022-06-07T08:05:00Z</time>
      </trkpt>
      <trkpt lat="44.74256" lon="5.44997">
        <ele>1308.97</ele>
        <time>2022-06-07T08:05:18Z</time>
      </trkpt>
      <trkpt lat="44.74263" lon="5.45003">
        <ele>1311.38</ele>
        <time>2022-06-07T08:05:34Z</time>
      </trkpt>
      <trkpt lat="44.74267" lon="5.45008">
        <ele>1313.78</ele>
        <time>2022-06-07T08:05:50Z</time>
      </trkpt>
      <trkpt lat="44.7427" lon="5.45011">
        <ele>1317.14</ele>
        <time>2022-06-07T08:06:06Z</time>
      </trkpt>
      <trkpt lat="44.74268" lon="5.45018">
        <ele>1319.55</ele>
        <time>2022-06-07T08:06:20Z</time>
      </trkpt>
      <trkpt lat="44.74272" lon="5.45025">
        <ele>1322.43</ele>
        <time>2022-06-07T08:06:35Z</time>
      </trkpt>
      <trkpt lat="44.74273" lon="5.45032">
        <ele>1324.83</ele>
        <time>2022-06-07T08:06:51Z</time>
      </trkpt>
      <trkpt lat="44.7427" lon="5.45033">
        <ele>1327.72</ele>
        <time>2022-06-07T08:07:04Z</time>
      </trkpt>
      <trkpt lat="44.7427" lon="5.45037">
        <ele>1328.68</ele>
        <time>2022-06-07T08:07:30Z</time>
      </trkpt>
      <trkpt lat="44.74265" lon="5.45033">
        <ele>1328.68</ele>
        <time>2022-06-07T08:08:04Z</time>
      </trkpt>
      <trkpt lat="44.74264" lon="5.45031">
        <ele>1329.16</ele>
        <time>2022-06-07T08:08:58Z</time>
      </trkpt>
      <trkpt lat="44.74261" lon="5.45032">
        <ele>1329.64</ele>
        <time>2022-06-07T08:09:25Z</time>
      </trkpt>
      <trkpt lat="44.7425" lon="5.45026">
        <ele>1332.52</ele>
        <time>2022-06-07T08:09:43Z</time>
      </trkpt>
      <trkpt lat="44.7424" lon="5.45029">
        <ele>1335.89</ele>
        <time>2022-06-07T08:10:00Z</time>
      </trkpt>
      <trkpt lat="44.74234" lon="5.45032">
        <ele>1338.77</ele>
        <time>2022-06-07T08:10:16Z</time>
      </trkpt>
      <trkpt lat="44.74232" lon="5.45036">
        <ele>1340.7</ele>
        <time>2022-06-07T08:10:31Z</time>
      </trkpt>
      <trkpt lat="44.74229" lon="5.4504">
        <ele>1342.62</ele>
        <time>2022-06-07T08:10:46Z</time>
      </trkpt>
      <trkpt lat="44.74231" lon="5.45044">
        <ele>1345.02</ele>
        <time>2022-06-07T08:10:56Z</time>
      </trkpt>
      <trkpt lat="44.74234" lon="5.45047">
        <ele>1345.5</ele>
        <time>2022-06-07T08:11:08Z</time>
      </trkpt>
      <trkpt lat="44.7424" lon="5.45052">
        <ele>1347.91</ele>
        <time>2022-06-07T08:11:24Z</time>
      </trkpt>
      <trkpt lat="44.74248" lon="5.45061">
        <ele>1350.79</ele>
        <time>2022-06-07T08:11:40Z</time>
      </trkpt>
      <trkpt lat="44.74258" lon="5.45065">
        <ele>1352.71</ele>
        <time>2022-06-07T08:11:56Z</time>
      </trkpt>
      <trkpt lat="44.74268" lon="5.45069">
        <ele>1354.15</ele>
        <time>2022-06-07T08:12:09Z</time>
      </trkpt>
      <trkpt lat="44.74272" lon="5.4507">
        <ele>1354.63</ele>
        <time>2022-06-07T08:12:13Z</time>
      </trkpt>
      <trkpt lat="44.74283" lon="5.45077">
        <ele>1356.08</ele>
        <time>2022-06-07T08:12:27Z</time>
      </trkpt>
      <trkpt lat="44.74294" lon="5.45084">
        <ele>1358.96</ele>
        <time>2022-06-07T08:12:42Z</time>
      </trkpt>
      <trkpt lat="44.74298" lon="5.45091">
        <ele>1361.36</ele>
        <time>2022-06-07T08:12:58Z</time>
      </trkpt>
      <trkpt lat="44.74305" lon="5.45098">
        <ele>1364.25</ele>
        <time>2022-06-07T08:13:15Z</time>
      </trkpt>
      <trkpt lat="44.74314" lon="5.45098">
        <ele>1365.21</ele>
        <time>2022-06-07T08:13:27Z</time>
      </trkpt>
      <trkpt lat="44.74326" lon="5.45101">
        <ele>1364.25</ele>
        <time>2022-06-07T08:13:41Z</time>
      </trkpt>
      <trkpt lat="44.7433" lon="5.45105">
        <ele>1365.21</ele>
        <time>2022-06-07T08:13:47Z</time>
      </trkpt>
      <trkpt lat="44.74331" lon="5.45105">
        <ele>1365.69</ele>
        <time>2022-06-07T08:13:48Z</time>
      </trkpt>
      <trkpt lat="44.74333" lon="5.45107">
        <ele>1366.17</ele>
        <time>2022-06-07T08:13:51Z</time>
      </trkpt>
      <trkpt lat="44.74343" lon="5.45115">
        <ele>1367.61</ele>
        <time>2022-06-07T08:14:05Z</time>
      </trkpt>
      <trkpt lat="44.74346" lon="5.45123">
        <ele>1370.02</ele>
        <time>2022-06-07T08:14:19Z</time>
      </trkpt>
      <trkpt lat="44.74352" lon="5.45131">
        <ele>1372.9</ele>
        <time>2022-06-07T08:14:34Z</time>
      </trkpt>
      <trkpt lat="44.74353" lon="5.45138">
        <ele>1376.26</ele>
        <time>2022-06-07T08:14:51Z</time>
      </trkpt>
      <trkpt lat="44.74351" lon="5.45146">
        <ele>1378.67</ele>
        <time>2022-06-07T08:15:08Z</time>
      </trkpt>
      <trkpt lat="44.74348" lon="5.45154">
        <ele>1381.07</ele>
        <time>2022-06-07T08:15:23Z</time>
      </trkpt>
      <trkpt lat="44.7435" lon="5.4516">
        <ele>1383.96</ele>
        <time>2022-06-07T08:15:39Z</time>
      </trkpt>
      <trkpt lat="44.74346" lon="5.45169">
        <ele>1387.32</ele>
        <time>2022-06-07T08:15:56Z</time>
      </trkpt>
      <trkpt lat="44.74338" lon="5.45172">
        <ele>1389.24</ele>
        <time>2022-06-07T08:16:11Z</time>
      </trkpt>
      <trkpt lat="44.74326" lon="5.45175">
        <ele>1392.13</ele>
        <time>2022-06-07T08:16:30Z</time>
      </trkpt>
      <trkpt lat="44.74324" lon="5.45176">
        <ele>1392.13</ele>
        <time>2022-06-07T08:16:51Z</time>
      </trkpt>
      <trkpt lat="44.74319" lon="5.45182">
        <ele>1395.49</ele>
        <time>2022-06-07T08:17:07Z</time>
      </trkpt>
      <trkpt lat="44.74318" lon="5.45182">
        <ele>1396.93</ele>
        <time>2022-06-07T08:17:30Z</time>
      </trkpt>
      <trkpt lat="44.74319" lon="5.45188">
        <ele>1397.41</ele>
        <time>2022-06-07T08:17:55Z</time>
      </trkpt>
      <trkpt lat="44.74315" lon="5.45194">
        <ele>1400.78</ele>
        <time>2022-06-07T08:18:09Z</time>
      </trkpt>
      <trkpt lat="44.7432" lon="5.45203">
        <ele>1403.66</ele>
        <time>2022-06-07T08:18:26Z</time>
      </trkpt>
      <trkpt lat="44.74327" lon="5.45211">
        <ele>1406.55</ele>
        <time>2022-06-07T08:18:40Z</time>
      </trkpt>
      <trkpt lat="44.74336" lon="5.4522">
        <ele>1409.43</ele>
        <time>2022-06-07T08:18:56Z</time>
      </trkpt>
      <trkpt lat="44.74339" lon="5.45229">
        <ele>1411.83</ele>
        <time>2022-06-07T08:19:11Z</time>
      </trkpt>
      <trkpt lat="44.74348" lon="5.45236">
        <ele>1413.76</ele>
        <time>2022-06-07T08:19:25Z</time>
      </trkpt>
      <trkpt lat="44.74355" lon="5.45243">
        <ele>1415.68</ele>
        <time>2022-06-07T08:19:39Z</time>
      </trkpt>
      <trkpt lat="44.74363" lon="5.4525">
        <ele>1418.08</ele>
        <time>2022-06-07T08:19:54Z</time>
      </trkpt>
      <trkpt lat="44.7437" lon="5.45256">
        <ele>1420.97</ele>
        <time>2022-06-07T08:20:12Z</time>
      </trkpt>
      <trkpt lat="44.74378" lon="5.45258">
        <ele>1423.37</ele>
        <time>2022-06-07T08:20:25Z</time>
      </trkpt>
      <trkpt lat="44.74385" lon="5.45262">
        <ele>1426.25</ele>
        <time>2022-06-07T08:20:41Z</time>
      </trkpt>
      <trkpt lat="44.74386" lon="5.4527">
        <ele>1428.66</ele>
        <time>2022-06-07T08:20:55Z</time>
      </trkpt>
      <trkpt lat="44.74386" lon="5.45277">
        <ele>1431.54</ele>
        <time>2022-06-07T08:21:10Z</time>
      </trkpt>
      <trkpt lat="44.74386" lon="5.45285">
        <ele>1434.42</ele>
        <time>2022-06-07T08:21:24Z</time>
      </trkpt>
      <trkpt lat="44.74381" lon="5.45297">
        <ele>1437.31</ele>
        <time>2022-06-07T08:21:41Z</time>
      </trkpt>
      <trkpt lat="44.74376" lon="5.45305">
        <ele>1439.23</ele>
        <time>2022-06-07T08:21:58Z</time>
      </trkpt>
      <trkpt lat="44.74371" lon="5.45312">
        <ele>1441.15</ele>
        <time>2022-06-07T08:22:13Z</time>
      </trkpt>
      <trkpt lat="44.74361" lon="5.45321">
        <ele>1444.52</ele>
        <time>2022-06-07T08:22:29Z</time>
      </trkpt>
      <trkpt lat="44.74349" lon="5.45327">
        <ele>1446.44</ele>
        <time>2022-06-07T08:22:46Z</time>
      </trkpt>
      <trkpt lat="44.74338" lon="5.45335">
        <ele>1449.81</ele>
        <time>2022-06-07T08:23:04Z</time>
      </trkpt>
      <trkpt lat="44.74333" lon="5.45337">
        <ele>1453.17</ele>
        <time>2022-06-07T08:23:17Z</time>
      </trkpt>
      <trkpt lat="44.74322" lon="5.45342">
        <ele>1456.05</ele>
        <time>2022-06-07T08:23:37Z</time>
      </trkpt>
      <trkpt lat="44.74313" lon="5.45346">
        <ele>1458.94</ele>
        <time>2022-06-07T08:23:56Z</time>
      </trkpt>
      <trkpt lat="44.74323" lon="5.45356">
        <ele>1460.86</ele>
        <time>2022-06-07T08:24:14Z</time>
      </trkpt>
      <trkpt lat="44.74325" lon="5.45362">
        <ele>1463.74</ele>
        <time>2022-06-07T08:24:26Z</time>
      </trkpt>
      <trkpt lat="44.74335" lon="5.45372">
        <ele>1465.19</ele>
        <time>2022-06-07T08:24:42Z</time>
      </trkpt>
      <trkpt lat="44.74338" lon="5.45378">
        <ele>1468.55</ele>
        <time>2022-06-07T08:24:53Z</time>
      </trkpt>
      <trkpt lat="44.74348" lon="5.45386">
        <ele>1470.95</ele>
        <time>2022-06-07T08:25:10Z</time>
      </trkpt>
      <trkpt lat="44.74352" lon="5.45394">
        <ele>1473.84</ele>
        <time>2022-06-07T08:25:26Z</time>
      </trkpt>
      <trkpt lat="44.74355" lon="5.45404">
        <ele>1476.24</ele>
        <time>2022-06-07T08:25:43Z</time>
      </trkpt>
      <trkpt lat="44.74351" lon="5.45414">
        <ele>1479.13</ele>
        <time>2022-06-07T08:26:00Z</time>
      </trkpt>
      <trkpt lat="44.7435" lon="5.45419">
        <ele>1482.49</ele>
        <time>2022-06-07T08:26:10Z</time>
      </trkpt>
      <trkpt lat="44.74355" lon="5.45424">
        <ele>1483.45</ele>
        <time>2022-06-07T08:26:27Z</time>
      </trkpt>
      <trkpt lat="44.74361" lon="5.45425">
        <ele>1486.34</ele>
        <time>2022-06-07T08:26:42Z</time>
      </trkpt>
      <trkpt lat="44.74358" lon="5.45436">
        <ele>1489.7</ele>
        <time>2022-06-07T08:26:58Z</time>
      </trkpt>
      <trkpt lat="44.74361" lon="5.45441">
        <ele>1492.1</ele>
        <time>2022-06-07T08:27:13Z</time>
      </trkpt>
      <trkpt lat="44.74366" lon="5.45448">
        <ele>1495.47</ele>
        <time>2022-06-07T08:27:32Z</time>
      </trkpt>
      <trkpt lat="44.74374" lon="5.45453">
        <ele>1499.31</ele>
        <time>2022-06-07T08:27:49Z</time>
      </trkpt>
      <trkpt lat="44.7438" lon="5.45458">
        <ele>1501.72</ele>
        <time>2022-06-07T08:28:07Z</time>
      </trkpt>
      <trkpt lat="44.74379" lon="5.45468">
        <ele>1504.12</ele>
        <time>2022-06-07T08:28:21Z</time>
      </trkpt>
      <trkpt lat="44.74376" lon="5.45478">
        <ele>1507</ele>
        <time>2022-06-07T08:28:38Z</time>
      </trkpt>
      <trkpt lat="44.74375" lon="5.45485">
        <ele>1509.89</ele>
        <time>2022-06-07T08:28:52Z</time>
      </trkpt>
      <trkpt lat="44.74375" lon="5.45492">
        <ele>1512.77</ele>
        <time>2022-06-07T08:29:07Z</time>
      </trkpt>
      <trkpt lat="44.74375" lon="5.45492">
        <ele>1515.66</ele>
        <time>2022-06-07T08:39:31Z</time>
      </trkpt>
      <trkpt lat="44.74379" lon="5.4549">
        <ele>1517.1</ele>
        <time>2022-06-07T08:39:48Z</time>
      </trkpt>
      <trkpt lat="44.74391" lon="5.4549">
        <ele>1519.02</ele>
        <time>2022-06-07T08:40:05Z</time>
      </trkpt>
      <trkpt lat="44.74401" lon="5.45496">
        <ele>1521.42</ele>
        <time>2022-06-07T08:40:22Z</time>
      </trkpt>
      <trkpt lat="44.74409" lon="5.45502">
        <ele>1524.31</ele>
        <time>2022-06-07T08:40:39Z</time>
      </trkpt>
      <trkpt lat="44.74415" lon="5.45511">
        <ele>1527.19</ele>
        <time>2022-06-07T08:40:53Z</time>
      </trkpt>
      <trkpt lat="44.74421" lon="5.45518">
        <ele>1527.67</ele>
        <time>2022-06-07T08:41:08Z</time>
      </trkpt>
      <trkpt lat="44.74424" lon="5.45521">
        <ele>1530.56</ele>
        <time>2022-06-07T08:41:20Z</time>
      </trkpt>
      <trkpt lat="44.74427" lon="5.45529">
        <ele>1533.44</ele>
        <time>2022-06-07T08:41:35Z</time>
      </trkpt>
      <trkpt lat="44.74431" lon="5.45535">
        <ele>1534.88</ele>
        <time>2022-06-07T08:41:50Z</time>
      </trkpt>
      <trkpt lat="44.74433" lon="5.45541">
        <ele>1537.29</ele>
        <time>2022-06-07T08:42:06Z</time>
      </trkpt>
      <trkpt lat="44.74435" lon="5.45545">
        <ele>1540.65</ele>
        <time>2022-06-07T08:42:16Z</time>
      </trkpt>
      <trkpt lat="44.74436" lon="5.45552">
        <ele>1543.05</ele>
        <time>2022-06-07T08:42:31Z</time>
      </trkpt>
      <trkpt lat="44.7444" lon="5.4556">
        <ele>1544.5</ele>
        <time>2022-06-07T08:42:48Z</time>
      </trkpt>
      <trkpt lat="44.74444" lon="5.45571">
        <ele>1547.38</ele>
        <time>2022-06-07T08:43:06Z</time>
      </trkpt>
      <trkpt lat="44.74448" lon="5.45579">
        <ele>1549.78</ele>
        <time>2022-06-07T08:43:24Z</time>
      </trkpt>
      <trkpt lat="44.74448" lon="5.45585">
        <ele>1552.67</ele>
        <time>2022-06-07T08:43:43Z</time>
      </trkpt>
      <trkpt lat="44.74437" lon="5.45585">
        <ele>1554.59</ele>
        <time>2022-06-07T08:44:01Z</time>
      </trkpt>
      <trkpt lat="44.74425" lon="5.45588">
        <ele>1556.51</ele>
        <time>2022-06-07T08:44:17Z</time>
      </trkpt>
      <trkpt lat="44.7442" lon="5.45595">
        <ele>1558.92</ele>
        <time>2022-06-07T08:44:33Z</time>
      </trkpt>
      <trkpt lat="44.74409" lon="5.45599">
        <ele>1561.8</ele>
        <time>2022-06-07T08:44:50Z</time>
      </trkpt>
      <trkpt lat="44.74403" lon="5.45605">
        <ele>1565.64</ele>
        <time>2022-06-07T08:45:05Z</time>
      </trkpt>
      <trkpt lat="44.74402" lon="5.4561">
        <ele>1567.09</ele>
        <time>2022-06-07T08:45:22Z</time>
      </trkpt>
      <trkpt lat="44.74408" lon="5.45615">
        <ele>1569.97</ele>
        <time>2022-06-07T08:45:40Z</time>
      </trkpt>
      <trkpt lat="44.74408" lon="5.45621">
        <ele>1572.37</ele>
        <time>2022-06-07T08:45:58Z</time>
      </trkpt>
      <trkpt lat="44.74412" lon="5.45631">
        <ele>1575.74</ele>
        <time>2022-06-07T08:46:14Z</time>
      </trkpt>
      <trkpt lat="44.74412" lon="5.45636">
        <ele>1578.14</ele>
        <time>2022-06-07T08:46:30Z</time>
      </trkpt>
      <trkpt lat="44.74409" lon="5.45647">
        <ele>1581.51</ele>
        <time>2022-06-07T08:46:46Z</time>
      </trkpt>
      <trkpt lat="44.74414" lon="5.4565">
        <ele>1584.39</ele>
        <time>2022-06-07T08:47:03Z</time>
      </trkpt>
      <trkpt lat="44.74415" lon="5.45655">
        <ele>1585.83</ele>
        <time>2022-06-07T08:47:16Z</time>
      </trkpt>
      <trkpt lat="44.74412" lon="5.45666">
        <ele>1588.24</ele>
        <time>2022-06-07T08:47:31Z</time>
      </trkpt>
      <trkpt lat="44.7441" lon="5.4567">
        <ele>1591.12</ele>
        <time>2022-06-07T08:47:42Z</time>
      </trkpt>
      <trkpt lat="44.7441" lon="5.45671">
        <ele>1592.08</ele>
        <time>2022-06-07T08:47:44Z</time>
      </trkpt>
      <trkpt lat="44.74417" lon="5.45675">
        <ele>1594</ele>
        <time>2022-06-07T08:47:59Z</time>
      </trkpt>
      <trkpt lat="44.74414" lon="5.4568">
        <ele>1595.93</ele>
        <time>2022-06-07T08:48:14Z</time>
      </trkpt>
      <trkpt lat="44.74411" lon="5.4569">
        <ele>1599.29</ele>
        <time>2022-06-07T08:48:31Z</time>
      </trkpt>
      <trkpt lat="44.74418" lon="5.45697">
        <ele>1601.69</ele>
        <time>2022-06-07T08:48:49Z</time>
      </trkpt>
      <trkpt lat="44.74417" lon="5.45707">
        <ele>1603.62</ele>
        <time>2022-06-07T08:49:07Z</time>
      </trkpt>
      <trkpt lat="44.74419" lon="5.45712">
        <ele>1606.98</ele>
        <time>2022-06-07T08:49:22Z</time>
      </trkpt>
      <trkpt lat="44.74426" lon="5.4572">
        <ele>1608.9</ele>
        <time>2022-06-07T08:49:36Z</time>
      </trkpt>
      <trkpt lat="44.74431" lon="5.45727">
        <ele>1611.31</ele>
        <time>2022-06-07T08:49:52Z</time>
      </trkpt>
      <trkpt lat="44.74428" lon="5.45732">
        <ele>1612.75</ele>
        <time>2022-06-07T08:50:08Z</time>
      </trkpt>
      <trkpt lat="44.74419" lon="5.45732">
        <ele>1615.63</ele>
        <time>2022-06-07T08:50:25Z</time>
      </trkpt>
      <trkpt lat="44.74414" lon="5.45734">
        <ele>1619</ele>
        <time>2022-06-07T08:50:36Z</time>
      </trkpt>
      <trkpt lat="44.74413" lon="5.45743">
        <ele>1619.48</ele>
        <time>2022-06-07T08:50:52Z</time>
      </trkpt>
      <trkpt lat="44.74409" lon="5.45745">
        <ele>1622.84</ele>
        <time>2022-06-07T08:51:04Z</time>
      </trkpt>
      <trkpt lat="44.7441" lon="5.45752">
        <ele>1625.25</ele>
        <time>2022-06-07T08:51:20Z</time>
      </trkpt>
      <trkpt lat="44.74414" lon="5.45758">
        <ele>1628.13</ele>
        <time>2022-06-07T08:51:38Z</time>
      </trkpt>
      <trkpt lat="44.74418" lon="5.45762">
        <ele>1631.49</ele>
        <time>2022-06-07T08:51:48Z</time>
      </trkpt>
      <trkpt lat="44.74423" lon="5.45772">
        <ele>1633.42</ele>
        <time>2022-06-07T08:52:04Z</time>
      </trkpt>
      <trkpt lat="44.74429" lon="5.45779">
        <ele>1635.82</ele>
        <time>2022-06-07T08:52:17Z</time>
      </trkpt>
      <trkpt lat="44.74433" lon="5.45788">
        <ele>1638.7</ele>
        <time>2022-06-07T08:52:34Z</time>
      </trkpt>
      <trkpt lat="44.74435" lon="5.45796">
        <ele>1642.07</ele>
        <time>2022-06-07T08:52:54Z</time>
      </trkpt>
      <trkpt lat="44.74441" lon="5.45804">
        <ele>1643.99</ele>
        <time>2022-06-07T08:53:09Z</time>
      </trkpt>
      <trkpt lat="44.74446" lon="5.45811">
        <ele>1647.36</ele>
        <time>2022-06-07T08:53:25Z</time>
      </trkpt>
      <trkpt lat="44.74452" lon="5.45818">
        <ele>1650.24</ele>
        <time>2022-06-07T08:53:43Z</time>
      </trkpt>
      <trkpt lat="44.74453" lon="5.45823">
        <ele>1651.68</ele>
        <time>2022-06-07T08:53:57Z</time>
      </trkpt>
      <trkpt lat="44.74443" lon="5.45821">
        <ele>1652.64</ele>
        <time>2022-06-07T08:54:13Z</time>
      </trkpt>
      <trkpt lat="44.74435" lon="5.45821">
        <ele>1654.57</ele>
        <time>2022-06-07T08:54:28Z</time>
      </trkpt>
      <trkpt lat="44.7443" lon="5.45822">
        <ele>1655.53</ele>
        <time>2022-06-07T08:54:44Z</time>
      </trkpt>
      <trkpt lat="44.74424" lon="5.45826">
        <ele>1658.41</ele>
        <time>2022-06-07T08:54:58Z</time>
      </trkpt>
      <trkpt lat="44.74413" lon="5.45826">
        <ele>1661.3</ele>
        <time>2022-06-07T08:55:15Z</time>
      </trkpt>
      <trkpt lat="44.74413" lon="5.45834">
        <ele>1663.7</ele>
        <time>2022-06-07T08:55:30Z</time>
      </trkpt>
      <trkpt lat="44.74419" lon="5.45841">
        <ele>1666.58</ele>
        <time>2022-06-07T08:55:47Z</time>
      </trkpt>
      <trkpt lat="44.74424" lon="5.45848">
        <ele>1669.47</ele>
        <time>2022-06-07T08:56:04Z</time>
      </trkpt>
      <trkpt lat="44.74429" lon="5.45857">
        <ele>1672.83</ele>
        <time>2022-06-07T08:56:21Z</time>
      </trkpt>
      <trkpt lat="44.74435" lon="5.45866">
        <ele>1675.23</ele>
        <time>2022-06-07T08:56:36Z</time>
      </trkpt>
      <trkpt lat="44.74441" lon="5.45872">
        <ele>1678.6</ele>
        <time>2022-06-07T08:56:51Z</time>
      </trkpt>
      <trkpt lat="44.74445" lon="5.45881">
        <ele>1681</ele>
        <time>2022-06-07T08:57:06Z</time>
      </trkpt>
      <trkpt lat="44.74447" lon="5.4589">
        <ele>1683.89</ele>
        <time>2022-06-07T08:57:22Z</time>
      </trkpt>
      <trkpt lat="44.74444" lon="5.45895">
        <ele>1686.29</ele>
        <time>2022-06-07T08:57:39Z</time>
      </trkpt>
      <trkpt lat="44.74446" lon="5.45902">
        <ele>1689.17</ele>
        <time>2022-06-07T08:57:53Z</time>
      </trkpt>
      <trkpt lat="44.74452" lon="5.45909">
        <ele>1691.58</ele>
        <time>2022-06-07T08:58:10Z</time>
      </trkpt>
      <trkpt lat="44.7445" lon="5.45914">
        <ele>1694.94</ele>
        <time>2022-06-07T08:58:27Z</time>
      </trkpt>
      <trkpt lat="44.7444" lon="5.45918">
        <ele>1697.83</ele>
        <time>2022-06-07T08:58:46Z</time>
      </trkpt>
      <trkpt lat="44.74434" lon="5.45923">
        <ele>1699.75</ele>
        <time>2022-06-07T08:59:00Z</time>
      </trkpt>
      <trkpt lat="44.74425" lon="5.45924">
        <ele>1702.63</ele>
        <time>2022-06-07T08:59:17Z</time>
      </trkpt>
      <trkpt lat="44.74422" lon="5.45928">
        <ele>1705.04</ele>
        <time>2022-06-07T08:59:32Z</time>
      </trkpt>
      <trkpt lat="44.74413" lon="5.45926">
        <ele>1707.92</ele>
        <time>2022-06-07T08:59:48Z</time>
      </trkpt>
      <trkpt lat="44.74405" lon="5.45928">
        <ele>1710.32</ele>
        <time>2022-06-07T09:00:03Z</time>
      </trkpt>
      <trkpt lat="44.74397" lon="5.45929">
        <ele>1713.21</ele>
        <time>2022-06-07T09:00:20Z</time>
      </trkpt>
      <trkpt lat="44.74389" lon="5.45934">
        <ele>1715.61</ele>
        <time>2022-06-07T09:00:34Z</time>
      </trkpt>
      <trkpt lat="44.74383" lon="5.45938">
        <ele>1717.53</ele>
        <time>2022-06-07T09:00:47Z</time>
      </trkpt>
      <trkpt lat="44.74376" lon="5.45934">
        <ele>1719.46</ele>
        <time>2022-06-07T09:01:02Z</time>
      </trkpt>
      <trkpt lat="44.74375" lon="5.45935">
        <ele>1719.94</ele>
        <time>2022-06-07T09:01:26Z</time>
      </trkpt>
      <trkpt lat="44.74369" lon="5.45938">
        <ele>1722.34</ele>
        <time>2022-06-07T09:01:42Z</time>
      </trkpt>
      <trkpt lat="44.74361" lon="5.4594">
        <ele>1724.74</ele>
        <time>2022-06-07T09:02:00Z</time>
      </trkpt>
      <trkpt lat="44.74355" lon="5.45944">
        <ele>1727.63</ele>
        <time>2022-06-07T09:02:14Z</time>
      </trkpt>
      <trkpt lat="44.74358" lon="5.45951">
        <ele>1730.51</ele>
        <time>2022-06-07T09:02:28Z</time>
      </trkpt>
      <trkpt lat="44.7435" lon="5.45955">
        <ele>1732.91</ele>
        <time>2022-06-07T09:02:43Z</time>
      </trkpt>
      <trkpt lat="44.74347" lon="5.45959">
        <ele>1734.84</ele>
        <time>2022-06-07T09:03:00Z</time>
      </trkpt>
      <trkpt lat="44.74355" lon="5.45966">
        <ele>1737.72</ele>
        <time>2022-06-07T09:03:17Z</time>
      </trkpt>
      <trkpt lat="44.74358" lon="5.45973">
        <ele>1739.16</ele>
        <time>2022-06-07T09:03:31Z</time>
      </trkpt>
      <trkpt lat="44.74348" lon="5.45976">
        <ele>1741.57</ele>
        <time>2022-06-07T09:03:49Z</time>
      </trkpt>
      <trkpt lat="44.7434" lon="5.4598">
        <ele>1743.97</ele>
        <time>2022-06-07T09:04:03Z</time>
      </trkpt>
      <trkpt lat="44.74331" lon="5.45982">
        <ele>1747.33</ele>
        <time>2022-06-07T09:04:19Z</time>
      </trkpt>
      <trkpt lat="44.74323" lon="5.45988">
        <ele>1749.74</ele>
        <time>2022-06-07T09:04:34Z</time>
      </trkpt>
      <trkpt lat="44.74321" lon="5.45991">
        <ele>1751.66</ele>
        <time>2022-06-07T09:04:49Z</time>
      </trkpt>
      <trkpt lat="44.74316" lon="5.45993">
        <ele>1754.06</ele>
        <time>2022-06-07T09:05:06Z</time>
      </trkpt>
      <trkpt lat="44.74311" lon="5.45999">
        <ele>1757.43</ele>
        <time>2022-06-07T09:05:23Z</time>
      </trkpt>
      <trkpt lat="44.74305" lon="5.46003">
        <ele>1760.31</ele>
        <time>2022-06-07T09:05:38Z</time>
      </trkpt>
      <trkpt lat="44.74295" lon="5.4601">
        <ele>1763.2</ele>
        <time>2022-06-07T09:05:57Z</time>
      </trkpt>
      <trkpt lat="44.7429" lon="5.46015">
        <ele>1766.08</ele>
        <time>2022-06-07T09:06:11Z</time>
      </trkpt>
      <trkpt lat="44.74283" lon="5.46018">
        <ele>1769.44</ele>
        <time>2022-06-07T09:06:28Z</time>
      </trkpt>
      <trkpt lat="44.74285" lon="5.46022">
        <ele>1771.37</ele>
        <time>2022-06-07T09:06:43Z</time>
      </trkpt>
      <trkpt lat="44.74289" lon="5.46026">
        <ele>1772.33</ele>
        <time>2022-06-07T09:06:59Z</time>
      </trkpt>
      <trkpt lat="44.74291" lon="5.4603">
        <ele>1773.29</ele>
        <time>2022-06-07T09:07:21Z</time>
      </trkpt>
      <trkpt lat="44.74284" lon="5.46033">
        <ele>1775.69</ele>
        <time>2022-06-07T09:07:35Z</time>
      </trkpt>
      <trkpt lat="44.74276" lon="5.46038">
        <ele>1778.58</ele>
        <time>2022-06-07T09:07:52Z</time>
      </trkpt>
      <trkpt lat="44.74268" lon="5.46044">
        <ele>1781.46</ele>
        <time>2022-06-07T09:08:07Z</time>
      </trkpt>
      <trkpt lat="44.74264" lon="5.46048">
        <ele>1783.86</ele>
        <time>2022-06-07T09:08:22Z</time>
      </trkpt>
      <trkpt lat="44.74259" lon="5.46054">
        <ele>1786.75</ele>
        <time>2022-06-07T09:08:37Z</time>
      </trkpt>
      <trkpt lat="44.74252" lon="5.46059">
        <ele>1788.67</ele>
        <time>2022-06-07T09:08:50Z</time>
      </trkpt>
      <trkpt lat="44.74247" lon="5.46063">
        <ele>1792.03</ele>
        <time>2022-06-07T09:09:04Z</time>
      </trkpt>
      <trkpt lat="44.74235" lon="5.46066">
        <ele>1793.48</ele>
        <time>2022-06-07T09:09:20Z</time>
      </trkpt>
      <trkpt lat="44.74234" lon="5.4607">
        <ele>1796.36</ele>
        <time>2022-06-07T09:09:35Z</time>
      </trkpt>
      <trkpt lat="44.74239" lon="5.46078">
        <ele>1799.24</ele>
        <time>2022-06-07T09:09:52Z</time>
      </trkpt>
      <trkpt lat="44.74246" lon="5.46086">
        <ele>1802.13</ele>
        <time>2022-06-07T09:10:08Z</time>
      </trkpt>
      <trkpt lat="44.74259" lon="5.46092">
        <ele>1805.01</ele>
        <time>2022-06-07T09:10:25Z</time>
      </trkpt>
      <trkpt lat="44.74257" lon="5.46097">
        <ele>1806.94</ele>
        <time>2022-06-07T09:10:41Z</time>
      </trkpt>
      <trkpt lat="44.7425" lon="5.46099">
        <ele>1808.38</ele>
        <time>2022-06-07T09:10:56Z</time>
      </trkpt>
      <trkpt lat="44.7424" lon="5.46101">
        <ele>1810.78</ele>
        <time>2022-06-07T09:11:12Z</time>
      </trkpt>
      <trkpt lat="44.74227" lon="5.461">
        <ele>1812.7</ele>
        <time>2022-06-07T09:11:28Z</time>
      </trkpt>
      <trkpt lat="44.74216" lon="5.46104">
        <ele>1815.11</ele>
        <time>2022-06-07T09:11:43Z</time>
      </trkpt>
      <trkpt lat="44.74215" lon="5.46104">
        <ele>1815.59</ele>
        <time>2022-06-07T09:11:45Z</time>
      </trkpt>
      <trkpt lat="44.74203" lon="5.46111">
        <ele>1817.99</ele>
        <time>2022-06-07T09:12:01Z</time>
      </trkpt>
      <trkpt lat="44.74197" lon="5.46113">
        <ele>1819.91</ele>
        <time>2022-06-07T09:12:10Z</time>
      </trkpt>
      <trkpt lat="44.74186" lon="5.46114">
        <ele>1821.35</ele>
        <time>2022-06-07T09:12:27Z</time>
      </trkpt>
      <trkpt lat="44.74173" lon="5.4612">
        <ele>1823.76</ele>
        <time>2022-06-07T09:12:41Z</time>
      </trkpt>
      <trkpt lat="44.74163" lon="5.46126">
        <ele>1826.16</ele>
        <time>2022-06-07T09:12:57Z</time>
      </trkpt>
      <trkpt lat="44.74159" lon="5.46131">
        <ele>1828.56</ele>
        <time>2022-06-07T09:13:12Z</time>
      </trkpt>
      <trkpt lat="44.74166" lon="5.4614">
        <ele>1831.45</ele>
        <time>2022-06-07T09:13:26Z</time>
      </trkpt>
      <trkpt lat="44.74175" lon="5.46148">
        <ele>1832.89</ele>
        <time>2022-06-07T09:13:42Z</time>
      </trkpt>
      <trkpt lat="44.74187" lon="5.46155">
        <ele>1834.33</ele>
        <time>2022-06-07T09:13:57Z</time>
      </trkpt>
      <trkpt lat="44.74194" lon="5.46163">
        <ele>1837.22</ele>
        <time>2022-06-07T09:14:12Z</time>
      </trkpt>
      <trkpt lat="44.74198" lon="5.46171">
        <ele>1838.66</ele>
        <time>2022-06-07T09:14:27Z</time>
      </trkpt>
      <trkpt lat="44.74196" lon="5.46189">
        <ele>1841.54</ele>
        <time>2022-06-07T09:14:46Z</time>
      </trkpt>
      <trkpt lat="44.74198" lon="5.46198">
        <ele>1844.91</ele>
        <time>2022-06-07T09:15:00Z</time>
      </trkpt>
      <trkpt lat="44.74199" lon="5.46208">
        <ele>1844.91</ele>
        <time>2022-06-07T09:15:16Z</time>
      </trkpt>
      <trkpt lat="44.742" lon="5.46213">
        <ele>1848.27</ele>
        <time>2022-06-07T09:25:33Z</time>
      </trkpt>
      <trkpt lat="44.74207" lon="5.46221">
        <ele>1849.71</ele>
        <time>2022-06-07T09:25:45Z</time>
      </trkpt>
      <trkpt lat="44.74218" lon="5.46229">
        <ele>1850.19</ele>
        <time>2022-06-07T09:26:01Z</time>
      </trkpt>
      <trkpt lat="44.74228" lon="5.46245">
        <ele>1851.64</ele>
        <time>2022-06-07T09:26:18Z</time>
      </trkpt>
      <trkpt lat="44.74237" lon="5.46261">
        <ele>1852.6</ele>
        <time>2022-06-07T09:26:32Z</time>
      </trkpt>
      <trkpt lat="44.74241" lon="5.46278">
        <ele>1855</ele>
        <time>2022-06-07T09:26:46Z</time>
      </trkpt>
      <trkpt lat="44.7424" lon="5.46297">
        <ele>1856.92</ele>
        <time>2022-06-07T09:27:01Z</time>
      </trkpt>
      <trkpt lat="44.7424" lon="5.46312">
        <ele>1859.81</ele>
        <time>2022-06-07T09:27:15Z</time>
      </trkpt>
      <trkpt lat="44.74241" lon="5.46327">
        <ele>1861.73</ele>
        <time>2022-06-07T09:27:28Z</time>
      </trkpt>
      <trkpt lat="44.74242" lon="5.46346">
        <ele>1863.17</ele>
        <time>2022-06-07T09:27:43Z</time>
      </trkpt>
      <trkpt lat="44.74238" lon="5.46363">
        <ele>1863.17</ele>
        <time>2022-06-07T09:27:56Z</time>
      </trkpt>
      <trkpt lat="44.74229" lon="5.46378">
        <ele>1864.13</ele>
        <time>2022-06-07T09:28:11Z</time>
      </trkpt>
      <trkpt lat="44.74219" lon="5.4639">
        <ele>1864.61</ele>
        <time>2022-06-07T09:28:25Z</time>
      </trkpt>
      <trkpt lat="44.74211" lon="5.46402">
        <ele>1864.61</ele>
        <time>2022-06-07T09:28:39Z</time>
      </trkpt>
      <trkpt lat="44.74203" lon="5.46405">
        <ele>1866.06</ele>
        <time>2022-06-07T09:28:53Z</time>
      </trkpt>
      <trkpt lat="44.74195" lon="5.46405">
        <ele>1866.06</ele>
        <time>2022-06-07T09:29:06Z</time>
      </trkpt>
      <trkpt lat="44.7419" lon="5.46409">
        <ele>1867.98</ele>
        <time>2022-06-07T09:29:23Z</time>
      </trkpt>
      <trkpt lat="44.74183" lon="5.46409">
        <ele>1868.46</ele>
        <time>2022-06-07T09:29:30Z</time>
      </trkpt>
      <trkpt lat="44.74175" lon="5.46416">
        <ele>1871.34</ele>
        <time>2022-06-07T09:29:45Z</time>
      </trkpt>
      <trkpt lat="44.74164" lon="5.46419">
        <ele>1874.71</ele>
        <time>2022-06-07T09:30:02Z</time>
      </trkpt>
      <trkpt lat="44.74159" lon="5.46423">
        <ele>1876.15</ele>
        <time>2022-06-07T09:30:16Z</time>
      </trkpt>
      <trkpt lat="44.74163" lon="5.46431">
        <ele>1878.55</ele>
        <time>2022-06-07T09:30:30Z</time>
      </trkpt>
      <trkpt lat="44.74172" lon="5.46444">
        <ele>1880.96</ele>
        <time>2022-06-07T09:30:48Z</time>
      </trkpt>
      <trkpt lat="44.74176" lon="5.46454">
        <ele>1884.32</ele>
        <time>2022-06-07T09:31:02Z</time>
      </trkpt>
      <trkpt lat="44.74182" lon="5.46467">
        <ele>1886.72</ele>
        <time>2022-06-07T09:31:19Z</time>
      </trkpt>
      <trkpt lat="44.74185" lon="5.46474">
        <ele>1888.65</ele>
        <time>2022-06-07T09:31:34Z</time>
      </trkpt>
      <trkpt lat="44.74193" lon="5.46486">
        <ele>1890.57</ele>
        <time>2022-06-07T09:31:49Z</time>
      </trkpt>
      <trkpt lat="44.74196" lon="5.46491">
        <ele>1892.01</ele>
        <time>2022-06-07T09:31:55Z</time>
      </trkpt>
      <trkpt lat="44.74199" lon="5.46494">
        <ele>1892.49</ele>
        <time>2022-06-07T09:32:00Z</time>
      </trkpt>
      <trkpt lat="44.74208" lon="5.46505">
        <ele>1894.42</ele>
        <time>2022-06-07T09:32:15Z</time>
      </trkpt>
      <trkpt lat="44.74213" lon="5.46521">
        <ele>1896.82</ele>
        <time>2022-06-07T09:32:30Z</time>
      </trkpt>
      <trkpt lat="44.74214" lon="5.46523">
        <ele>1897.78</ele>
        <time>2022-06-07T09:32:33Z</time>
      </trkpt>
      <trkpt lat="44.7422" lon="5.46537">
        <ele>1899.7</ele>
        <time>2022-06-07T09:32:46Z</time>
      </trkpt>
      <trkpt lat="44.74226" lon="5.46549">
        <ele>1902.11</ele>
        <time>2022-06-07T09:33:00Z</time>
      </trkpt>
      <trkpt lat="44.74224" lon="5.46552">
        <ele>1901.14</ele>
        <time>2022-06-07T09:33:14Z</time>
      </trkpt>
      <trkpt lat="44.74221" lon="5.46551">
        <ele>1901.14</ele>
        <time>2022-06-07T09:33:54Z</time>
      </trkpt>
      <trkpt lat="44.74221" lon="5.46553">
        <ele>1902.59</ele>
        <time>2022-06-07T09:33:57Z</time>
      </trkpt>
      <trkpt lat="44.74222" lon="5.46555">
        <ele>1903.07</ele>
        <time>2022-06-07T09:34:17Z</time>
      </trkpt>
      <trkpt lat="44.74223" lon="5.46556">
        <ele>1903.55</ele>
        <time>2022-06-07T09:34:38Z</time>
      </trkpt>
      <trkpt lat="44.74223" lon="5.46557">
        <ele>1903.55</ele>
        <time>2022-06-07T09:34:50Z</time>
      </trkpt>
      <trkpt lat="44.74221" lon="5.46559">
        <ele>1902.59</ele>
        <time>2022-06-07T09:35:03Z</time>
      </trkpt>
      <trkpt lat="44.74219" lon="5.46558">
        <ele>1903.07</ele>
        <time>2022-06-07T09:35:18Z</time>
      </trkpt>
      <trkpt lat="44.74208" lon="5.46566">
        <ele>1906.43</ele>
        <time>2022-06-07T09:35:32Z</time>
      </trkpt>
      <trkpt lat="44.742" lon="5.46578">
        <ele>1908.83</ele>
        <time>2022-06-07T09:35:47Z</time>
      </trkpt>
      <trkpt lat="44.74194" lon="5.46579">
        <ele>1910.28</ele>
        <time>2022-06-07T09:36:02Z</time>
      </trkpt>
      <trkpt lat="44.7419" lon="5.46581">
        <ele>1911.24</ele>
        <time>2022-06-07T09:36:19Z</time>
      </trkpt>
      <trkpt lat="44.7418" lon="5.46588">
        <ele>1913.16</ele>
        <time>2022-06-07T09:36:36Z</time>
      </trkpt>
      <trkpt lat="44.74175" lon="5.46582">
        <ele>1913.16</ele>
        <time>2022-06-07T09:36:50Z</time>
      </trkpt>
      <trkpt lat="44.74175" lon="5.46582">
        <ele>1913.16</ele>
        <time>2022-06-07T09:36:51Z</time>
      </trkpt>
      <trkpt lat="44.74168" lon="5.46578">
        <ele>1912.68</ele>
        <time>2022-06-07T09:37:06Z</time>
      </trkpt>
      <trkpt lat="44.74165" lon="5.46577">
        <ele>1912.68</ele>
        <time>2022-06-07T09:37:21Z</time>
      </trkpt>
      <trkpt lat="44.74165" lon="5.46577">
        <ele>1912.68</ele>
        <time>2022-06-07T09:37:41Z</time>
      </trkpt>
      <trkpt lat="44.74158" lon="5.46574">
        <ele>1914.12</ele>
        <time>2022-06-07T09:38:04Z</time>
      </trkpt>
      <trkpt lat="44.74149" lon="5.46578">
        <ele>1917.01</ele>
        <time>2022-06-07T09:38:20Z</time>
      </trkpt>
      <trkpt lat="44.74142" lon="5.46586">
        <ele>1919.89</ele>
        <time>2022-06-07T09:38:35Z</time>
      </trkpt>
      <trkpt lat="44.74137" lon="5.46588">
        <ele>1921.81</ele>
        <time>2022-06-07T09:38:46Z</time>
      </trkpt>
      <trkpt lat="44.74132" lon="5.46595">
        <ele>1923.74</ele>
        <time>2022-06-07T09:38:59Z</time>
      </trkpt>
      <trkpt lat="44.74125" lon="5.46604">
        <ele>1927.1</ele>
        <time>2022-06-07T09:39:14Z</time>
      </trkpt>
      <trkpt lat="44.7412" lon="5.46615">
        <ele>1929.98</ele>
        <time>2022-06-07T09:39:32Z</time>
      </trkpt>
      <trkpt lat="44.74109" lon="5.46616">
        <ele>1932.39</ele>
        <time>2022-06-07T09:39:49Z</time>
      </trkpt>
      <trkpt lat="44.741" lon="5.46615">
        <ele>1932.87</ele>
        <time>2022-06-07T09:40:02Z</time>
      </trkpt>
      <trkpt lat="44.7409" lon="5.46619">
        <ele>1934.31</ele>
        <time>2022-06-07T09:40:17Z</time>
      </trkpt>
      <trkpt lat="44.74083" lon="5.46623">
        <ele>1935.27</ele>
        <time>2022-06-07T09:40:34Z</time>
      </trkpt>
      <trkpt lat="44.74075" lon="5.46628">
        <ele>1937.19</ele>
        <time>2022-06-07T09:40:48Z</time>
      </trkpt>
      <trkpt lat="44.74064" lon="5.46638">
        <ele>1939.6</ele>
        <time>2022-06-07T09:41:06Z</time>
      </trkpt>
      <trkpt lat="44.74057" lon="5.46647">
        <ele>1941.04</ele>
        <time>2022-06-07T09:41:20Z</time>
      </trkpt>
      <trkpt lat="44.74054" lon="5.4665">
        <ele>1942</ele>
        <time>2022-06-07T09:41:25Z</time>
      </trkpt>
      <trkpt lat="44.74046" lon="5.46656">
        <ele>1942.96</ele>
        <time>2022-06-07T09:41:36Z</time>
      </trkpt>
      <trkpt lat="44.74035" lon="5.46669">
        <ele>1944.88</ele>
        <time>2022-06-07T09:41:53Z</time>
      </trkpt>
      <trkpt lat="44.74026" lon="5.46674">
        <ele>1945.85</ele>
        <time>2022-06-07T09:42:07Z</time>
      </trkpt>
      <trkpt lat="44.74018" lon="5.46683">
        <ele>1946.81</ele>
        <time>2022-06-07T09:42:21Z</time>
      </trkpt>
      <trkpt lat="44.74014" lon="5.46692">
        <ele>1949.21</ele>
        <time>2022-06-07T09:42:36Z</time>
      </trkpt>
      <trkpt lat="44.74008" lon="5.46704">
        <ele>1951.61</ele>
        <time>2022-06-07T09:42:52Z</time>
      </trkpt>
      <trkpt lat="44.74" lon="5.46718">
        <ele>1954.5</ele>
        <time>2022-06-07T09:43:09Z</time>
      </trkpt>
      <trkpt lat="44.73994" lon="5.46728">
        <ele>1956.42</ele>
        <time>2022-06-07T09:43:25Z</time>
      </trkpt>
      <trkpt lat="44.7399" lon="5.46737">
        <ele>1957.86</ele>
        <time>2022-06-07T09:43:46Z</time>
      </trkpt>
      <trkpt lat="44.73986" lon="5.46749">
        <ele>1960.27</ele>
        <time>2022-06-07T09:44:02Z</time>
      </trkpt>
      <trkpt lat="44.73985" lon="5.46753">
        <ele>1961.23</ele>
        <time>2022-06-07T09:44:06Z</time>
      </trkpt>
      <trkpt lat="44.73981" lon="5.46768">
        <ele>1963.63</ele>
        <time>2022-06-07T09:44:23Z</time>
      </trkpt>
      <trkpt lat="44.73976" lon="5.46776">
        <ele>1965.55</ele>
        <time>2022-06-07T09:44:36Z</time>
      </trkpt>
      <trkpt lat="44.73964" lon="5.46777">
        <ele>1967.48</ele>
        <time>2022-06-07T09:44:51Z</time>
      </trkpt>
      <trkpt lat="44.73958" lon="5.46785">
        <ele>1969.4</ele>
        <time>2022-06-07T09:45:06Z</time>
      </trkpt>
      <trkpt lat="44.73955" lon="5.46797">
        <ele>1971.32</ele>
        <time>2022-06-07T09:45:18Z</time>
      </trkpt>
      <trkpt lat="44.73948" lon="5.46809">
        <ele>1973.72</ele>
        <time>2022-06-07T09:45:34Z</time>
      </trkpt>
      <trkpt lat="44.7394" lon="5.46816">
        <ele>1976.61</ele>
        <time>2022-06-07T09:45:51Z</time>
      </trkpt>
      <trkpt lat="44.73931" lon="5.46824">
        <ele>1978.53</ele>
        <time>2022-06-07T09:46:06Z</time>
      </trkpt>
      <trkpt lat="44.73924" lon="5.46831">
        <ele>1981.41</ele>
        <time>2022-06-07T09:46:22Z</time>
      </trkpt>
      <trkpt lat="44.73918" lon="5.46837">
        <ele>1984.78</ele>
        <time>2022-06-07T09:46:38Z</time>
      </trkpt>
      <trkpt lat="44.7391" lon="5.46843">
        <ele>1986.22</ele>
        <time>2022-06-07T09:46:53Z</time>
      </trkpt>
      <trkpt lat="44.73908" lon="5.46843">
        <ele>1986.22</ele>
        <time>2022-06-07T09:46:55Z</time>
      </trkpt>
      <trkpt lat="44.73901" lon="5.46845">
        <ele>1988.62</ele>
        <time>2022-06-07T09:47:08Z</time>
      </trkpt>
      <trkpt lat="44.73897" lon="5.46854">
        <ele>1990.55</ele>
        <time>2022-06-07T09:47:23Z</time>
      </trkpt>
      <trkpt lat="44.73888" lon="5.46869">
        <ele>1993.43</ele>
        <time>2022-06-07T09:47:41Z</time>
      </trkpt>
      <trkpt lat="44.73881" lon="5.46881">
        <ele>1995.35</ele>
        <time>2022-06-07T09:47:56Z</time>
      </trkpt>
      <trkpt lat="44.73874" lon="5.46887">
        <ele>1997.28</ele>
        <time>2022-06-07T09:48:08Z</time>
      </trkpt>
      <trkpt lat="44.73861" lon="5.46888">
        <ele>1999.2</ele>
        <time>2022-06-07T09:48:24Z</time>
      </trkpt>
      <trkpt lat="44.73851" lon="5.46891">
        <ele>2002.08</ele>
        <time>2022-06-07T09:48:41Z</time>
      </trkpt>
      <trkpt lat="44.73845" lon="5.46896">
        <ele>2004.97</ele>
        <time>2022-06-07T09:48:57Z</time>
      </trkpt>
      <trkpt lat="44.73838" lon="5.46903">
        <ele>2007.37</ele>
        <time>2022-06-07T09:49:12Z</time>
      </trkpt>
      <trkpt lat="44.7383" lon="5.46914">
        <ele>2009.77</ele>
        <time>2022-06-07T09:49:30Z</time>
      </trkpt>
      <trkpt lat="44.73823" lon="5.46921">
        <ele>2011.7</ele>
        <time>2022-06-07T09:49:44Z</time>
      </trkpt>
      <trkpt lat="44.73818" lon="5.46922">
        <ele>2012.66</ele>
        <time>2022-06-07T09:49:51Z</time>
      </trkpt>
      <trkpt lat="44.73807" lon="5.46923">
        <ele>2015.06</ele>
        <time>2022-06-07T09:50:08Z</time>
      </trkpt>
      <trkpt lat="44.73795" lon="5.46923">
        <ele>2017.94</ele>
        <time>2022-06-07T09:50:24Z</time>
      </trkpt>
      <trkpt lat="44.73785" lon="5.46927">
        <ele>2020.83</ele>
        <time>2022-06-07T09:50:39Z</time>
      </trkpt>
      <trkpt lat="44.7378" lon="5.46934">
        <ele>2021.79</ele>
        <time>2022-06-07T09:50:50Z</time>
      </trkpt>
      <trkpt lat="44.7377" lon="5.46947">
        <ele>2024.67</ele>
        <time>2022-06-07T09:51:08Z</time>
      </trkpt>
      <trkpt lat="44.73762" lon="5.46956">
        <ele>2026.12</ele>
        <time>2022-06-07T09:51:23Z</time>
      </trkpt>
      <trkpt lat="44.73752" lon="5.46962">
        <ele>2028.52</ele>
        <time>2022-06-07T09:51:38Z</time>
      </trkpt>
      <trkpt lat="44.7375" lon="5.46966">
        <ele>2029.48</ele>
        <time>2022-06-07T09:51:43Z</time>
      </trkpt>
      <trkpt lat="44.73744" lon="5.46982">
        <ele>2031.4</ele>
        <time>2022-06-07T09:52:00Z</time>
      </trkpt>
      <trkpt lat="44.73737" lon="5.46996">
        <ele>2033.81</ele>
        <time>2022-06-07T09:52:15Z</time>
      </trkpt>
      <trkpt lat="44.73732" lon="5.47005">
        <ele>2034.77</ele>
        <time>2022-06-07T09:52:28Z</time>
      </trkpt>
      <trkpt lat="44.73724" lon="5.47015">
        <ele>2036.21</ele>
        <time>2022-06-07T09:52:42Z</time>
      </trkpt>
      <trkpt lat="44.7372" lon="5.47023">
        <ele>2036.21</ele>
        <time>2022-06-07T09:52:59Z</time>
      </trkpt>
      <trkpt lat="44.73716" lon="5.47026">
        <ele>2036.21</ele>
        <time>2022-06-07T09:53:13Z</time>
      </trkpt>
      <trkpt lat="44.73715" lon="5.47024">
        <ele>2036.21</ele>
        <time>2022-06-07T09:53:42Z</time>
      </trkpt>
      <trkpt lat="44.73702" lon="5.47008">
        <ele>2034.77</ele>
        <time>2022-06-07T09:55:42Z</time>
      </trkpt>
      <trkpt lat="44.73691" lon="5.47">
        <ele>2033.33</ele>
        <time>2022-06-07T09:55:52Z</time>
      </trkpt>
      <trkpt lat="44.73683" lon="5.46997">
        <ele>2032.36</ele>
        <time>2022-06-07T09:55:59Z</time>
      </trkpt>
      <trkpt lat="44.73667" lon="5.46991">
        <ele>2030.44</ele>
        <time>2022-06-07T09:56:17Z</time>
      </trkpt>
      <trkpt lat="44.73664" lon="5.4699">
        <ele>2029.48</ele>
        <time>2022-06-07T09:56:29Z</time>
      </trkpt>
      <trkpt lat="44.73656" lon="5.4701">
        <ele>2029</ele>
        <time>2022-06-07T09:56:44Z</time>
      </trkpt>
      <trkpt lat="44.73652" lon="5.47016">
        <ele>2029</ele>
        <time>2022-06-07T09:56:49Z</time>
      </trkpt>
      <trkpt lat="44.73648" lon="5.4702">
        <ele>2028.04</ele>
        <time>2022-06-07T09:56:53Z</time>
      </trkpt>
      <trkpt lat="44.73643" lon="5.47037">
        <ele>2026.6</ele>
        <time>2022-06-07T09:57:03Z</time>
      </trkpt>
      <trkpt lat="44.73638" lon="5.47053">
        <ele>2025.64</ele>
        <time>2022-06-07T09:57:13Z</time>
      </trkpt>
      <trkpt lat="44.73633" lon="5.47055">
        <ele>2024.67</ele>
        <time>2022-06-07T09:57:22Z</time>
      </trkpt>
      <trkpt lat="44.73628" lon="5.4706">
        <ele>2023.71</ele>
        <time>2022-06-07T09:57:28Z</time>
      </trkpt>
      <trkpt lat="44.7362" lon="5.47067">
        <ele>2022.75</ele>
        <time>2022-06-07T09:57:36Z</time>
      </trkpt>
      <trkpt lat="44.73604" lon="5.47075">
        <ele>2020.35</ele>
        <time>2022-06-07T09:57:54Z</time>
      </trkpt>
      <trkpt lat="44.73607" lon="5.47083">
        <ele>2019.87</ele>
        <time>2022-06-07T09:58:07Z</time>
      </trkpt>
      <trkpt lat="44.73607" lon="5.47087">
        <ele>2023.23</ele>
        <time>2022-06-07T10:49:10Z</time>
      </trkpt>
      <trkpt lat="44.73614" lon="5.47081">
        <ele>2025.64</ele>
        <time>2022-06-07T10:49:23Z</time>
      </trkpt>
      <trkpt lat="44.73624" lon="5.47069">
        <ele>2027.08</ele>
        <time>2022-06-07T10:49:40Z</time>
      </trkpt>
      <trkpt lat="44.73632" lon="5.47059">
        <ele>2028.52</ele>
        <time>2022-06-07T10:49:53Z</time>
      </trkpt>
      <trkpt lat="44.73633" lon="5.47057">
        <ele>2029</ele>
        <time>2022-06-07T10:49:55Z</time>
      </trkpt>
      <trkpt lat="44.73643" lon="5.47046">
        <ele>2031.4</ele>
        <time>2022-06-07T10:50:11Z</time>
      </trkpt>
      <trkpt lat="44.73649" lon="5.47044">
        <ele>2033.33</ele>
        <time>2022-06-07T10:50:18Z</time>
      </trkpt>
      <trkpt lat="44.7366" lon="5.4704">
        <ele>2032.84</ele>
        <time>2022-06-07T10:50:30Z</time>
      </trkpt>
      <trkpt lat="44.73668" lon="5.47041">
        <ele>2034.29</ele>
        <time>2022-06-07T10:50:39Z</time>
      </trkpt>
      <trkpt lat="44.73674" lon="5.47042">
        <ele>2033.81</ele>
        <time>2022-06-07T10:50:51Z</time>
      </trkpt>
      <trkpt lat="44.73687" lon="5.47044">
        <ele>2036.21</ele>
        <time>2022-06-07T10:51:06Z</time>
      </trkpt>
      <trkpt lat="44.737" lon="5.47047">
        <ele>2038.61</ele>
        <time>2022-06-07T10:51:20Z</time>
      </trkpt>
      <trkpt lat="44.737" lon="5.47047">
        <ele>2038.61</ele>
        <time>2022-06-07T10:51:21Z</time>
      </trkpt>
      <trkpt lat="44.73705" lon="5.47046">
        <ele>2037.65</ele>
        <time>2022-06-07T10:51:26Z</time>
      </trkpt>
      <trkpt lat="44.7371" lon="5.47046">
        <ele>2039.57</ele>
        <time>2022-06-07T10:51:33Z</time>
      </trkpt>
      <trkpt lat="44.73715" lon="5.47047">
        <ele>2038.13</ele>
        <time>2022-06-07T10:51:40Z</time>
      </trkpt>
      <trkpt lat="44.73719" lon="5.47046">
        <ele>2037.65</ele>
        <time>2022-06-07T10:51:56Z</time>
      </trkpt>
      <trkpt lat="44.73722" lon="5.47045">
        <ele>2041.5</ele>
        <time>2022-06-07T10:52:08Z</time>
      </trkpt>
      <trkpt lat="44.73723" lon="5.47045">
        <ele>2041.5</ele>
        <time>2022-06-07T10:52:09Z</time>
      </trkpt>
      <trkpt lat="44.73723" lon="5.47045">
        <ele>2038.61</ele>
        <time>2022-06-07T10:52:31Z</time>
      </trkpt>
      <trkpt lat="44.73724" lon="5.47045">
        <ele>2038.13</ele>
        <time>2022-06-07T10:52:49Z</time>
      </trkpt>
      <trkpt lat="44.73726" lon="5.47045">
        <ele>2041.02</ele>
        <time>2022-06-07T10:52:56Z</time>
      </trkpt>
      <trkpt lat="44.73727" lon="5.47045">
        <ele>2037.65</ele>
        <time>2022-06-07T10:53:15Z</time>
      </trkpt>
      <trkpt lat="44.73726" lon="5.47044">
        <ele>2039.09</ele>
        <time>2022-06-07T10:54:14Z</time>
      </trkpt>
      <trkpt lat="44.73726" lon="5.47042">
        <ele>2039.09</ele>
        <time>2022-06-07T10:54:17Z</time>
      </trkpt>
      <trkpt lat="44.73721" lon="5.4703">
        <ele>2040.54</ele>
        <time>2022-06-07T10:54:26Z</time>
      </trkpt>
      <trkpt lat="44.73715" lon="5.47012">
        <ele>2040.05</ele>
        <time>2022-06-07T10:54:38Z</time>
      </trkpt>
      <trkpt lat="44.73711" lon="5.46983">
        <ele>2038.13</ele>
        <time>2022-06-07T10:54:55Z</time>
      </trkpt>
      <trkpt lat="44.73709" lon="5.46962">
        <ele>2035.73</ele>
        <time>2022-06-07T10:55:10Z</time>
      </trkpt>
      <trkpt lat="44.73703" lon="5.4694">
        <ele>2032.36</ele>
        <time>2022-06-07T10:55:25Z</time>
      </trkpt>
      <trkpt lat="44.73699" lon="5.46922">
        <ele>2029</ele>
        <time>2022-06-07T10:55:40Z</time>
      </trkpt>
      <trkpt lat="44.73696" lon="5.46909">
        <ele>2026.12</ele>
        <time>2022-06-07T10:55:52Z</time>
      </trkpt>
      <trkpt lat="44.73693" lon="5.46896">
        <ele>2023.71</ele>
        <time>2022-06-07T10:56:05Z</time>
      </trkpt>
      <trkpt lat="44.73691" lon="5.46888">
        <ele>2020.83</ele>
        <time>2022-06-07T10:56:16Z</time>
      </trkpt>
      <trkpt lat="44.73691" lon="5.46886">
        <ele>2019.87</ele>
        <time>2022-06-07T10:56:18Z</time>
      </trkpt>
      <trkpt lat="44.73689" lon="5.46875">
        <ele>2016.5</ele>
        <time>2022-06-07T10:56:31Z</time>
      </trkpt>
      <trkpt lat="44.73686" lon="5.46872">
        <ele>2016.02</ele>
        <time>2022-06-07T10:56:36Z</time>
      </trkpt>
      <trkpt lat="44.7368" lon="5.46865">
        <ele>2014.58</ele>
        <time>2022-06-07T10:56:51Z</time>
      </trkpt>
      <trkpt lat="44.73676" lon="5.46859">
        <ele>2012.18</ele>
        <time>2022-06-07T10:57:04Z</time>
      </trkpt>
      <trkpt lat="44.73675" lon="5.46858">
        <ele>2011.7</ele>
        <time>2022-06-07T10:57:07Z</time>
      </trkpt>
      <trkpt lat="44.73672" lon="5.46853">
        <ele>2009.29</ele>
        <time>2022-06-07T10:57:22Z</time>
      </trkpt>
      <trkpt lat="44.73668" lon="5.46845">
        <ele>2006.89</ele>
        <time>2022-06-07T10:57:36Z</time>
      </trkpt>
      <trkpt lat="44.73666" lon="5.4684">
        <ele>2005.45</ele>
        <time>2022-06-07T10:57:57Z</time>
      </trkpt>
      <trkpt lat="44.73661" lon="5.46832">
        <ele>2002.56</ele>
        <time>2022-06-07T10:58:10Z</time>
      </trkpt>
      <trkpt lat="44.73657" lon="5.46828">
        <ele>2000.64</ele>
        <time>2022-06-07T10:58:55Z</time>
      </trkpt>
      <trkpt lat="44.73654" lon="5.46824">
        <ele>1998.72</ele>
        <time>2022-06-07T10:59:01Z</time>
      </trkpt>
      <trkpt lat="44.7365" lon="5.46817">
        <ele>1995.83</ele>
        <time>2022-06-07T10:59:13Z</time>
      </trkpt>
      <trkpt lat="44.73646" lon="5.46807">
        <ele>1993.43</ele>
        <time>2022-06-07T10:59:27Z</time>
      </trkpt>
      <trkpt lat="44.73642" lon="5.46799">
        <ele>1990.07</ele>
        <time>2022-06-07T10:59:38Z</time>
      </trkpt>
      <trkpt lat="44.73638" lon="5.4679">
        <ele>1986.7</ele>
        <time>2022-06-07T10:59:51Z</time>
      </trkpt>
      <trkpt lat="44.73635" lon="5.4678">
        <ele>1983.82</ele>
        <time>2022-06-07T11:00:03Z</time>
      </trkpt>
      <trkpt lat="44.73632" lon="5.46772">
        <ele>1980.45</ele>
        <time>2022-06-07T11:00:14Z</time>
      </trkpt>
      <trkpt lat="44.73631" lon="5.46772">
        <ele>1979.97</ele>
        <time>2022-06-07T11:01:15Z</time>
      </trkpt>
      <trkpt lat="44.73628" lon="5.46764">
        <ele>1977.09</ele>
        <time>2022-06-07T11:01:25Z</time>
      </trkpt>
      <trkpt lat="44.73625" lon="5.46756">
        <ele>1974.2</ele>
        <time>2022-06-07T11:01:38Z</time>
      </trkpt>
      <trkpt lat="44.73622" lon="5.46746">
        <ele>1970.84</ele>
        <time>2022-06-07T11:01:50Z</time>
      </trkpt>
      <trkpt lat="44.7362" lon="5.46743">
        <ele>1969.88</ele>
        <time>2022-06-07T11:01:54Z</time>
      </trkpt>
      <trkpt lat="44.73622" lon="5.46734">
        <ele>1966.51</ele>
        <time>2022-06-07T11:02:04Z</time>
      </trkpt>
      <trkpt lat="44.73622" lon="5.46733">
        <ele>1966.51</ele>
        <time>2022-06-07T11:02:05Z</time>
      </trkpt>
      <trkpt lat="44.73623" lon="5.46723">
        <ele>1963.63</ele>
        <time>2022-06-07T11:02:15Z</time>
      </trkpt>
      <trkpt lat="44.73621" lon="5.46715">
        <ele>1960.27</ele>
        <time>2022-06-07T11:02:27Z</time>
      </trkpt>
      <trkpt lat="44.7362" lon="5.46705">
        <ele>1957.86</ele>
        <time>2022-06-07T11:02:39Z</time>
      </trkpt>
      <trkpt lat="44.73618" lon="5.46697">
        <ele>1954.5</ele>
        <time>2022-06-07T11:02:51Z</time>
      </trkpt>
      <trkpt lat="44.73614" lon="5.46688">
        <ele>1951.13</ele>
        <time>2022-06-07T11:03:03Z</time>
      </trkpt>
      <trkpt lat="44.73614" lon="5.46678">
        <ele>1947.77</ele>
        <time>2022-06-07T11:03:14Z</time>
      </trkpt>
      <trkpt lat="44.73611" lon="5.46671">
        <ele>1944.4</ele>
        <time>2022-06-07T11:03:28Z</time>
      </trkpt>
      <trkpt lat="44.73607" lon="5.46664">
        <ele>1942.48</ele>
        <time>2022-06-07T11:03:40Z</time>
      </trkpt>
      <trkpt lat="44.73606" lon="5.46659">
        <ele>1940.56</ele>
        <time>2022-06-07T11:03:45Z</time>
      </trkpt>
      <trkpt lat="44.73607" lon="5.46649">
        <ele>1937.19</ele>
        <time>2022-06-07T11:03:58Z</time>
      </trkpt>
      <trkpt lat="44.73609" lon="5.46639">
        <ele>1934.79</ele>
        <time>2022-06-07T11:04:12Z</time>
      </trkpt>
      <trkpt lat="44.7361" lon="5.46632">
        <ele>1931.91</ele>
        <time>2022-06-07T11:04:22Z</time>
      </trkpt>
      <trkpt lat="44.73611" lon="5.46632">
        <ele>1931.91</ele>
        <time>2022-06-07T11:04:23Z</time>
      </trkpt>
      <trkpt lat="44.73612" lon="5.46629">
        <ele>1928.54</ele>
        <time>2022-06-07T11:04:31Z</time>
      </trkpt>
      <trkpt lat="44.73611" lon="5.46621">
        <ele>1926.14</ele>
        <time>2022-06-07T11:04:46Z</time>
      </trkpt>
      <trkpt lat="44.7361" lon="5.46617">
        <ele>1924.7</ele>
        <time>2022-06-07T11:05:03Z</time>
      </trkpt>
      <trkpt lat="44.73606" lon="5.4661">
        <ele>1921.81</ele>
        <time>2022-06-07T11:05:18Z</time>
      </trkpt>
      <trkpt lat="44.73606" lon="5.46603">
        <ele>1918.93</ele>
        <time>2022-06-07T11:05:30Z</time>
      </trkpt>
      <trkpt lat="44.736" lon="5.46597">
        <ele>1916.04</ele>
        <time>2022-06-07T11:05:44Z</time>
      </trkpt>
      <trkpt lat="44.73597" lon="5.46593">
        <ele>1914.6</ele>
        <time>2022-06-07T11:05:58Z</time>
      </trkpt>
      <trkpt lat="44.73595" lon="5.46585">
        <ele>1911.24</ele>
        <time>2022-06-07T11:06:12Z</time>
      </trkpt>
      <trkpt lat="44.73595" lon="5.46578">
        <ele>1909.8</ele>
        <time>2022-06-07T11:06:25Z</time>
      </trkpt>
      <trkpt lat="44.73593" lon="5.46573">
        <ele>1906.43</ele>
        <time>2022-06-07T11:06:40Z</time>
      </trkpt>
      <trkpt lat="44.73593" lon="5.46569">
        <ele>1905.47</ele>
        <time>2022-06-07T11:06:58Z</time>
      </trkpt>
      <trkpt lat="44.73597" lon="5.46562">
        <ele>1902.11</ele>
        <time>2022-06-07T11:07:13Z</time>
      </trkpt>
      <trkpt lat="44.73596" lon="5.46556">
        <ele>1899.7</ele>
        <time>2022-06-07T11:07:28Z</time>
      </trkpt>
      <trkpt lat="44.73596" lon="5.46551">
        <ele>1897.3</ele>
        <time>2022-06-07T11:07:40Z</time>
      </trkpt>
      <trkpt lat="44.73598" lon="5.46544">
        <ele>1893.93</ele>
        <time>2022-06-07T11:07:54Z</time>
      </trkpt>
      <trkpt lat="44.73598" lon="5.46536">
        <ele>1891.53</ele>
        <time>2022-06-07T11:08:07Z</time>
      </trkpt>
      <trkpt lat="44.73596" lon="5.46528">
        <ele>1888.65</ele>
        <time>2022-06-07T11:08:21Z</time>
      </trkpt>
      <trkpt lat="44.73595" lon="5.4652">
        <ele>1885.76</ele>
        <time>2022-06-07T11:08:33Z</time>
      </trkpt>
      <trkpt lat="44.73598" lon="5.46511">
        <ele>1882.88</ele>
        <time>2022-06-07T11:08:48Z</time>
      </trkpt>
      <trkpt lat="44.73593" lon="5.46503">
        <ele>1880</ele>
        <time>2022-06-07T11:09:02Z</time>
      </trkpt>
      <trkpt lat="44.73586" lon="5.46494">
        <ele>1877.11</ele>
        <time>2022-06-07T11:09:15Z</time>
      </trkpt>
      <trkpt lat="44.73576" lon="5.46484">
        <ele>1873.75</ele>
        <time>2022-06-07T11:09:31Z</time>
      </trkpt>
      <trkpt lat="44.73567" lon="5.4648">
        <ele>1872.3</ele>
        <time>2022-06-07T11:09:40Z</time>
      </trkpt>
      <trkpt lat="44.73561" lon="5.46479">
        <ele>1871.82</ele>
        <time>2022-06-07T11:09:47Z</time>
      </trkpt>
      <trkpt lat="44.73548" lon="5.46472">
        <ele>1869.42</ele>
        <time>2022-06-07T11:10:02Z</time>
      </trkpt>
      <trkpt lat="44.73545" lon="5.46469">
        <ele>1868.94</ele>
        <time>2022-06-07T11:10:06Z</time>
      </trkpt>
      <trkpt lat="44.7354" lon="5.46464">
        <ele>1868.94</ele>
        <time>2022-06-07T11:10:12Z</time>
      </trkpt>
      <trkpt lat="44.73522" lon="5.46464">
        <ele>1867.5</ele>
        <time>2022-06-07T11:10:28Z</time>
      </trkpt>
      <trkpt lat="44.73507" lon="5.46478">
        <ele>1865.09</ele>
        <time>2022-06-07T11:10:46Z</time>
      </trkpt>
      <trkpt lat="44.73502" lon="5.46485">
        <ele>1865.09</ele>
        <time>2022-06-07T11:10:58Z</time>
      </trkpt>
      <trkpt lat="44.73503" lon="5.4649">
        <ele>1865.09</ele>
        <time>2022-06-07T11:11:11Z</time>
      </trkpt>
      <trkpt lat="44.735" lon="5.4649">
        <ele>1866.06</ele>
        <time>2022-06-07T11:11:24Z</time>
      </trkpt>
      <trkpt lat="44.73496" lon="5.46492">
        <ele>1866.06</ele>
        <time>2022-06-07T11:11:34Z</time>
      </trkpt>
      <trkpt lat="44.73495" lon="5.46491">
        <ele>1865.09</ele>
        <time>2022-06-07T11:11:36Z</time>
      </trkpt>
      <trkpt lat="44.73491" lon="5.46488">
        <ele>1863.17</ele>
        <time>2022-06-07T11:11:49Z</time>
      </trkpt>
      <trkpt lat="44.7349" lon="5.46493">
        <ele>1863.65</ele>
        <time>2022-06-07T11:12:05Z</time>
      </trkpt>
      <trkpt lat="44.7349" lon="5.46498">
        <ele>1865.58</ele>
        <time>2022-06-07T11:12:21Z</time>
      </trkpt>
      <trkpt lat="44.7349" lon="5.46501">
        <ele>1866.06</ele>
        <time>2022-06-07T11:12:35Z</time>
      </trkpt>
      <trkpt lat="44.73489" lon="5.465">
        <ele>1865.58</ele>
        <time>2022-06-07T11:12:47Z</time>
      </trkpt>
      <trkpt lat="44.7349" lon="5.46498">
        <ele>1865.58</ele>
        <time>2022-06-07T11:13:02Z</time>
      </trkpt>
      <trkpt lat="44.73489" lon="5.46497">
        <ele>1864.13</ele>
        <time>2022-06-07T11:13:14Z</time>
      </trkpt>
      <trkpt lat="44.73491" lon="5.46489">
        <ele>1863.17</ele>
        <time>2022-06-07T11:13:27Z</time>
      </trkpt>
      <trkpt lat="44.73491" lon="5.46488">
        <ele>1863.17</ele>
        <time>2022-06-07T11:13:42Z</time>
      </trkpt>
      <trkpt lat="44.73493" lon="5.46487">
        <ele>1863.17</ele>
        <time>2022-06-07T11:14:17Z</time>
      </trkpt>
      <trkpt lat="44.73497" lon="5.46488">
        <ele>1867.5</ele>
        <time>2022-06-07T11:15:08Z</time>
      </trkpt>
      <trkpt lat="44.73498" lon="5.46487">
        <ele>1866.54</ele>
        <time>2022-06-07T11:15:11Z</time>
      </trkpt>
      <trkpt lat="44.73503" lon="5.46488">
        <ele>1865.09</ele>
        <time>2022-06-07T11:15:23Z</time>
      </trkpt>
      <trkpt lat="44.73502" lon="5.46486">
        <ele>1864.13</ele>
        <time>2022-06-07T11:15:36Z</time>
      </trkpt>
      <trkpt lat="44.73504" lon="5.46486">
        <ele>1866.54</ele>
        <time>2022-06-07T11:15:49Z</time>
      </trkpt>
      <trkpt lat="44.73506" lon="5.46486">
        <ele>1865.09</ele>
        <time>2022-06-07T11:15:56Z</time>
      </trkpt>
      <trkpt lat="44.73505" lon="5.46484">
        <ele>1866.06</ele>
        <time>2022-06-07T11:16:13Z</time>
      </trkpt>
      <trkpt lat="44.73508" lon="5.46483">
        <ele>1865.58</ele>
        <time>2022-06-07T11:16:32Z</time>
      </trkpt>
      <trkpt lat="44.73513" lon="5.4648">
        <ele>1867.02</ele>
        <time>2022-06-07T11:16:49Z</time>
      </trkpt>
      <trkpt lat="44.73521" lon="5.46477">
        <ele>1867.98</ele>
        <time>2022-06-07T11:16:59Z</time>
      </trkpt>
      <trkpt lat="44.73525" lon="5.46475">
        <ele>1867.98</ele>
        <time>2022-06-07T11:17:18Z</time>
      </trkpt>
      <trkpt lat="44.73527" lon="5.46475">
        <ele>1867.98</ele>
        <time>2022-06-07T11:17:20Z</time>
      </trkpt>
      <trkpt lat="44.73533" lon="5.46471">
        <ele>1867.98</ele>
        <time>2022-06-07T11:17:27Z</time>
      </trkpt>
      <trkpt lat="44.73549" lon="5.46463">
        <ele>1868.46</ele>
        <time>2022-06-07T11:17:43Z</time>
      </trkpt>
      <trkpt lat="44.73565" lon="5.4646">
        <ele>1868.94</ele>
        <time>2022-06-07T11:17:59Z</time>
      </trkpt>
      <trkpt lat="44.73566" lon="5.4646">
        <ele>1868.94</ele>
        <time>2022-06-07T11:18:00Z</time>
      </trkpt>
      <trkpt lat="44.73579" lon="5.46454">
        <ele>1868.94</ele>
        <time>2022-06-07T11:18:14Z</time>
      </trkpt>
      <trkpt lat="44.73584" lon="5.46454">
        <ele>1868.94</ele>
        <time>2022-06-07T11:18:19Z</time>
      </trkpt>
      <trkpt lat="44.73598" lon="5.46458">
        <ele>1868.94</ele>
        <time>2022-06-07T11:18:35Z</time>
      </trkpt>
      <trkpt lat="44.736" lon="5.46458">
        <ele>1869.42</ele>
        <time>2022-06-07T11:19:58Z</time>
      </trkpt>
      <trkpt lat="44.73608" lon="5.46462">
        <ele>1869.42</ele>
        <time>2022-06-07T11:20:06Z</time>
      </trkpt>
      <trkpt lat="44.73626" lon="5.46467">
        <ele>1869.42</ele>
        <time>2022-06-07T11:20:22Z</time>
      </trkpt>
      <trkpt lat="44.73627" lon="5.46467">
        <ele>1869.42</ele>
        <time>2022-06-07T11:20:23Z</time>
      </trkpt>
      <trkpt lat="44.73631" lon="5.46467">
        <ele>1867.98</ele>
        <time>2022-06-07T11:20:27Z</time>
      </trkpt>
      <trkpt lat="44.73643" lon="5.46459">
        <ele>1867.02</ele>
        <time>2022-06-07T11:20:40Z</time>
      </trkpt>
      <trkpt lat="44.73645" lon="5.4646">
        <ele>1867.02</ele>
        <time>2022-06-07T11:20:42Z</time>
      </trkpt>
      <trkpt lat="44.73657" lon="5.46455">
        <ele>1866.06</ele>
        <time>2022-06-07T11:20:56Z</time>
      </trkpt>
      <trkpt lat="44.73665" lon="5.46454">
        <ele>1866.06</ele>
        <time>2022-06-07T11:21:10Z</time>
      </trkpt>
      <trkpt lat="44.7367" lon="5.46452">
        <ele>1867.98</ele>
        <time>2022-06-07T11:22:44Z</time>
      </trkpt>
      <trkpt lat="44.73682" lon="5.46448">
        <ele>1869.42</ele>
        <time>2022-06-07T11:22:57Z</time>
      </trkpt>
      <trkpt lat="44.73696" lon="5.46442">
        <ele>1870.38</ele>
        <time>2022-06-07T11:23:10Z</time>
      </trkpt>
      <trkpt lat="44.7371" lon="5.46433">
        <ele>1869.9</ele>
        <time>2022-06-07T11:23:24Z</time>
      </trkpt>
      <trkpt lat="44.73717" lon="5.46429">
        <ele>1868.94</ele>
        <time>2022-06-07T11:23:30Z</time>
      </trkpt>
      <trkpt lat="44.73737" lon="5.46424">
        <ele>1867.02</ele>
        <time>2022-06-07T11:23:47Z</time>
      </trkpt>
      <trkpt lat="44.73755" lon="5.46416">
        <ele>1867.02</ele>
        <time>2022-06-07T11:24:03Z</time>
      </trkpt>
      <trkpt lat="44.73771" lon="5.46416">
        <ele>1867.02</ele>
        <time>2022-06-07T11:24:17Z</time>
      </trkpt>
      <trkpt lat="44.73786" lon="5.4641">
        <ele>1867.02</ele>
        <time>2022-06-07T11:24:31Z</time>
      </trkpt>
      <trkpt lat="44.73796" lon="5.46402">
        <ele>1867.98</ele>
        <time>2022-06-07T11:24:42Z</time>
      </trkpt>
      <trkpt lat="44.73813" lon="5.46393">
        <ele>1867.02</ele>
        <time>2022-06-07T11:24:58Z</time>
      </trkpt>
      <trkpt lat="44.73816" lon="5.46392">
        <ele>1867.98</ele>
        <time>2022-06-07T11:25:01Z</time>
      </trkpt>
      <trkpt lat="44.7383" lon="5.46381">
        <ele>1868.46</ele>
        <time>2022-06-07T11:25:15Z</time>
      </trkpt>
      <trkpt lat="44.73848" lon="5.46376">
        <ele>1868.46</ele>
        <time>2022-06-07T11:25:32Z</time>
      </trkpt>
      <trkpt lat="44.73865" lon="5.46373">
        <ele>1868.46</ele>
        <time>2022-06-07T11:25:46Z</time>
      </trkpt>
      <trkpt lat="44.73882" lon="5.46366">
        <ele>1868.46</ele>
        <time>2022-06-07T11:26:01Z</time>
      </trkpt>
      <trkpt lat="44.73897" lon="5.46363">
        <ele>1867.98</ele>
        <time>2022-06-07T11:26:14Z</time>
      </trkpt>
      <trkpt lat="44.73912" lon="5.46356">
        <ele>1867.98</ele>
        <time>2022-06-07T11:26:29Z</time>
      </trkpt>
      <trkpt lat="44.73924" lon="5.46344">
        <ele>1866.06</ele>
        <time>2022-06-07T11:26:43Z</time>
      </trkpt>
      <trkpt lat="44.73941" lon="5.46337">
        <ele>1866.06</ele>
        <time>2022-06-07T11:26:59Z</time>
      </trkpt>
      <trkpt lat="44.73942" lon="5.46336">
        <ele>1866.06</ele>
        <time>2022-06-07T11:27:00Z</time>
      </trkpt>
      <trkpt lat="44.73949" lon="5.46332">
        <ele>1867.5</ele>
        <time>2022-06-07T11:27:07Z</time>
      </trkpt>
      <trkpt lat="44.73955" lon="5.46327">
        <ele>1868.46</ele>
        <time>2022-06-07T11:27:13Z</time>
      </trkpt>
      <trkpt lat="44.73965" lon="5.46317">
        <ele>1868.46</ele>
        <time>2022-06-07T11:27:25Z</time>
      </trkpt>
      <trkpt lat="44.73967" lon="5.46316">
        <ele>1868.46</ele>
        <time>2022-06-07T11:27:27Z</time>
      </trkpt>
      <trkpt lat="44.7397" lon="5.46313">
        <ele>1868.46</ele>
        <time>2022-06-07T11:27:30Z</time>
      </trkpt>
      <trkpt lat="44.73973" lon="5.46311">
        <ele>1867.02</ele>
        <time>2022-06-07T11:27:33Z</time>
      </trkpt>
      <trkpt lat="44.73988" lon="5.46307">
        <ele>1866.54</ele>
        <time>2022-06-07T11:27:48Z</time>
      </trkpt>
      <trkpt lat="44.73995" lon="5.46303">
        <ele>1865.58</ele>
        <time>2022-06-07T11:27:55Z</time>
      </trkpt>
      <trkpt lat="44.74007" lon="5.46301">
        <ele>1862.69</ele>
        <time>2022-06-07T11:28:10Z</time>
      </trkpt>
      <trkpt lat="44.74008" lon="5.46298">
        <ele>1862.21</ele>
        <time>2022-06-07T11:28:14Z</time>
      </trkpt>
      <trkpt lat="44.74013" lon="5.46297">
        <ele>1860.77</ele>
        <time>2022-06-07T11:28:19Z</time>
      </trkpt>
      <trkpt lat="44.74025" lon="5.46293">
        <ele>1858.37</ele>
        <time>2022-06-07T11:28:32Z</time>
      </trkpt>
      <trkpt lat="44.7404" lon="5.46286">
        <ele>1854.52</ele>
        <time>2022-06-07T11:28:48Z</time>
      </trkpt>
      <trkpt lat="44.74052" lon="5.46282">
        <ele>1853.08</ele>
        <time>2022-06-07T11:29:02Z</time>
      </trkpt>
      <trkpt lat="44.74067" lon="5.46279">
        <ele>1852.6</ele>
        <time>2022-06-07T11:29:17Z</time>
      </trkpt>
      <trkpt lat="44.74073" lon="5.46278">
        <ele>1854.52</ele>
        <time>2022-06-07T11:29:23Z</time>
      </trkpt>
      <trkpt lat="44.74079" lon="5.46277">
        <ele>1852.6</ele>
        <time>2022-06-07T11:29:28Z</time>
      </trkpt>
      <trkpt lat="44.74091" lon="5.46278">
        <ele>1852.12</ele>
        <time>2022-06-07T11:29:40Z</time>
      </trkpt>
      <trkpt lat="44.74106" lon="5.4628">
        <ele>1852.12</ele>
        <time>2022-06-07T11:29:55Z</time>
      </trkpt>
      <trkpt lat="44.74125" lon="5.46276">
        <ele>1850.68</ele>
        <time>2022-06-07T11:30:13Z</time>
      </trkpt>
      <trkpt lat="44.74139" lon="5.46264">
        <ele>1850.19</ele>
        <time>2022-06-07T11:30:29Z</time>
      </trkpt>
      <trkpt lat="44.74144" lon="5.46245">
        <ele>1851.64</ele>
        <time>2022-06-07T11:30:43Z</time>
      </trkpt>
      <trkpt lat="44.74144" lon="5.46241">
        <ele>1853.08</ele>
        <time>2022-06-07T11:30:47Z</time>
      </trkpt>
      <trkpt lat="44.7414" lon="5.46225">
        <ele>1854.52</ele>
        <time>2022-06-07T11:31:01Z</time>
      </trkpt>
      <trkpt lat="44.7413" lon="5.46216">
        <ele>1855.48</ele>
        <time>2022-06-07T11:31:16Z</time>
      </trkpt>
      <trkpt lat="44.7413" lon="5.46213">
        <ele>1855.96</ele>
        <time>2022-06-07T11:31:32Z</time>
      </trkpt>
      <trkpt lat="44.74132" lon="5.46204">
        <ele>1857.4</ele>
        <time>2022-06-07T11:34:00Z</time>
      </trkpt>
      <trkpt lat="44.74136" lon="5.46199">
        <ele>1856.92</ele>
        <time>2022-06-07T11:34:13Z</time>
      </trkpt>
      <trkpt lat="44.74148" lon="5.46191">
        <ele>1855.48</ele>
        <time>2022-06-07T11:34:27Z</time>
      </trkpt>
      <trkpt lat="44.74162" lon="5.46179">
        <ele>1854.04</ele>
        <time>2022-06-07T11:34:42Z</time>
      </trkpt>
      <trkpt lat="44.74164" lon="5.46178">
        <ele>1854.04</ele>
        <time>2022-06-07T11:34:44Z</time>
      </trkpt>
      <trkpt lat="44.7417" lon="5.46174">
        <ele>1853.08</ele>
        <time>2022-06-07T11:34:50Z</time>
      </trkpt>
      <trkpt lat="44.74171" lon="5.46172">
        <ele>1852.6</ele>
        <time>2022-06-07T11:34:52Z</time>
      </trkpt>
      <trkpt lat="44.74175" lon="5.46155">
        <ele>1848.75</ele>
        <time>2022-06-07T11:35:06Z</time>
      </trkpt>
      <trkpt lat="44.74172" lon="5.46146">
        <ele>1846.35</ele>
        <time>2022-06-07T11:35:15Z</time>
      </trkpt>
      <trkpt lat="44.74163" lon="5.46136">
        <ele>1843.47</ele>
        <time>2022-06-07T11:35:28Z</time>
      </trkpt>
      <trkpt lat="44.74159" lon="5.46125">
        <ele>1840.58</ele>
        <time>2022-06-07T11:35:42Z</time>
      </trkpt>
      <trkpt lat="44.74171" lon="5.46121">
        <ele>1837.22</ele>
        <time>2022-06-07T11:35:57Z</time>
      </trkpt>
      <trkpt lat="44.7418" lon="5.46117">
        <ele>1835.77</ele>
        <time>2022-06-07T11:36:04Z</time>
      </trkpt>
      <trkpt lat="44.74195" lon="5.46113">
        <ele>1833.85</ele>
        <time>2022-06-07T11:36:18Z</time>
      </trkpt>
      <trkpt lat="44.74204" lon="5.46109">
        <ele>1831.45</ele>
        <time>2022-06-07T11:36:28Z</time>
      </trkpt>
      <trkpt lat="44.74216" lon="5.46104">
        <ele>1827.12</ele>
        <time>2022-06-07T11:36:41Z</time>
      </trkpt>
      <trkpt lat="44.74221" lon="5.46104">
        <ele>1826.64</ele>
        <time>2022-06-07T11:36:46Z</time>
      </trkpt>
      <trkpt lat="44.74237" lon="5.46106">
        <ele>1824.24</ele>
        <time>2022-06-07T11:37:00Z</time>
      </trkpt>
      <trkpt lat="44.74249" lon="5.461">
        <ele>1821.84</ele>
        <time>2022-06-07T11:37:14Z</time>
      </trkpt>
      <trkpt lat="44.74253" lon="5.46099">
        <ele>1821.35</ele>
        <time>2022-06-07T11:37:18Z</time>
      </trkpt>
      <trkpt lat="44.74259" lon="5.46093">
        <ele>1818.95</ele>
        <time>2022-06-07T11:37:31Z</time>
      </trkpt>
      <trkpt lat="44.74248" lon="5.46083">
        <ele>1816.55</ele>
        <time>2022-06-07T11:37:47Z</time>
      </trkpt>
      <trkpt lat="44.7424" lon="5.46075">
        <ele>1812.7</ele>
        <time>2022-06-07T11:38:01Z</time>
      </trkpt>
      <trkpt lat="44.74238" lon="5.46072">
        <ele>1811.74</ele>
        <time>2022-06-07T11:38:06Z</time>
      </trkpt>
      <trkpt lat="44.74234" lon="5.46065">
        <ele>1809.34</ele>
        <time>2022-06-07T11:38:19Z</time>
      </trkpt>
      <trkpt lat="44.74244" lon="5.46064">
        <ele>1806.45</ele>
        <time>2022-06-07T11:38:33Z</time>
      </trkpt>
      <trkpt lat="44.74252" lon="5.46055">
        <ele>1803.09</ele>
        <time>2022-06-07T11:38:48Z</time>
      </trkpt>
      <trkpt lat="44.74259" lon="5.46049">
        <ele>1800.69</ele>
        <time>2022-06-07T11:39:00Z</time>
      </trkpt>
      <trkpt lat="44.74264" lon="5.46047">
        <ele>1797.32</ele>
        <time>2022-06-07T11:39:09Z</time>
      </trkpt>
      <trkpt lat="44.74267" lon="5.46043">
        <ele>1795.88</ele>
        <time>2022-06-07T11:39:17Z</time>
      </trkpt>
      <trkpt lat="44.74275" lon="5.46037">
        <ele>1793</ele>
        <time>2022-06-07T11:39:28Z</time>
      </trkpt>
      <trkpt lat="44.74277" lon="5.46034">
        <ele>1792.03</ele>
        <time>2022-06-07T11:39:31Z</time>
      </trkpt>
      <trkpt lat="44.74288" lon="5.46029">
        <ele>1788.19</ele>
        <time>2022-06-07T11:39:43Z</time>
      </trkpt>
      <trkpt lat="44.74284" lon="5.46022">
        <ele>1785.31</ele>
        <time>2022-06-07T11:39:54Z</time>
      </trkpt>
      <trkpt lat="44.74283" lon="5.46017">
        <ele>1782.42</ele>
        <time>2022-06-07T11:40:06Z</time>
      </trkpt>
      <trkpt lat="44.74291" lon="5.46012">
        <ele>1779.54</ele>
        <time>2022-06-07T11:40:19Z</time>
      </trkpt>
      <trkpt lat="44.74294" lon="5.46008">
        <ele>1777.61</ele>
        <time>2022-06-07T11:40:30Z</time>
      </trkpt>
      <trkpt lat="44.74303" lon="5.46001">
        <ele>1774.25</ele>
        <time>2022-06-07T11:40:42Z</time>
      </trkpt>
      <trkpt lat="44.74308" lon="5.46">
        <ele>1771.85</ele>
        <time>2022-06-07T11:40:48Z</time>
      </trkpt>
      <trkpt lat="44.74314" lon="5.45993">
        <ele>1768.48</ele>
        <time>2022-06-07T11:40:58Z</time>
      </trkpt>
      <trkpt lat="44.74315" lon="5.45993">
        <ele>1768.48</ele>
        <time>2022-06-07T11:40:59Z</time>
      </trkpt>
      <trkpt lat="44.74322" lon="5.45989">
        <ele>1766.08</ele>
        <time>2022-06-07T11:41:13Z</time>
      </trkpt>
      <trkpt lat="44.74329" lon="5.45983">
        <ele>1762.71</ele>
        <time>2022-06-07T11:41:27Z</time>
      </trkpt>
      <trkpt lat="44.74337" lon="5.4598">
        <ele>1761.27</ele>
        <time>2022-06-07T11:41:34Z</time>
      </trkpt>
      <trkpt lat="44.74346" lon="5.45975">
        <ele>1757.43</ele>
        <time>2022-06-07T11:41:46Z</time>
      </trkpt>
      <trkpt lat="44.74349" lon="5.45974">
        <ele>1756.95</ele>
        <time>2022-06-07T11:41:51Z</time>
      </trkpt>
      <trkpt lat="44.74359" lon="5.45973">
        <ele>1753.58</ele>
        <time>2022-06-07T11:42:04Z</time>
      </trkpt>
      <trkpt lat="44.74354" lon="5.45965">
        <ele>1751.18</ele>
        <time>2022-06-07T11:42:13Z</time>
      </trkpt>
      <trkpt lat="44.74346" lon="5.45956">
        <ele>1748.78</ele>
        <time>2022-06-07T11:42:27Z</time>
      </trkpt>
      <trkpt lat="44.74347" lon="5.45956">
        <ele>1748.29</ele>
        <time>2022-06-07T11:42:28Z</time>
      </trkpt>
      <trkpt lat="44.74357" lon="5.45951">
        <ele>1744.93</ele>
        <time>2022-06-07T11:42:43Z</time>
      </trkpt>
      <trkpt lat="44.74352" lon="5.45943">
        <ele>1742.53</ele>
        <time>2022-06-07T11:42:55Z</time>
      </trkpt>
      <trkpt lat="44.74361" lon="5.45944">
        <ele>1739.16</ele>
        <time>2022-06-07T11:43:08Z</time>
      </trkpt>
      <trkpt lat="44.74371" lon="5.45937">
        <ele>1735.8</ele>
        <time>2022-06-07T11:43:23Z</time>
      </trkpt>
      <trkpt lat="44.74382" lon="5.45939">
        <ele>1733.39</ele>
        <time>2022-06-07T11:43:36Z</time>
      </trkpt>
      <trkpt lat="44.7439" lon="5.45935">
        <ele>1730.03</ele>
        <time>2022-06-07T11:43:48Z</time>
      </trkpt>
      <trkpt lat="44.74398" lon="5.45932">
        <ele>1727.15</ele>
        <time>2022-06-07T11:43:59Z</time>
      </trkpt>
      <trkpt lat="44.74408" lon="5.45931">
        <ele>1723.78</ele>
        <time>2022-06-07T11:44:10Z</time>
      </trkpt>
      <trkpt lat="44.74421" lon="5.45931">
        <ele>1720.9</ele>
        <time>2022-06-07T11:44:24Z</time>
      </trkpt>
      <trkpt lat="44.7442" lon="5.45922">
        <ele>1719.94</ele>
        <time>2022-06-07T11:44:36Z</time>
      </trkpt>
      <trkpt lat="44.74425" lon="5.45919">
        <ele>1718.49</ele>
        <time>2022-06-07T11:44:41Z</time>
      </trkpt>
      <trkpt lat="44.74434" lon="5.45919">
        <ele>1715.61</ele>
        <time>2022-06-07T11:44:51Z</time>
      </trkpt>
      <trkpt lat="44.74444" lon="5.45916">
        <ele>1711.76</ele>
        <time>2022-06-07T11:45:03Z</time>
      </trkpt>
      <trkpt lat="44.7445" lon="5.45915">
        <ele>1709.36</ele>
        <time>2022-06-07T11:45:15Z</time>
      </trkpt>
      <trkpt lat="44.74449" lon="5.45907">
        <ele>1706</ele>
        <time>2022-06-07T11:45:25Z</time>
      </trkpt>
      <trkpt lat="44.74444" lon="5.45898">
        <ele>1702.63</ele>
        <time>2022-06-07T11:45:38Z</time>
      </trkpt>
      <trkpt lat="44.74447" lon="5.4589">
        <ele>1700.23</ele>
        <time>2022-06-07T11:45:51Z</time>
      </trkpt>
      <trkpt lat="44.74443" lon="5.45881">
        <ele>1696.86</ele>
        <time>2022-06-07T11:46:02Z</time>
      </trkpt>
      <trkpt lat="44.74439" lon="5.45873">
        <ele>1693.98</ele>
        <time>2022-06-07T11:46:13Z</time>
      </trkpt>
      <trkpt lat="44.74431" lon="5.45861">
        <ele>1690.14</ele>
        <time>2022-06-07T11:46:25Z</time>
      </trkpt>
      <trkpt lat="44.74425" lon="5.45851">
        <ele>1687.25</ele>
        <time>2022-06-07T11:46:35Z</time>
      </trkpt>
      <trkpt lat="44.74419" lon="5.45839">
        <ele>1683.41</ele>
        <time>2022-06-07T11:46:47Z</time>
      </trkpt>
      <trkpt lat="44.74414" lon="5.45829">
        <ele>1681</ele>
        <time>2022-06-07T11:46:59Z</time>
      </trkpt>
      <trkpt lat="44.74412" lon="5.45824">
        <ele>1679.08</ele>
        <time>2022-06-07T11:47:04Z</time>
      </trkpt>
      <trkpt lat="44.74413" lon="5.4582">
        <ele>1677.64</ele>
        <time>2022-06-07T11:47:10Z</time>
      </trkpt>
      <trkpt lat="44.74426" lon="5.4582">
        <ele>1673.79</ele>
        <time>2022-06-07T11:47:26Z</time>
      </trkpt>
      <trkpt lat="44.74435" lon="5.45819">
        <ele>1670.43</ele>
        <time>2022-06-07T11:47:39Z</time>
      </trkpt>
      <trkpt lat="44.74446" lon="5.45823">
        <ele>1668.51</ele>
        <time>2022-06-07T11:47:50Z</time>
      </trkpt>
      <trkpt lat="44.74454" lon="5.45818">
        <ele>1666.58</ele>
        <time>2022-06-07T11:48:03Z</time>
      </trkpt>
      <trkpt lat="44.74448" lon="5.45808">
        <ele>1662.74</ele>
        <time>2022-06-07T11:48:17Z</time>
      </trkpt>
      <trkpt lat="44.74442" lon="5.45801">
        <ele>1659.85</ele>
        <time>2022-06-07T11:48:29Z</time>
      </trkpt>
      <trkpt lat="44.74435" lon="5.45792">
        <ele>1657.45</ele>
        <time>2022-06-07T11:48:43Z</time>
      </trkpt>
      <trkpt lat="44.74434" lon="5.45785">
        <ele>1654.09</ele>
        <time>2022-06-07T11:48:56Z</time>
      </trkpt>
      <trkpt lat="44.74428" lon="5.45774">
        <ele>1650.72</ele>
        <time>2022-06-07T11:49:10Z</time>
      </trkpt>
      <trkpt lat="44.7442" lon="5.45762">
        <ele>1647.84</ele>
        <time>2022-06-07T11:49:24Z</time>
      </trkpt>
      <trkpt lat="44.74414" lon="5.45753">
        <ele>1644.47</ele>
        <time>2022-06-07T11:49:35Z</time>
      </trkpt>
      <trkpt lat="44.74408" lon="5.45746">
        <ele>1641.11</ele>
        <time>2022-06-07T11:49:46Z</time>
      </trkpt>
      <trkpt lat="44.74409" lon="5.45739">
        <ele>1638.22</ele>
        <time>2022-06-07T11:49:58Z</time>
      </trkpt>
      <trkpt lat="44.74412" lon="5.45732">
        <ele>1634.86</ele>
        <time>2022-06-07T11:50:10Z</time>
      </trkpt>
      <trkpt lat="44.74418" lon="5.4573">
        <ele>1631.49</ele>
        <time>2022-06-07T11:50:21Z</time>
      </trkpt>
      <trkpt lat="44.74426" lon="5.45736">
        <ele>1628.61</ele>
        <time>2022-06-07T11:50:34Z</time>
      </trkpt>
      <trkpt lat="44.74435" lon="5.4573">
        <ele>1625.25</ele>
        <time>2022-06-07T11:50:46Z</time>
      </trkpt>
      <trkpt lat="44.74427" lon="5.45714">
        <ele>1622.36</ele>
        <time>2022-06-07T11:50:59Z</time>
      </trkpt>
      <trkpt lat="44.74418" lon="5.45707">
        <ele>1619.96</ele>
        <time>2022-06-07T11:51:13Z</time>
      </trkpt>
      <trkpt lat="44.74421" lon="5.45699">
        <ele>1616.59</ele>
        <time>2022-06-07T11:51:25Z</time>
      </trkpt>
      <trkpt lat="44.74412" lon="5.45689">
        <ele>1612.75</ele>
        <time>2022-06-07T11:51:40Z</time>
      </trkpt>
      <trkpt lat="44.74415" lon="5.45681">
        <ele>1609.86</ele>
        <time>2022-06-07T11:51:53Z</time>
      </trkpt>
      <trkpt lat="44.74416" lon="5.45674">
        <ele>1606.98</ele>
        <time>2022-06-07T11:52:07Z</time>
      </trkpt>
      <trkpt lat="44.74411" lon="5.45667">
        <ele>1603.62</ele>
        <time>2022-06-07T11:52:20Z</time>
      </trkpt>
      <trkpt lat="44.74417" lon="5.45656">
        <ele>1600.25</ele>
        <time>2022-06-07T11:52:36Z</time>
      </trkpt>
      <trkpt lat="44.74416" lon="5.45649">
        <ele>1596.89</ele>
        <time>2022-06-07T11:52:50Z</time>
      </trkpt>
      <trkpt lat="44.74411" lon="5.45642">
        <ele>1594</ele>
        <time>2022-06-07T11:53:03Z</time>
      </trkpt>
      <trkpt lat="44.74417" lon="5.45638">
        <ele>1590.16</ele>
        <time>2022-06-07T11:53:17Z</time>
      </trkpt>
      <trkpt lat="44.74411" lon="5.45627">
        <ele>1587.27</ele>
        <time>2022-06-07T11:53:28Z</time>
      </trkpt>
      <trkpt lat="44.74414" lon="5.45619">
        <ele>1584.87</ele>
        <time>2022-06-07T11:53:42Z</time>
      </trkpt>
      <trkpt lat="44.74404" lon="5.45611">
        <ele>1581.51</ele>
        <time>2022-06-07T11:53:56Z</time>
      </trkpt>
      <trkpt lat="44.74404" lon="5.45602">
        <ele>1578.62</ele>
        <time>2022-06-07T11:54:09Z</time>
      </trkpt>
      <trkpt lat="44.74405" lon="5.45599">
        <ele>1576.7</ele>
        <time>2022-06-07T11:54:13Z</time>
      </trkpt>
      <trkpt lat="44.74412" lon="5.4559">
        <ele>1573.82</ele>
        <time>2022-06-07T11:54:28Z</time>
      </trkpt>
      <trkpt lat="44.74417" lon="5.45588">
        <ele>1570.45</ele>
        <time>2022-06-07T11:54:38Z</time>
      </trkpt>
      <trkpt lat="44.74421" lon="5.45583">
        <ele>1568.53</ele>
        <time>2022-06-07T11:54:49Z</time>
      </trkpt>
      <trkpt lat="44.74427" lon="5.45577">
        <ele>1565.16</ele>
        <time>2022-06-07T11:55:02Z</time>
      </trkpt>
      <trkpt lat="44.74432" lon="5.45575">
        <ele>1562.76</ele>
        <time>2022-06-07T11:55:09Z</time>
      </trkpt>
      <trkpt lat="44.7444" lon="5.45569">
        <ele>1559.4</ele>
        <time>2022-06-07T11:55:22Z</time>
      </trkpt>
      <trkpt lat="44.7444" lon="5.45561">
        <ele>1557.95</ele>
        <time>2022-06-07T11:55:30Z</time>
      </trkpt>
      <trkpt lat="44.74436" lon="5.4555">
        <ele>1553.15</ele>
        <time>2022-06-07T11:55:45Z</time>
      </trkpt>
      <trkpt lat="44.74432" lon="5.4554">
        <ele>1550.26</ele>
        <time>2022-06-07T11:55:57Z</time>
      </trkpt>
      <trkpt lat="44.74427" lon="5.45531">
        <ele>1546.42</ele>
        <time>2022-06-07T11:56:08Z</time>
      </trkpt>
      <trkpt lat="44.74419" lon="5.45523">
        <ele>1543.05</ele>
        <time>2022-06-07T11:56:21Z</time>
      </trkpt>
      <trkpt lat="44.74419" lon="5.45521">
        <ele>1543.05</ele>
        <time>2022-06-07T11:56:23Z</time>
      </trkpt>
      <trkpt lat="44.74414" lon="5.45512">
        <ele>1539.21</ele>
        <time>2022-06-07T11:56:33Z</time>
      </trkpt>
      <trkpt lat="44.74407" lon="5.45501">
        <ele>1535.84</ele>
        <time>2022-06-07T11:56:44Z</time>
      </trkpt>
      <trkpt lat="44.74402" lon="5.45495">
        <ele>1534.4</ele>
        <time>2022-06-07T11:56:50Z</time>
      </trkpt>
      <trkpt lat="44.74387" lon="5.45492">
        <ele>1531.04</ele>
        <time>2022-06-07T11:57:04Z</time>
      </trkpt>
      <trkpt lat="44.74376" lon="5.45495">
        <ele>1530.08</ele>
        <time>2022-06-07T11:57:19Z</time>
      </trkpt>
      <trkpt lat="44.74377" lon="5.45496">
        <ele>1528.63</ele>
        <time>2022-06-07T12:05:39Z</time>
      </trkpt>
      <trkpt lat="44.74378" lon="5.45497">
        <ele>1528.15</ele>
        <time>2022-06-07T12:05:56Z</time>
      </trkpt>
      <trkpt lat="44.74377" lon="5.45502">
        <ele>1527.67</ele>
        <time>2022-06-07T12:06:15Z</time>
      </trkpt>
      <trkpt lat="44.74375" lon="5.45509">
        <ele>1525.27</ele>
        <time>2022-06-07T12:06:30Z</time>
      </trkpt>
      <trkpt lat="44.74377" lon="5.45518">
        <ele>1522.39</ele>
        <time>2022-06-07T12:06:42Z</time>
      </trkpt>
      <trkpt lat="44.74379" lon="5.45521">
        <ele>1521.9</ele>
        <time>2022-06-07T12:06:59Z</time>
      </trkpt>
      <trkpt lat="44.74377" lon="5.45531">
        <ele>1518.54</ele>
        <time>2022-06-07T12:07:13Z</time>
      </trkpt>
      <trkpt lat="44.74377" lon="5.45533">
        <ele>1518.54</ele>
        <time>2022-06-07T12:07:15Z</time>
      </trkpt>
      <trkpt lat="44.74378" lon="5.45539">
        <ele>1517.1</ele>
        <time>2022-06-07T12:07:20Z</time>
      </trkpt>
      <trkpt lat="44.74376" lon="5.45551">
        <ele>1516.14</ele>
        <time>2022-06-07T12:07:28Z</time>
      </trkpt>
      <trkpt lat="44.74371" lon="5.45564">
        <ele>1516.14</ele>
        <time>2022-06-07T12:07:45Z</time>
      </trkpt>
      <trkpt lat="44.74368" lon="5.45571">
        <ele>1516.14</ele>
        <time>2022-06-07T12:08:01Z</time>
      </trkpt>
      <trkpt lat="44.74367" lon="5.45573">
        <ele>1516.14</ele>
        <time>2022-06-07T12:08:20Z</time>
      </trkpt>
      <trkpt lat="44.74362" lon="5.45584">
        <ele>1517.1</ele>
        <time>2022-06-07T12:08:34Z</time>
      </trkpt>
      <trkpt lat="44.74362" lon="5.45584">
        <ele>1517.1</ele>
        <time>2022-06-07T12:08:35Z</time>
      </trkpt>
      <trkpt lat="44.74351" lon="5.45598">
        <ele>1516.14</ele>
        <time>2022-06-07T12:08:51Z</time>
      </trkpt>
      <trkpt lat="44.74343" lon="5.45606">
        <ele>1515.18</ele>
        <time>2022-06-07T12:09:02Z</time>
      </trkpt>
      <trkpt lat="44.74339" lon="5.45608">
        <ele>1514.69</ele>
        <time>2022-06-07T12:09:06Z</time>
      </trkpt>
      <trkpt lat="44.74331" lon="5.45612">
        <ele>1513.25</ele>
        <time>2022-06-07T12:09:14Z</time>
      </trkpt>
      <trkpt lat="44.74324" lon="5.45623">
        <ele>1510.85</ele>
        <time>2022-06-07T12:09:25Z</time>
      </trkpt>
      <trkpt lat="44.74317" lon="5.45631">
        <ele>1509.89</ele>
        <time>2022-06-07T12:09:41Z</time>
      </trkpt>
      <trkpt lat="44.74312" lon="5.45634">
        <ele>1508.93</ele>
        <time>2022-06-07T12:09:48Z</time>
      </trkpt>
      <trkpt lat="44.74309" lon="5.45644">
        <ele>1508.45</ele>
        <time>2022-06-07T12:09:57Z</time>
      </trkpt>
      <trkpt lat="44.74296" lon="5.45652">
        <ele>1506.04</ele>
        <time>2022-06-07T12:10:10Z</time>
      </trkpt>
      <trkpt lat="44.74293" lon="5.45667">
        <ele>1504.6</ele>
        <time>2022-06-07T12:10:25Z</time>
      </trkpt>
      <trkpt lat="44.74289" lon="5.45671">
        <ele>1504.12</ele>
        <time>2022-06-07T12:10:30Z</time>
      </trkpt>
      <trkpt lat="44.74288" lon="5.45671">
        <ele>1504.12</ele>
        <time>2022-06-07T12:10:32Z</time>
      </trkpt>
      <trkpt lat="44.74284" lon="5.45684">
        <ele>1503.64</ele>
        <time>2022-06-07T12:10:47Z</time>
      </trkpt>
      <trkpt lat="44.74279" lon="5.45691">
        <ele>1502.2</ele>
        <time>2022-06-07T12:11:00Z</time>
      </trkpt>
      <trkpt lat="44.74276" lon="5.45689">
        <ele>1501.24</ele>
        <time>2022-06-07T12:11:17Z</time>
      </trkpt>
      <trkpt lat="44.74273" lon="5.45688">
        <ele>1500.76</ele>
        <time>2022-06-07T12:12:01Z</time>
      </trkpt>
      <trkpt lat="44.7427" lon="5.45685">
        <ele>1499.79</ele>
        <time>2022-06-07T12:12:04Z</time>
      </trkpt>
      <trkpt lat="44.74255" lon="5.45683">
        <ele>1495.95</ele>
        <time>2022-06-07T12:12:21Z</time>
      </trkpt>
      <trkpt lat="44.74249" lon="5.45704">
        <ele>1494.99</ele>
        <time>2022-06-07T12:12:26Z</time>
      </trkpt>
      <trkpt lat="44.74239" lon="5.45716">
        <ele>1494.03</ele>
        <time>2022-06-07T12:12:41Z</time>
      </trkpt>
      <trkpt lat="44.74229" lon="5.45729">
        <ele>1489.22</ele>
        <time>2022-06-07T12:14:39Z</time>
      </trkpt>
      <trkpt lat="44.74227" lon="5.45731">
        <ele>1489.22</ele>
        <time>2022-06-07T12:14:43Z</time>
      </trkpt>
      <trkpt lat="44.74216" lon="5.45742">
        <ele>1489.22</ele>
        <time>2022-06-07T12:14:56Z</time>
      </trkpt>
      <trkpt lat="44.74212" lon="5.45745">
        <ele>1488.74</ele>
        <time>2022-06-07T12:15:01Z</time>
      </trkpt>
      <trkpt lat="44.742" lon="5.45755">
        <ele>1486.34</ele>
        <time>2022-06-07T12:15:15Z</time>
      </trkpt>
      <trkpt lat="44.74195" lon="5.45759">
        <ele>1485.85</ele>
        <time>2022-06-07T12:15:24Z</time>
      </trkpt>
      <trkpt lat="44.74189" lon="5.45755">
        <ele>1485.37</ele>
        <time>2022-06-07T12:15:33Z</time>
      </trkpt>
      <trkpt lat="44.74187" lon="5.45756">
        <ele>1484.89</ele>
        <time>2022-06-07T12:15:35Z</time>
      </trkpt>
      <trkpt lat="44.7418" lon="5.45757">
        <ele>1483.93</ele>
        <time>2022-06-07T12:15:42Z</time>
      </trkpt>
      <trkpt lat="44.74167" lon="5.45762">
        <ele>1483.45</ele>
        <time>2022-06-07T12:15:54Z</time>
      </trkpt>
      <trkpt lat="44.74165" lon="5.45762">
        <ele>1483.45</ele>
        <time>2022-06-07T12:15:56Z</time>
      </trkpt>
      <trkpt lat="44.74158" lon="5.45762">
        <ele>1483.45</ele>
        <time>2022-06-07T12:16:04Z</time>
      </trkpt>
      <trkpt lat="44.74144" lon="5.45753">
        <ele>1481.53</ele>
        <time>2022-06-07T12:16:17Z</time>
      </trkpt>
      <trkpt lat="44.74143" lon="5.45752">
        <ele>1481.05</ele>
        <time>2022-06-07T12:16:18Z</time>
      </trkpt>
      <trkpt lat="44.74141" lon="5.4575">
        <ele>1481.05</ele>
        <time>2022-06-07T12:16:21Z</time>
      </trkpt>
      <trkpt lat="44.74136" lon="5.45744">
        <ele>1480.09</ele>
        <time>2022-06-07T12:16:28Z</time>
      </trkpt>
      <trkpt lat="44.74128" lon="5.45736">
        <ele>1478.65</ele>
        <time>2022-06-07T12:16:37Z</time>
      </trkpt>
      <trkpt lat="44.74122" lon="5.45725">
        <ele>1477.68</ele>
        <time>2022-06-07T12:16:50Z</time>
      </trkpt>
      <trkpt lat="44.7412" lon="5.45697">
        <ele>1477.2</ele>
        <time>2022-06-07T12:17:10Z</time>
      </trkpt>
      <trkpt lat="44.74117" lon="5.45703">
        <ele>1477.2</ele>
        <time>2022-06-07T12:17:11Z</time>
      </trkpt>
      <trkpt lat="44.74105" lon="5.45729">
        <ele>1477.2</ele>
        <time>2022-06-07T12:17:17Z</time>
      </trkpt>
      <trkpt lat="44.74096" lon="5.45736">
        <ele>1476.24</ele>
        <time>2022-06-07T12:17:23Z</time>
      </trkpt>
      <trkpt lat="44.74092" lon="5.45743">
        <ele>1475.28</ele>
        <time>2022-06-07T12:17:32Z</time>
      </trkpt>
      <trkpt lat="44.74079" lon="5.45756">
        <ele>1475.76</ele>
        <time>2022-06-07T12:17:48Z</time>
      </trkpt>
      <trkpt lat="44.74067" lon="5.45759">
        <ele>1473.84</ele>
        <time>2022-06-07T12:17:59Z</time>
      </trkpt>
      <trkpt lat="44.74058" lon="5.45761">
        <ele>1473.36</ele>
        <time>2022-06-07T12:18:10Z</time>
      </trkpt>
      <trkpt lat="44.74046" lon="5.45761">
        <ele>1471.44</ele>
        <time>2022-06-07T12:18:21Z</time>
      </trkpt>
      <trkpt lat="44.74041" lon="5.45758">
        <ele>1469.51</ele>
        <time>2022-06-07T12:18:25Z</time>
      </trkpt>
      <trkpt lat="44.7403" lon="5.45752">
        <ele>1469.51</ele>
        <time>2022-06-07T12:18:35Z</time>
      </trkpt>
      <trkpt lat="44.74021" lon="5.45749">
        <ele>1469.51</ele>
        <time>2022-06-07T12:18:46Z</time>
      </trkpt>
      <trkpt lat="44.74007" lon="5.45742">
        <ele>1468.55</ele>
        <time>2022-06-07T12:18:59Z</time>
      </trkpt>
      <trkpt lat="44.7399" lon="5.45742">
        <ele>1470.47</ele>
        <time>2022-06-07T12:19:11Z</time>
      </trkpt>
      <trkpt lat="44.73986" lon="5.45747">
        <ele>1469.03</ele>
        <time>2022-06-07T12:19:17Z</time>
      </trkpt>
      <trkpt lat="44.73981" lon="5.45756">
        <ele>1467.59</ele>
        <time>2022-06-07T12:19:31Z</time>
      </trkpt>
      <trkpt lat="44.73974" lon="5.45764">
        <ele>1464.23</ele>
        <time>2022-06-07T12:19:44Z</time>
      </trkpt>
      <trkpt lat="44.73968" lon="5.45778">
        <ele>1460.86</ele>
        <time>2022-06-07T12:19:56Z</time>
      </trkpt>
      <trkpt lat="44.73961" lon="5.45785">
        <ele>1457.5</ele>
        <time>2022-06-07T12:20:07Z</time>
      </trkpt>
      <trkpt lat="44.73951" lon="5.45794">
        <ele>1454.61</ele>
        <time>2022-06-07T12:20:21Z</time>
      </trkpt>
      <trkpt lat="44.7394" lon="5.45808">
        <ele>1452.69</ele>
        <time>2022-06-07T12:20:37Z</time>
      </trkpt>
      <trkpt lat="44.73936" lon="5.45815">
        <ele>1453.65</ele>
        <time>2022-06-07T12:20:47Z</time>
      </trkpt>
      <trkpt lat="44.73933" lon="5.45819">
        <ele>1452.21</ele>
        <time>2022-06-07T12:20:50Z</time>
      </trkpt>
      <trkpt lat="44.73925" lon="5.45829">
        <ele>1451.73</ele>
        <time>2022-06-07T12:21:02Z</time>
      </trkpt>
      <trkpt lat="44.73918" lon="5.45839">
        <ele>1454.61</ele>
        <time>2022-06-07T12:21:16Z</time>
      </trkpt>
      <trkpt lat="44.73915" lon="5.45849">
        <ele>1455.57</ele>
        <time>2022-06-07T12:21:26Z</time>
      </trkpt>
      <trkpt lat="44.7391" lon="5.4586">
        <ele>1455.57</ele>
        <time>2022-06-07T12:21:39Z</time>
      </trkpt>
      <trkpt lat="44.73907" lon="5.45857">
        <ele>1456.05</ele>
        <time>2022-06-07T12:21:58Z</time>
      </trkpt>
      <trkpt lat="44.73907" lon="5.45856">
        <ele>1455.57</ele>
        <time>2022-06-07T12:22:19Z</time>
      </trkpt>
      <trkpt lat="44.73904" lon="5.45858">
        <ele>1455.57</ele>
        <time>2022-06-07T12:22:43Z</time>
      </trkpt>
      <trkpt lat="44.73901" lon="5.45859">
        <ele>1454.61</ele>
        <time>2022-06-07T12:22:47Z</time>
      </trkpt>
      <trkpt lat="44.73893" lon="5.45864">
        <ele>1452.69</ele>
        <time>2022-06-07T12:23:00Z</time>
      </trkpt>
      <trkpt lat="44.73879" lon="5.4586">
        <ele>1449.81</ele>
        <time>2022-06-07T12:23:15Z</time>
      </trkpt>
      <trkpt lat="44.73865" lon="5.45853">
        <ele>1447.4</ele>
        <time>2022-06-07T12:23:29Z</time>
      </trkpt>
      <trkpt lat="44.73853" lon="5.45853">
        <ele>1448.36</ele>
        <time>2022-06-07T12:23:42Z</time>
      </trkpt>
      <trkpt lat="44.73845" lon="5.45855">
        <ele>1447.4</ele>
        <time>2022-06-07T12:23:51Z</time>
      </trkpt>
      <trkpt lat="44.7384" lon="5.45856">
        <ele>1445.48</ele>
        <time>2022-06-07T12:23:57Z</time>
      </trkpt>
      <trkpt lat="44.7382" lon="5.45855">
        <ele>1441.63</ele>
        <time>2022-06-07T12:24:12Z</time>
      </trkpt>
      <trkpt lat="44.73812" lon="5.4585">
        <ele>1438.75</ele>
        <time>2022-06-07T12:24:24Z</time>
      </trkpt>
      <trkpt lat="44.7381" lon="5.45847">
        <ele>1437.31</ele>
        <time>2022-06-07T12:24:28Z</time>
      </trkpt>
      <trkpt lat="44.73808" lon="5.45845">
        <ele>1436.83</ele>
        <time>2022-06-07T12:24:30Z</time>
      </trkpt>
      <trkpt lat="44.73793" lon="5.45838">
        <ele>1434.91</ele>
        <time>2022-06-07T12:24:43Z</time>
      </trkpt>
      <trkpt lat="44.73782" lon="5.45843">
        <ele>1432.98</ele>
        <time>2022-06-07T12:24:57Z</time>
      </trkpt>
      <trkpt lat="44.73774" lon="5.45851">
        <ele>1432.5</ele>
        <time>2022-06-07T12:25:08Z</time>
      </trkpt>
      <trkpt lat="44.73762" lon="5.45867">
        <ele>1432.02</ele>
        <time>2022-06-07T12:25:22Z</time>
      </trkpt>
      <trkpt lat="44.73759" lon="5.45871">
        <ele>1434.91</ele>
        <time>2022-06-07T12:25:26Z</time>
      </trkpt>
      <trkpt lat="44.73747" lon="5.45884">
        <ele>1435.39</ele>
        <time>2022-06-07T12:25:42Z</time>
      </trkpt>
      <trkpt lat="44.73742" lon="5.45885">
        <ele>1433.94</ele>
        <time>2022-06-07T12:25:47Z</time>
      </trkpt>
      <trkpt lat="44.73733" lon="5.45889">
        <ele>1433.46</ele>
        <time>2022-06-07T12:26:01Z</time>
      </trkpt>
      <trkpt lat="44.73724" lon="5.45886">
        <ele>1431.06</ele>
        <time>2022-06-07T12:26:12Z</time>
      </trkpt>
      <trkpt lat="44.73715" lon="5.45885">
        <ele>1428.18</ele>
        <time>2022-06-07T12:26:20Z</time>
      </trkpt>
      <trkpt lat="44.73708" lon="5.45887">
        <ele>1426.25</ele>
        <time>2022-06-07T12:26:27Z</time>
      </trkpt>
      <trkpt lat="44.737" lon="5.45886">
        <ele>1424.81</ele>
        <time>2022-06-07T12:26:41Z</time>
      </trkpt>
      <trkpt lat="44.7369" lon="5.45887">
        <ele>1423.85</ele>
        <time>2022-06-07T12:26:57Z</time>
      </trkpt>
      <trkpt lat="44.73679" lon="5.45885">
        <ele>1420.97</ele>
        <time>2022-06-07T12:27:11Z</time>
      </trkpt>
      <trkpt lat="44.73676" lon="5.45878">
        <ele>1417.6</ele>
        <time>2022-06-07T12:27:23Z</time>
      </trkpt>
      <trkpt lat="44.73675" lon="5.45877">
        <ele>1416.64</ele>
        <time>2022-06-07T12:27:25Z</time>
      </trkpt>
      <trkpt lat="44.73672" lon="5.45874">
        <ele>1415.68</ele>
        <time>2022-06-07T12:27:28Z</time>
      </trkpt>
      <trkpt lat="44.73663" lon="5.45865">
        <ele>1412.31</ele>
        <time>2022-06-07T12:27:38Z</time>
      </trkpt>
      <trkpt lat="44.73656" lon="5.45858">
        <ele>1408.95</ele>
        <time>2022-06-07T12:27:47Z</time>
      </trkpt>
      <trkpt lat="44.73648" lon="5.45851">
        <ele>1407.03</ele>
        <time>2022-06-07T12:27:59Z</time>
      </trkpt>
      <trkpt lat="44.73644" lon="5.45848">
        <ele>1406.55</ele>
        <time>2022-06-07T12:28:18Z</time>
      </trkpt>
      <trkpt lat="44.73638" lon="5.45842">
        <ele>1407.03</ele>
        <time>2022-06-07T12:29:59Z</time>
      </trkpt>
      <trkpt lat="44.73628" lon="5.45836">
        <ele>1406.07</ele>
        <time>2022-06-07T12:30:14Z</time>
      </trkpt>
      <trkpt lat="44.73617" lon="5.45836">
        <ele>1406.07</ele>
        <time>2022-06-07T12:30:28Z</time>
      </trkpt>
      <trkpt lat="44.73611" lon="5.45832">
        <ele>1407.03</ele>
        <time>2022-06-07T12:30:43Z</time>
      </trkpt>
      <trkpt lat="44.73609" lon="5.45828">
        <ele>1407.03</ele>
        <time>2022-06-07T12:31:02Z</time>
      </trkpt>
      <trkpt lat="44.73604" lon="5.45826">
        <ele>1407.03</ele>
        <time>2022-06-07T12:31:21Z</time>
      </trkpt>
      <trkpt lat="44.73599" lon="5.4582">
        <ele>1405.1</ele>
        <time>2022-06-07T12:31:55Z</time>
      </trkpt>
      <trkpt lat="44.73588" lon="5.45816">
        <ele>1402.7</ele>
        <time>2022-06-07T12:32:11Z</time>
      </trkpt>
      <trkpt lat="44.73581" lon="5.45814">
        <ele>1401.74</ele>
        <time>2022-06-07T12:32:19Z</time>
      </trkpt>
      <trkpt lat="44.73571" lon="5.45806">
        <ele>1402.22</ele>
        <time>2022-06-07T12:32:31Z</time>
      </trkpt>
      <trkpt lat="44.73559" lon="5.45794">
        <ele>1402.7</ele>
        <time>2022-06-07T12:32:45Z</time>
      </trkpt>
      <trkpt lat="44.73556" lon="5.45791">
        <ele>1401.26</ele>
        <time>2022-06-07T12:32:48Z</time>
      </trkpt>
      <trkpt lat="44.73553" lon="5.45787">
        <ele>1401.26</ele>
        <time>2022-06-07T12:32:52Z</time>
      </trkpt>
      <trkpt lat="44.73547" lon="5.4578">
        <ele>1400.3</ele>
        <time>2022-06-07T12:32:59Z</time>
      </trkpt>
      <trkpt lat="44.73536" lon="5.45762">
        <ele>1397.41</ele>
        <time>2022-06-07T12:33:14Z</time>
      </trkpt>
      <trkpt lat="44.73527" lon="5.45747">
        <ele>1395.01</ele>
        <time>2022-06-07T12:33:28Z</time>
      </trkpt>
      <trkpt lat="44.7352" lon="5.45733">
        <ele>1393.09</ele>
        <time>2022-06-07T12:33:40Z</time>
      </trkpt>
      <trkpt lat="44.73514" lon="5.45719">
        <ele>1391.17</ele>
        <time>2022-06-07T12:33:54Z</time>
      </trkpt>
      <trkpt lat="44.73513" lon="5.45714">
        <ele>1389.24</ele>
        <time>2022-06-07T12:33:57Z</time>
      </trkpt>
      <trkpt lat="44.73511" lon="5.45707">
        <ele>1387.32</ele>
        <time>2022-06-07T12:34:01Z</time>
      </trkpt>
      <trkpt lat="44.73506" lon="5.45693">
        <ele>1383.96</ele>
        <time>2022-06-07T12:34:11Z</time>
      </trkpt>
      <trkpt lat="44.73495" lon="5.45676">
        <ele>1380.59</ele>
        <time>2022-06-07T12:34:25Z</time>
      </trkpt>
      <trkpt lat="44.73486" lon="5.45666">
        <ele>1377.71</ele>
        <time>2022-06-07T12:34:34Z</time>
      </trkpt>
      <trkpt lat="44.73472" lon="5.45664">
        <ele>1373.86</ele>
        <time>2022-06-07T12:34:47Z</time>
      </trkpt>
      <trkpt lat="44.73464" lon="5.45667">
        <ele>1370.98</ele>
        <time>2022-06-07T12:34:58Z</time>
      </trkpt>
      <trkpt lat="44.73464" lon="5.45653">
        <ele>1367.13</ele>
        <time>2022-06-07T12:35:11Z</time>
      </trkpt>
      <trkpt lat="44.73463" lon="5.45643">
        <ele>1363.77</ele>
        <time>2022-06-07T12:35:21Z</time>
      </trkpt>
      <trkpt lat="44.73461" lon="5.45636">
        <ele>1360.4</ele>
        <time>2022-06-07T12:35:31Z</time>
      </trkpt>
      <trkpt lat="44.73453" lon="5.45632">
        <ele>1357.04</ele>
        <time>2022-06-07T12:35:44Z</time>
      </trkpt>
      <trkpt lat="44.73449" lon="5.45627">
        <ele>1354.15</ele>
        <time>2022-06-07T12:35:53Z</time>
      </trkpt>
      <trkpt lat="44.7344" lon="5.45627">
        <ele>1350.79</ele>
        <time>2022-06-07T12:36:05Z</time>
      </trkpt>
      <trkpt lat="44.73439" lon="5.45619">
        <ele>1347.43</ele>
        <time>2022-06-07T12:36:14Z</time>
      </trkpt>
      <trkpt lat="44.73437" lon="5.45606">
        <ele>1344.06</ele>
        <time>2022-06-07T12:36:25Z</time>
      </trkpt>
      <trkpt lat="44.7343" lon="5.45599">
        <ele>1340.22</ele>
        <time>2022-06-07T12:36:37Z</time>
      </trkpt>
      <trkpt lat="44.73428" lon="5.45591">
        <ele>1337.33</ele>
        <time>2022-06-07T12:36:49Z</time>
      </trkpt>
      <trkpt lat="44.73421" lon="5.45587">
        <ele>1333.97</ele>
        <time>2022-06-07T12:36:59Z</time>
      </trkpt>
      <trkpt lat="44.73414" lon="5.45585">
        <ele>1330.12</ele>
        <time>2022-06-07T12:37:10Z</time>
      </trkpt>
      <trkpt lat="44.73411" lon="5.45576">
        <ele>1327.24</ele>
        <time>2022-06-07T12:37:21Z</time>
      </trkpt>
      <trkpt lat="44.73407" lon="5.45569">
        <ele>1324.35</ele>
        <time>2022-06-07T12:37:31Z</time>
      </trkpt>
      <trkpt lat="44.73407" lon="5.45566">
        <ele>1322.91</ele>
        <time>2022-06-07T12:37:35Z</time>
      </trkpt>
      <trkpt lat="44.7341" lon="5.45555">
        <ele>1319.55</ele>
        <time>2022-06-07T12:37:47Z</time>
      </trkpt>
      <trkpt lat="44.73411" lon="5.45548">
        <ele>1316.66</ele>
        <time>2022-06-07T12:37:59Z</time>
      </trkpt>
      <trkpt lat="44.73413" lon="5.45545">
        <ele>1315.22</ele>
        <time>2022-06-07T12:38:17Z</time>
      </trkpt>
      <trkpt lat="44.73414" lon="5.4554">
        <ele>1315.22</ele>
        <time>2022-06-07T12:38:41Z</time>
      </trkpt>
      <trkpt lat="44.73414" lon="5.45533">
        <ele>1312.82</ele>
        <time>2022-06-07T12:38:56Z</time>
      </trkpt>
      <trkpt lat="44.73406" lon="5.45526">
        <ele>1309.45</ele>
        <time>2022-06-07T12:39:09Z</time>
      </trkpt>
      <trkpt lat="44.73405" lon="5.45521">
        <ele>1308.01</ele>
        <time>2022-06-07T12:39:14Z</time>
      </trkpt>
      <trkpt lat="44.73398" lon="5.45515">
        <ele>1304.65</ele>
        <time>2022-06-07T12:39:25Z</time>
      </trkpt>
      <trkpt lat="44.7339" lon="5.45516">
        <ele>1301.76</ele>
        <time>2022-06-07T12:39:35Z</time>
      </trkpt>
      <trkpt lat="44.73389" lon="5.45509">
        <ele>1300.8</ele>
        <time>2022-06-07T12:39:40Z</time>
      </trkpt>
      <trkpt lat="44.73389" lon="5.45497">
        <ele>1298.4</ele>
        <time>2022-06-07T12:39:48Z</time>
      </trkpt>
      <trkpt lat="44.73393" lon="5.45488">
        <ele>1295.03</ele>
        <time>2022-06-07T12:39:58Z</time>
      </trkpt>
      <trkpt lat="44.73388" lon="5.45477">
        <ele>1292.15</ele>
        <time>2022-06-07T12:40:09Z</time>
      </trkpt>
      <trkpt lat="44.73386" lon="5.45466">
        <ele>1288.78</ele>
        <time>2022-06-07T12:40:20Z</time>
      </trkpt>
      <trkpt lat="44.73386" lon="5.45455">
        <ele>1285.9</ele>
        <time>2022-06-07T12:40:33Z</time>
      </trkpt>
      <trkpt lat="44.73382" lon="5.4544">
        <ele>1283.02</ele>
        <time>2022-06-07T12:40:45Z</time>
      </trkpt>
      <trkpt lat="44.73378" lon="5.45436">
        <ele>1281.57</ele>
        <time>2022-06-07T12:40:50Z</time>
      </trkpt>
      <trkpt lat="44.73372" lon="5.45417">
        <ele>1277.73</ele>
        <time>2022-06-07T12:41:02Z</time>
      </trkpt>
      <trkpt lat="44.73375" lon="5.45402">
        <ele>1274.85</ele>
        <time>2022-06-07T12:41:16Z</time>
      </trkpt>
      <trkpt lat="44.73373" lon="5.454">
        <ele>1274.85</ele>
        <time>2022-06-07T12:41:18Z</time>
      </trkpt>
      <trkpt lat="44.73362" lon="5.4539">
        <ele>1271.96</ele>
        <time>2022-06-07T12:41:32Z</time>
      </trkpt>
      <trkpt lat="44.73363" lon="5.45378">
        <ele>1269.08</ele>
        <time>2022-06-07T12:41:45Z</time>
      </trkpt>
      <trkpt lat="44.73368" lon="5.45367">
        <ele>1265.71</ele>
        <time>2022-06-07T12:41:59Z</time>
      </trkpt>
      <trkpt lat="44.73367" lon="5.45364">
        <ele>1265.23</ele>
        <time>2022-06-07T12:42:03Z</time>
      </trkpt>
      <trkpt lat="44.73366" lon="5.45354">
        <ele>1261.39</ele>
        <time>2022-06-07T12:42:16Z</time>
      </trkpt>
      <trkpt lat="44.73366" lon="5.45343">
        <ele>1258.5</ele>
        <time>2022-06-07T12:42:27Z</time>
      </trkpt>
      <trkpt lat="44.73366" lon="5.45342">
        <ele>1258.02</ele>
        <time>2022-06-07T12:42:29Z</time>
      </trkpt>
      <trkpt lat="44.73364" lon="5.45331">
        <ele>1254.66</ele>
        <time>2022-06-07T12:42:39Z</time>
      </trkpt>
      <trkpt lat="44.7337" lon="5.45327">
        <ele>1251.77</ele>
        <time>2022-06-07T12:42:50Z</time>
      </trkpt>
      <trkpt lat="44.73374" lon="5.45317">
        <ele>1248.41</ele>
        <time>2022-06-07T12:43:01Z</time>
      </trkpt>
      <trkpt lat="44.73373" lon="5.45307">
        <ele>1245.53</ele>
        <time>2022-06-07T12:43:10Z</time>
      </trkpt>
      <trkpt lat="44.73368" lon="5.45298">
        <ele>1242.16</ele>
        <time>2022-06-07T12:43:20Z</time>
      </trkpt>
      <trkpt lat="44.73363" lon="5.45291">
        <ele>1241.2</ele>
        <time>2022-06-07T12:43:26Z</time>
      </trkpt>
      <trkpt lat="44.73354" lon="5.45268">
        <ele>1237.83</ele>
        <time>2022-06-07T12:43:39Z</time>
      </trkpt>
      <trkpt lat="44.73351" lon="5.45262">
        <ele>1236.87</ele>
        <time>2022-06-07T12:43:43Z</time>
      </trkpt>
      <trkpt lat="44.73351" lon="5.45241">
        <ele>1233.51</ele>
        <time>2022-06-07T12:43:59Z</time>
      </trkpt>
      <trkpt lat="44.73352" lon="5.45242">
        <ele>1233.03</ele>
        <time>2022-06-07T12:44:01Z</time>
      </trkpt>
      <trkpt lat="44.73354" lon="5.45242">
        <ele>1232.55</ele>
        <time>2022-06-07T12:44:03Z</time>
      </trkpt>
      <trkpt lat="44.73362" lon="5.45248">
        <ele>1228.7</ele>
        <time>2022-06-07T12:44:15Z</time>
      </trkpt>
      <trkpt lat="44.73363" lon="5.45248">
        <ele>1228.7</ele>
        <time>2022-06-07T12:44:16Z</time>
      </trkpt>
      <trkpt lat="44.73368" lon="5.45252">
        <ele>1228.22</ele>
        <time>2022-06-07T12:44:21Z</time>
      </trkpt>
      <trkpt lat="44.73375" lon="5.4525">
        <ele>1224.86</ele>
        <time>2022-06-07T12:44:33Z</time>
      </trkpt>
      <trkpt lat="44.73372" lon="5.45244">
        <ele>1224.38</ele>
        <time>2022-06-07T12:44:39Z</time>
      </trkpt>
      <trkpt lat="44.73367" lon="5.45228">
        <ele>1221.01</ele>
        <time>2022-06-07T12:44:52Z</time>
      </trkpt>
      <trkpt lat="44.73365" lon="5.45217">
        <ele>1217.65</ele>
        <time>2022-06-07T12:45:02Z</time>
      </trkpt>
      <trkpt lat="44.73363" lon="5.45204">
        <ele>1214.28</ele>
        <time>2022-06-07T12:45:13Z</time>
      </trkpt>
      <trkpt lat="44.73362" lon="5.45195">
        <ele>1210.44</ele>
        <time>2022-06-07T12:45:24Z</time>
      </trkpt>
      <trkpt lat="44.73357" lon="5.45181">
        <ele>1207.55</ele>
        <time>2022-06-07T12:45:36Z</time>
      </trkpt>
      <trkpt lat="44.73347" lon="5.45162">
        <ele>1203.71</ele>
        <time>2022-06-07T12:45:50Z</time>
      </trkpt>
      <trkpt lat="44.73341" lon="5.45143">
        <ele>1201.3</ele>
        <time>2022-06-07T12:46:06Z</time>
      </trkpt>
      <trkpt lat="44.73338" lon="5.45139">
        <ele>1201.3</ele>
        <time>2022-06-07T12:46:25Z</time>
      </trkpt>
      <trkpt lat="44.73335" lon="5.45133">
        <ele>1201.3</ele>
        <time>2022-06-07T12:46:40Z</time>
      </trkpt>
      <trkpt lat="44.73335" lon="5.45134">
        <ele>1201.3</ele>
        <time>2022-06-07T12:46:59Z</time>
      </trkpt>
      <trkpt lat="44.7334" lon="5.45133">
        <ele>1201.3</ele>
        <time>2022-06-07T12:47:16Z</time>
      </trkpt>
      <trkpt lat="44.73346" lon="5.45124">
        <ele>1197.94</ele>
        <time>2022-06-07T12:47:28Z</time>
      </trkpt>
      <trkpt lat="44.73353" lon="5.4513">
        <ele>1194.58</ele>
        <time>2022-06-07T12:47:41Z</time>
      </trkpt>
      <trkpt lat="44.73355" lon="5.45133">
        <ele>1194.09</ele>
        <time>2022-06-07T12:47:44Z</time>
      </trkpt>
      <trkpt lat="44.73359" lon="5.45131">
        <ele>1191.21</ele>
        <time>2022-06-07T12:47:57Z</time>
      </trkpt>
      <trkpt lat="44.7336" lon="5.45125">
        <ele>1189.29</ele>
        <time>2022-06-07T12:48:17Z</time>
      </trkpt>
      <trkpt lat="44.73363" lon="5.45114">
        <ele>1186.88</ele>
        <time>2022-06-07T12:48:31Z</time>
      </trkpt>
      <trkpt lat="44.73363" lon="5.45111">
        <ele>1184.96</ele>
        <time>2022-06-07T12:48:34Z</time>
      </trkpt>
      <trkpt lat="44.73363" lon="5.45097">
        <ele>1182.08</ele>
        <time>2022-06-07T12:48:45Z</time>
      </trkpt>
      <trkpt lat="44.73362" lon="5.45092">
        <ele>1179.67</ele>
        <time>2022-06-07T12:48:50Z</time>
      </trkpt>
      <trkpt lat="44.73361" lon="5.45085">
        <ele>1177.27</ele>
        <time>2022-06-07T12:48:57Z</time>
      </trkpt>
      <trkpt lat="44.73359" lon="5.4508">
        <ele>1175.83</ele>
        <time>2022-06-07T12:49:01Z</time>
      </trkpt>
      <trkpt lat="44.73354" lon="5.45065">
        <ele>1171.98</ele>
        <time>2022-06-07T12:49:12Z</time>
      </trkpt>
      <trkpt lat="44.73348" lon="5.45051">
        <ele>1168.62</ele>
        <time>2022-06-07T12:49:24Z</time>
      </trkpt>
      <trkpt lat="44.73344" lon="5.45045">
        <ele>1167.66</ele>
        <time>2022-06-07T12:49:30Z</time>
      </trkpt>
      <trkpt lat="44.73334" lon="5.45029">
        <ele>1168.14</ele>
        <time>2022-06-07T12:49:45Z</time>
      </trkpt>
      <trkpt lat="44.73319" lon="5.4501">
        <ele>1166.22</ele>
        <time>2022-06-07T12:50:03Z</time>
      </trkpt>
      <trkpt lat="44.7331" lon="5.44998">
        <ele>1162.37</ele>
        <time>2022-06-07T12:50:16Z</time>
      </trkpt>
      <trkpt lat="44.73309" lon="5.44997">
        <ele>1162.37</ele>
        <time>2022-06-07T12:50:17Z</time>
      </trkpt>
      <trkpt lat="44.73311" lon="5.44993">
        <ele>1160.93</ele>
        <time>2022-06-07T12:50:25Z</time>
      </trkpt>
      <trkpt lat="44.73317" lon="5.44992">
        <ele>1158.05</ele>
        <time>2022-06-07T12:50:37Z</time>
      </trkpt>
      <trkpt lat="44.73305" lon="5.44979">
        <ele>1155.16</ele>
        <time>2022-06-07T12:50:53Z</time>
      </trkpt>
      <trkpt lat="44.73299" lon="5.44979">
        <ele>1154.2</ele>
        <time>2022-06-07T12:51:01Z</time>
      </trkpt>
      <trkpt lat="44.7329" lon="5.44981">
        <ele>1151.32</ele>
        <time>2022-06-07T12:51:16Z</time>
      </trkpt>
      <trkpt lat="44.7329" lon="5.44976">
        <ele>1148.43</ele>
        <time>2022-06-07T12:51:27Z</time>
      </trkpt>
      <trkpt lat="44.73286" lon="5.44974">
        <ele>1145.55</ele>
        <time>2022-06-07T12:51:36Z</time>
      </trkpt>
      <trkpt lat="44.73282" lon="5.44972">
        <ele>1142.18</ele>
        <time>2022-06-07T12:51:45Z</time>
      </trkpt>
      <trkpt lat="44.73292" lon="5.44958">
        <ele>1139.3</ele>
        <time>2022-06-07T12:52:01Z</time>
      </trkpt>
      <trkpt lat="44.7329" lon="5.44954">
        <ele>1135.94</ele>
        <time>2022-06-07T12:52:11Z</time>
      </trkpt>
      <trkpt lat="44.73284" lon="5.44953">
        <ele>1133.53</ele>
        <time>2022-06-07T12:52:18Z</time>
      </trkpt>
      <trkpt lat="44.73283" lon="5.44949">
        <ele>1130.65</ele>
        <time>2022-06-07T12:52:31Z</time>
      </trkpt>
      <trkpt lat="44.73287" lon="5.4494">
        <ele>1127.28</ele>
        <time>2022-06-07T12:52:41Z</time>
      </trkpt>
      <trkpt lat="44.73291" lon="5.44927">
        <ele>1123.92</ele>
        <time>2022-06-07T12:52:52Z</time>
      </trkpt>
      <trkpt lat="44.73285" lon="5.44925">
        <ele>1121.52</ele>
        <time>2022-06-07T12:53:06Z</time>
      </trkpt>
      <trkpt lat="44.73285" lon="5.44921">
        <ele>1120.07</ele>
        <time>2022-06-07T12:53:12Z</time>
      </trkpt>
      <trkpt lat="44.73286" lon="5.44913">
        <ele>1117.19</ele>
        <time>2022-06-07T12:53:18Z</time>
      </trkpt>
      <trkpt lat="44.73291" lon="5.44904">
        <ele>1113.82</ele>
        <time>2022-06-07T12:53:28Z</time>
      </trkpt>
      <trkpt lat="44.73292" lon="5.449">
        <ele>1112.38</ele>
        <time>2022-06-07T12:53:31Z</time>
      </trkpt>
      <trkpt lat="44.73303" lon="5.44886">
        <ele>1108.54</ele>
        <time>2022-06-07T12:53:46Z</time>
      </trkpt>
      <trkpt lat="44.73303" lon="5.44885">
        <ele>1108.06</ele>
        <time>2022-06-07T12:53:48Z</time>
      </trkpt>
      <trkpt lat="44.73296" lon="5.44874">
        <ele>1103.73</ele>
        <time>2022-06-07T12:54:00Z</time>
      </trkpt>
      <trkpt lat="44.73292" lon="5.44876">
        <ele>1100.85</ele>
        <time>2022-06-07T12:54:10Z</time>
      </trkpt>
      <trkpt lat="44.73284" lon="5.44877">
        <ele>1097.48</ele>
        <time>2022-06-07T12:54:21Z</time>
      </trkpt>
      <trkpt lat="44.73276" lon="5.44882">
        <ele>1095.08</ele>
        <time>2022-06-07T12:54:30Z</time>
      </trkpt>
      <trkpt lat="44.73265" lon="5.44892">
        <ele>1092.2</ele>
        <time>2022-06-07T12:54:43Z</time>
      </trkpt>
      <trkpt lat="44.73252" lon="5.44892">
        <ele>1088.83</ele>
        <time>2022-06-07T12:54:57Z</time>
      </trkpt>
      <trkpt lat="44.73255" lon="5.44884">
        <ele>1086.91</ele>
        <time>2022-06-07T12:55:07Z</time>
      </trkpt>
      <trkpt lat="44.73258" lon="5.44878">
        <ele>1085.47</ele>
        <time>2022-06-07T12:55:13Z</time>
      </trkpt>
      <trkpt lat="44.73264" lon="5.44863">
        <ele>1081.62</ele>
        <time>2022-06-07T12:55:27Z</time>
      </trkpt>
      <trkpt lat="44.73258" lon="5.44865">
        <ele>1078.26</ele>
        <time>2022-06-07T12:55:38Z</time>
      </trkpt>
      <trkpt lat="44.73252" lon="5.44867">
        <ele>1074.89</ele>
        <time>2022-06-07T12:55:48Z</time>
      </trkpt>
      <trkpt lat="44.73254" lon="5.44857">
        <ele>1072.01</ele>
        <time>2022-06-07T12:55:59Z</time>
      </trkpt>
      <trkpt lat="44.73254" lon="5.44847">
        <ele>1068.64</ele>
        <time>2022-06-07T12:56:12Z</time>
      </trkpt>
      <trkpt lat="44.73256" lon="5.44842">
        <ele>1066.72</ele>
        <time>2022-06-07T12:56:18Z</time>
      </trkpt>
      <trkpt lat="44.73256" lon="5.44842">
        <ele>1066.24</ele>
        <time>2022-06-07T12:56:19Z</time>
      </trkpt>
      <trkpt lat="44.73258" lon="5.44838">
        <ele>1065.28</ele>
        <time>2022-06-07T12:56:22Z</time>
      </trkpt>
      <trkpt lat="44.73264" lon="5.44823">
        <ele>1061.91</ele>
        <time>2022-06-07T12:56:34Z</time>
      </trkpt>
      <trkpt lat="44.73262" lon="5.4482">
        <ele>1059.03</ele>
        <time>2022-06-07T12:56:42Z</time>
      </trkpt>
      <trkpt lat="44.73252" lon="5.44823">
        <ele>1055.67</ele>
        <time>2022-06-07T12:56:57Z</time>
      </trkpt>
      <trkpt lat="44.7325" lon="5.4482">
        <ele>1053.74</ele>
        <time>2022-06-07T12:57:09Z</time>
      </trkpt>
      <trkpt lat="44.7325" lon="5.44814">
        <ele>1051.34</ele>
        <time>2022-06-07T12:57:15Z</time>
      </trkpt>
      <trkpt lat="44.73257" lon="5.44802">
        <ele>1047.97</ele>
        <time>2022-06-07T12:57:23Z</time>
      </trkpt>
      <trkpt lat="44.73266" lon="5.44785">
        <ele>1044.61</ele>
        <time>2022-06-07T12:57:39Z</time>
      </trkpt>
      <trkpt lat="44.7327" lon="5.44775">
        <ele>1041.25</ele>
        <time>2022-06-07T12:57:48Z</time>
      </trkpt>
      <trkpt lat="44.73274" lon="5.44767">
        <ele>1037.88</ele>
        <time>2022-06-07T12:57:56Z</time>
      </trkpt>
      <trkpt lat="44.73282" lon="5.44753">
        <ele>1035</ele>
        <time>2022-06-07T12:58:10Z</time>
      </trkpt>
      <trkpt lat="44.73289" lon="5.44745">
        <ele>1031.63</ele>
        <time>2022-06-07T12:58:20Z</time>
      </trkpt>
      <trkpt lat="44.73292" lon="5.44736">
        <ele>1028.75</ele>
        <time>2022-06-07T12:58:30Z</time>
      </trkpt>
      <trkpt lat="44.73294" lon="5.44729">
        <ele>1026.83</ele>
        <time>2022-06-07T12:58:39Z</time>
      </trkpt>
      <trkpt lat="44.73292" lon="5.44728">
        <ele>1025.86</ele>
        <time>2022-06-07T12:58:41Z</time>
      </trkpt>
      <trkpt lat="44.73285" lon="5.44726">
        <ele>1022.02</ele>
        <time>2022-06-07T12:58:50Z</time>
      </trkpt>
      <trkpt lat="44.73274" lon="5.44725">
        <ele>1018.17</ele>
        <time>2022-06-07T12:59:03Z</time>
      </trkpt>
      <trkpt lat="44.73265" lon="5.44725">
        <ele>1014.81</ele>
        <time>2022-06-07T12:59:13Z</time>
      </trkpt>
      <trkpt lat="44.73258" lon="5.44725">
        <ele>1011.93</ele>
        <time>2022-06-07T12:59:21Z</time>
      </trkpt>
      <trkpt lat="44.73247" lon="5.44727">
        <ele>1008.56</ele>
        <time>2022-06-07T12:59:32Z</time>
      </trkpt>
      <trkpt lat="44.73232" lon="5.44737">
        <ele>1006.16</ele>
        <time>2022-06-07T12:59:48Z</time>
      </trkpt>
      <trkpt lat="44.73224" lon="5.44737">
        <ele>1002.79</ele>
        <time>2022-06-07T12:59:58Z</time>
      </trkpt>
      <trkpt lat="44.73213" lon="5.44739">
        <ele>999.43</ele>
        <time>2022-06-07T13:00:07Z</time>
      </trkpt>
      <trkpt lat="44.73202" lon="5.44743">
        <ele>996.06</ele>
        <time>2022-06-07T13:00:18Z</time>
      </trkpt>
      <trkpt lat="44.732" lon="5.44743">
        <ele>996.06</ele>
        <time>2022-06-07T13:00:19Z</time>
      </trkpt>
      <trkpt lat="44.7319" lon="5.44745">
        <ele>993.18</ele>
        <time>2022-06-07T13:00:30Z</time>
      </trkpt>
      <trkpt lat="44.73187" lon="5.44746">
        <ele>992.7</ele>
        <time>2022-06-07T13:00:32Z</time>
      </trkpt>
      <trkpt lat="44.73185" lon="5.44744">
        <ele>992.7</ele>
        <time>2022-06-07T13:00:34Z</time>
      </trkpt>
      <trkpt lat="44.73187" lon="5.44734">
        <ele>988.85</ele>
        <time>2022-06-07T13:00:45Z</time>
      </trkpt>
      <trkpt lat="44.73189" lon="5.44724">
        <ele>986.45</ele>
        <time>2022-06-07T13:00:54Z</time>
      </trkpt>
      <trkpt lat="44.73197" lon="5.44713">
        <ele>982.6</ele>
        <time>2022-06-07T13:01:05Z</time>
      </trkpt>
      <trkpt lat="44.73203" lon="5.44701">
        <ele>979.24</ele>
        <time>2022-06-07T13:01:18Z</time>
      </trkpt>
      <trkpt lat="44.73203" lon="5.44694">
        <ele>975.88</ele>
        <time>2022-06-07T13:01:29Z</time>
      </trkpt>
      <trkpt lat="44.73196" lon="5.44693">
        <ele>972.99</ele>
        <time>2022-06-07T13:01:38Z</time>
      </trkpt>
      <trkpt lat="44.73183" lon="5.44694">
        <ele>969.63</ele>
        <time>2022-06-07T13:01:52Z</time>
      </trkpt>
      <trkpt lat="44.73174" lon="5.44692">
        <ele>966.74</ele>
        <time>2022-06-07T13:02:02Z</time>
      </trkpt>
      <trkpt lat="44.73176" lon="5.44689">
        <ele>966.26</ele>
        <time>2022-06-07T13:02:05Z</time>
      </trkpt>
      <trkpt lat="44.73185" lon="5.4468">
        <ele>963.38</ele>
        <time>2022-06-07T13:02:16Z</time>
      </trkpt>
      <trkpt lat="44.73195" lon="5.44666">
        <ele>960.49</ele>
        <time>2022-06-07T13:02:28Z</time>
      </trkpt>
      <trkpt lat="44.73202" lon="5.44656">
        <ele>958.09</ele>
        <time>2022-06-07T13:02:39Z</time>
      </trkpt>
      <trkpt lat="44.73204" lon="5.44654">
        <ele>958.09</ele>
        <time>2022-06-07T13:02:41Z</time>
      </trkpt>
      <trkpt lat="44.73211" lon="5.44646">
        <ele>953.77</ele>
        <time>2022-06-07T13:02:53Z</time>
      </trkpt>
      <trkpt lat="44.73214" lon="5.44643">
        <ele>952.8</ele>
        <time>2022-06-07T13:02:57Z</time>
      </trkpt>
      <trkpt lat="44.73221" lon="5.44636">
        <ele>949.44</ele>
        <time>2022-06-07T13:03:06Z</time>
      </trkpt>
      <trkpt lat="44.73225" lon="5.44624">
        <ele>946.56</ele>
        <time>2022-06-07T13:03:16Z</time>
      </trkpt>
      <trkpt lat="44.73228" lon="5.44617">
        <ele>944.63</ele>
        <time>2022-06-07T13:03:22Z</time>
      </trkpt>
      <trkpt lat="44.73234" lon="5.44601">
        <ele>940.79</ele>
        <time>2022-06-07T13:03:34Z</time>
      </trkpt>
      <trkpt lat="44.73237" lon="5.44597">
        <ele>940.31</ele>
        <time>2022-06-07T13:03:37Z</time>
      </trkpt>
      <trkpt lat="44.7324" lon="5.44586">
        <ele>936.94</ele>
        <time>2022-06-07T13:03:44Z</time>
      </trkpt>
      <trkpt lat="44.73251" lon="5.4457">
        <ele>934.06</ele>
        <time>2022-06-07T13:03:56Z</time>
      </trkpt>
      <trkpt lat="44.73253" lon="5.44564">
        <ele>932.62</ele>
        <time>2022-06-07T13:04:02Z</time>
      </trkpt>
      <trkpt lat="44.73249" lon="5.44559">
        <ele>929.25</ele>
        <time>2022-06-07T13:04:12Z</time>
      </trkpt>
      <trkpt lat="44.73249" lon="5.44547">
        <ele>925.89</ele>
        <time>2022-06-07T13:04:26Z</time>
      </trkpt>
      <trkpt lat="44.73251" lon="5.44539">
        <ele>924.45</ele>
        <time>2022-06-07T13:04:41Z</time>
      </trkpt>
      <trkpt lat="44.73253" lon="5.44534">
        <ele>923.96</ele>
        <time>2022-06-07T13:10:58Z</time>
      </trkpt>
      <trkpt lat="44.73257" lon="5.44529">
        <ele>924.93</ele>
        <time>2022-06-07T13:11:05Z</time>
      </trkpt>
      <trkpt lat="44.73265" lon="5.44511">
        <ele>924.93</ele>
        <time>2022-06-07T13:11:20Z</time>
      </trkpt>
      <trkpt lat="44.73269" lon="5.44492">
        <ele>922.52</ele>
        <time>2022-06-07T13:11:33Z</time>
      </trkpt>
      <trkpt lat="44.73271" lon="5.44483">
        <ele>922.04</ele>
        <time>2022-06-07T13:11:39Z</time>
      </trkpt>
      <trkpt lat="44.7328" lon="5.44469">
        <ele>919.16</ele>
        <time>2022-06-07T13:11:53Z</time>
      </trkpt>
      <trkpt lat="44.73281" lon="5.44461">
        <ele>917.72</ele>
        <time>2022-06-07T13:12:08Z</time>
      </trkpt>
      <trkpt lat="44.73282" lon="5.44469">
        <ele>917.72</ele>
        <time>2022-06-07T13:12:24Z</time>
      </trkpt>
      <trkpt lat="44.73284" lon="5.44482">
        <ele>920.12</ele>
        <time>2022-06-07T13:12:36Z</time>
      </trkpt>
      <trkpt lat="44.73291" lon="5.44503">
        <ele>922.04</ele>
        <time>2022-06-07T13:12:52Z</time>
      </trkpt>
      <trkpt lat="44.73296" lon="5.44519">
        <ele>923</ele>
        <time>2022-06-07T13:13:05Z</time>
      </trkpt>
      <trkpt lat="44.73301" lon="5.44531">
        <ele>923.96</ele>
        <time>2022-06-07T13:13:14Z</time>
      </trkpt>
      <trkpt lat="44.73309" lon="5.44546">
        <ele>924.93</ele>
        <time>2022-06-07T13:13:27Z</time>
      </trkpt>
      <trkpt lat="44.73316" lon="5.44556">
        <ele>925.89</ele>
        <time>2022-06-07T13:13:41Z</time>
      </trkpt>
      <trkpt lat="44.73316" lon="5.44557">
        <ele>925.89</ele>
        <time>2022-06-07T13:13:42Z</time>
      </trkpt>
      <trkpt lat="44.7333" lon="5.44567">
        <ele>926.85</ele>
        <time>2022-06-07T13:13:55Z</time>
      </trkpt>
      <trkpt lat="44.73337" lon="5.44571">
        <ele>927.33</ele>
        <time>2022-06-07T13:14:08Z</time>
      </trkpt>
      <trkpt lat="44.73342" lon="5.44575">
        <ele>927.33</ele>
        <time>2022-06-07T13:14:25Z</time>
      </trkpt>
      <trkpt lat="44.73343" lon="5.4458">
        <ele>927.81</ele>
        <time>2022-06-07T13:14:58Z</time>
      </trkpt>
      <trkpt lat="44.7335" lon="5.44582">
        <ele>928.77</ele>
        <time>2022-06-07T13:15:11Z</time>
      </trkpt>
      <trkpt lat="44.73355" lon="5.44585">
        <ele>929.73</ele>
        <time>2022-06-07T13:15:26Z</time>
      </trkpt>
      <trkpt lat="44.73358" lon="5.44583">
        <ele>929.73</ele>
        <time>2022-06-07T13:15:45Z</time>
      </trkpt>
      <trkpt lat="44.73362" lon="5.44592">
        <ele>929.73</ele>
        <time>2022-06-07T13:17:13Z</time>
      </trkpt>
      <trkpt lat="44.73365" lon="5.44598">
        <ele>929.73</ele>
        <time>2022-06-07T13:17:23Z</time>
      </trkpt>
      <trkpt lat="44.73368" lon="5.44601">
        <ele>930.21</ele>
        <time>2022-06-07T13:17:42Z</time>
      </trkpt>
      <trkpt lat="44.73374" lon="5.44609">
        <ele>931.17</ele>
        <time>2022-06-07T13:17:53Z</time>
      </trkpt>
      <trkpt lat="44.73379" lon="5.44617">
        <ele>932.62</ele>
        <time>2022-06-07T13:19:02Z</time>
      </trkpt>
      <trkpt lat="44.73383" lon="5.44622">
        <ele>932.62</ele>
        <time>2022-06-07T13:19:16Z</time>
      </trkpt>
      <trkpt lat="44.73387" lon="5.44624">
        <ele>932.62</ele>
        <time>2022-06-07T13:19:28Z</time>
      </trkpt>
      <trkpt lat="44.73391" lon="5.44631">
        <ele>933.1</ele>
        <time>2022-06-07T13:19:39Z</time>
      </trkpt>
      <trkpt lat="44.73393" lon="5.44638">
        <ele>934.54</ele>
        <time>2022-06-07T13:19:47Z</time>
      </trkpt>
      <trkpt lat="44.73397" lon="5.44643">
        <ele>935.02</ele>
        <time>2022-06-07T13:19:52Z</time>
      </trkpt>
      <trkpt lat="44.73398" lon="5.44645">
        <ele>935.5</ele>
        <time>2022-06-07T13:19:54Z</time>
      </trkpt>
      <trkpt lat="44.73405" lon="5.44656">
        <ele>936.46</ele>
        <time>2022-06-07T13:20:05Z</time>
      </trkpt>
      <trkpt lat="44.7341" lon="5.44673">
        <ele>937.9</ele>
        <time>2022-06-07T13:20:20Z</time>
      </trkpt>
      <trkpt lat="44.73419" lon="5.44686">
        <ele>938.38</ele>
        <time>2022-06-07T13:20:32Z</time>
      </trkpt>
      <trkpt lat="44.73427" lon="5.44701">
        <ele>939.83</ele>
        <time>2022-06-07T13:20:44Z</time>
      </trkpt>
      <trkpt lat="44.73431" lon="5.44716">
        <ele>941.75</ele>
        <time>2022-06-07T13:20:55Z</time>
      </trkpt>
      <trkpt lat="44.73435" lon="5.4473">
        <ele>942.71</ele>
        <time>2022-06-07T13:21:07Z</time>
      </trkpt>
      <trkpt lat="44.73439" lon="5.4474">
        <ele>943.19</ele>
        <time>2022-06-07T13:21:15Z</time>
      </trkpt>
      <trkpt lat="44.73448" lon="5.44757">
        <ele>945.11</ele>
        <time>2022-06-07T13:21:29Z</time>
      </trkpt>
      <trkpt lat="44.73458" lon="5.44775">
        <ele>946.56</ele>
        <time>2022-06-07T13:21:42Z</time>
      </trkpt>
      <trkpt lat="44.7346" lon="5.44789">
        <ele>947.52</ele>
        <time>2022-06-07T13:21:52Z</time>
      </trkpt>
      <trkpt lat="44.73467" lon="5.44806">
        <ele>948.48</ele>
        <time>2022-06-07T13:22:06Z</time>
      </trkpt>
      <trkpt lat="44.73467" lon="5.44811">
        <ele>948.96</ele>
        <time>2022-06-07T13:22:10Z</time>
      </trkpt>
      <trkpt lat="44.73469" lon="5.44814">
        <ele>949.44</ele>
        <time>2022-06-07T13:22:12Z</time>
      </trkpt>
      <trkpt lat="44.73476" lon="5.44823">
        <ele>950.4</ele>
        <time>2022-06-07T13:22:19Z</time>
      </trkpt>
      <trkpt lat="44.73482" lon="5.4484">
        <ele>950.88</ele>
        <time>2022-06-07T13:22:32Z</time>
      </trkpt>
      <trkpt lat="44.73485" lon="5.44851">
        <ele>951.36</ele>
        <time>2022-06-07T13:22:41Z</time>
      </trkpt>
      <trkpt lat="44.73488" lon="5.44863">
        <ele>952.32</ele>
        <time>2022-06-07T13:22:50Z</time>
      </trkpt>
      <trkpt lat="44.73493" lon="5.44872">
        <ele>953.28</ele>
        <time>2022-06-07T13:22:57Z</time>
      </trkpt>
      <trkpt lat="44.73497" lon="5.44889">
        <ele>954.73</ele>
        <time>2022-06-07T13:23:10Z</time>
      </trkpt>
      <trkpt lat="44.73501" lon="5.44905">
        <ele>955.69</ele>
        <time>2022-06-07T13:23:22Z</time>
      </trkpt>
      <trkpt lat="44.73502" lon="5.44907">
        <ele>955.21</ele>
        <time>2022-06-07T13:23:24Z</time>
      </trkpt>
      <trkpt lat="44.7351" lon="5.44922">
        <ele>957.13</ele>
        <time>2022-06-07T13:23:37Z</time>
      </trkpt>
      <trkpt lat="44.73524" lon="5.44937">
        <ele>959.05</ele>
        <time>2022-06-07T13:23:50Z</time>
      </trkpt>
      <trkpt lat="44.73522" lon="5.44947">
        <ele>960.49</ele>
        <time>2022-06-07T13:24:00Z</time>
      </trkpt>
      <trkpt lat="44.73512" lon="5.44954">
        <ele>961.94</ele>
        <time>2022-06-07T13:24:13Z</time>
      </trkpt>
      <trkpt lat="44.73516" lon="5.44972">
        <ele>963.38</ele>
        <time>2022-06-07T13:24:26Z</time>
      </trkpt>
      <trkpt lat="44.73518" lon="5.44974">
        <ele>963.38</ele>
        <time>2022-06-07T13:24:28Z</time>
      </trkpt>
      <trkpt lat="44.73521" lon="5.4498">
        <ele>963.38</ele>
        <time>2022-06-07T13:24:32Z</time>
      </trkpt>
      <trkpt lat="44.7352" lon="5.44985">
        <ele>963.38</ele>
        <time>2022-06-07T13:24:36Z</time>
      </trkpt>
      <trkpt lat="44.7352" lon="5.44998">
        <ele>964.82</ele>
        <time>2022-06-07T13:24:47Z</time>
      </trkpt>
      <trkpt lat="44.73519" lon="5.45017">
        <ele>965.78</ele>
        <time>2022-06-07T13:24:59Z</time>
      </trkpt>
      <trkpt lat="44.73516" lon="5.45038">
        <ele>967.7</ele>
        <time>2022-06-07T13:25:15Z</time>
      </trkpt>
      <trkpt lat="44.73519" lon="5.45057">
        <ele>970.59</ele>
        <time>2022-06-07T13:25:30Z</time>
      </trkpt>
      <trkpt lat="44.73521" lon="5.4506">
        <ele>970.59</ele>
        <time>2022-06-07T13:25:32Z</time>
      </trkpt>
      <trkpt lat="44.73523" lon="5.45062">
        <ele>969.15</ele>
        <time>2022-06-07T13:25:34Z</time>
      </trkpt>
      <trkpt lat="44.73526" lon="5.45067">
        <ele>968.18</ele>
        <time>2022-06-07T13:25:37Z</time>
      </trkpt>
      <trkpt lat="44.73534" lon="5.45077">
        <ele>969.63</ele>
        <time>2022-06-07T13:25:46Z</time>
      </trkpt>
      <trkpt lat="44.73535" lon="5.45079">
        <ele>969.15</ele>
        <time>2022-06-07T13:25:48Z</time>
      </trkpt>
      <trkpt lat="44.73537" lon="5.45091">
        <ele>970.11</ele>
        <time>2022-06-07T13:26:01Z</time>
      </trkpt>
      <trkpt lat="44.73547" lon="5.45097">
        <ele>970.11</ele>
        <time>2022-06-07T13:26:15Z</time>
      </trkpt>
      <trkpt lat="44.7355" lon="5.45098">
        <ele>969.63</ele>
        <time>2022-06-07T13:26:19Z</time>
      </trkpt>
      <trkpt lat="44.73559" lon="5.45102">
        <ele>969.63</ele>
        <time>2022-06-07T13:26:30Z</time>
      </trkpt>
      <trkpt lat="44.73562" lon="5.45105">
        <ele>969.63</ele>
        <time>2022-06-07T13:26:34Z</time>
      </trkpt>
      <trkpt lat="44.73569" lon="5.45107">
        <ele>969.63</ele>
        <time>2022-06-07T13:26:51Z</time>
      </trkpt>
      <trkpt lat="44.73575" lon="5.45113">
        <ele>967.7</ele>
        <time>2022-06-07T13:29:31Z</time>
      </trkpt>
      <trkpt lat="44.73587" lon="5.45122">
        <ele>968.67</ele>
        <time>2022-06-07T13:29:44Z</time>
      </trkpt>
      <trkpt lat="44.73595" lon="5.45122">
        <ele>969.63</ele>
        <time>2022-06-07T13:30:00Z</time>
      </trkpt>
      <trkpt lat="44.73599" lon="5.45119">
        <ele>970.11</ele>
        <time>2022-06-07T13:30:15Z</time>
      </trkpt>
      <trkpt lat="44.73601" lon="5.45124">
        <ele>970.11</ele>
        <time>2022-06-07T13:30:20Z</time>
      </trkpt>
      <trkpt lat="44.73604" lon="5.45129">
        <ele>970.59</ele>
        <time>2022-06-07T13:30:27Z</time>
      </trkpt>
      <trkpt lat="44.73617" lon="5.4512">
        <ele>972.03</ele>
        <time>2022-06-07T13:30:40Z</time>
      </trkpt>
      <trkpt lat="44.73618" lon="5.45117">
        <ele>972.03</ele>
        <time>2022-06-07T13:30:42Z</time>
      </trkpt>
      <trkpt lat="44.73619" lon="5.45113">
        <ele>972.03</ele>
        <time>2022-06-07T13:30:45Z</time>
      </trkpt>
      <trkpt lat="44.7362" lon="5.45108">
        <ele>972.51</ele>
        <time>2022-06-07T13:30:48Z</time>
      </trkpt>
      <trkpt lat="44.73621" lon="5.45089">
        <ele>972.51</ele>
        <time>2022-06-07T13:31:02Z</time>
      </trkpt>
      <trkpt lat="44.73623" lon="5.45083">
        <ele>973.47</ele>
        <time>2022-06-07T13:31:06Z</time>
      </trkpt>
      <trkpt lat="44.73631" lon="5.45083">
        <ele>975.88</ele>
        <time>2022-06-07T13:31:19Z</time>
      </trkpt>
      <trkpt lat="44.73633" lon="5.45095">
        <ele>978.28</ele>
        <time>2022-06-07T13:31:32Z</time>
      </trkpt>
      <trkpt lat="44.73629" lon="5.45109">
        <ele>979.72</ele>
        <time>2022-06-07T13:31:45Z</time>
      </trkpt>
      <trkpt lat="44.73629" lon="5.45117">
        <ele>982.12</ele>
        <time>2022-06-07T13:31:57Z</time>
      </trkpt>
      <trkpt lat="44.73636" lon="5.45112">
        <ele>984.05</ele>
        <time>2022-06-07T13:32:10Z</time>
      </trkpt>
      <trkpt lat="44.73644" lon="5.45103">
        <ele>986.93</ele>
        <time>2022-06-07T13:32:23Z</time>
      </trkpt>
      <trkpt lat="44.73645" lon="5.45101">
        <ele>986.93</ele>
        <time>2022-06-07T13:32:25Z</time>
      </trkpt>
      <trkpt lat="44.73649" lon="5.45094">
        <ele>988.37</ele>
        <time>2022-06-07T13:32:31Z</time>
      </trkpt>
      <trkpt lat="44.73659" lon="5.45089">
        <ele>990.3</ele>
        <time>2022-06-07T13:32:44Z</time>
      </trkpt>
      <trkpt lat="44.73671" lon="5.45092">
        <ele>993.66</ele>
        <time>2022-06-07T13:32:58Z</time>
      </trkpt>
      <trkpt lat="44.7368" lon="5.45098">
        <ele>992.7</ele>
        <time>2022-06-07T13:33:09Z</time>
      </trkpt>
      <trkpt lat="44.73683" lon="5.45098">
        <ele>992.7</ele>
        <time>2022-06-07T13:33:12Z</time>
      </trkpt>
      <trkpt lat="44.73689" lon="5.45096">
        <ele>992.7</ele>
        <time>2022-06-07T13:33:16Z</time>
      </trkpt>
      <trkpt lat="44.73702" lon="5.45094">
        <ele>995.1</ele>
        <time>2022-06-07T13:33:28Z</time>
      </trkpt>
      <trkpt lat="44.73706" lon="5.45099">
        <ele>993.66</ele>
        <time>2022-06-07T13:33:38Z</time>
      </trkpt>
      <trkpt lat="44.7371" lon="5.45106">
        <ele>992.22</ele>
        <time>2022-06-07T13:33:47Z</time>
      </trkpt>
      <trkpt lat="44.73719" lon="5.45116">
        <ele>992.7</ele>
        <time>2022-06-07T13:34:00Z</time>
      </trkpt>
      <trkpt lat="44.73719" lon="5.45117">
        <ele>992.7</ele>
        <time>2022-06-07T13:34:01Z</time>
      </trkpt>
      <trkpt lat="44.73726" lon="5.45126">
        <ele>993.66</ele>
        <time>2022-06-07T13:34:12Z</time>
      </trkpt>
      <trkpt lat="44.73737" lon="5.45135">
        <ele>994.62</ele>
        <time>2022-06-07T13:34:24Z</time>
      </trkpt>
      <trkpt lat="44.73748" lon="5.4514">
        <ele>997.02</ele>
        <time>2022-06-07T13:34:38Z</time>
      </trkpt>
      <trkpt lat="44.73752" lon="5.45142">
        <ele>997.51</ele>
        <time>2022-06-07T13:34:48Z</time>
      </trkpt>
      <trkpt lat="44.73761" lon="5.45138">
        <ele>998.95</ele>
        <time>2022-06-07T13:35:00Z</time>
      </trkpt>
      <trkpt lat="44.73772" lon="5.45133">
        <ele>999.91</ele>
        <time>2022-06-07T13:35:12Z</time>
      </trkpt>
      <trkpt lat="44.73791" lon="5.45127">
        <ele>1000.87</ele>
        <time>2022-06-07T13:35:25Z</time>
      </trkpt>
      <trkpt lat="44.73786" lon="5.45117">
        <ele>1004.23</ele>
        <time>2022-06-07T13:36:35Z</time>
      </trkpt>
      <trkpt lat="44.73792" lon="5.45094">
        <ele>1005.2</ele>
        <time>2022-06-07T13:36:49Z</time>
      </trkpt>
      <trkpt lat="44.738" lon="5.45076">
        <ele>1005.2</ele>
        <time>2022-06-07T13:37:01Z</time>
      </trkpt>
      <trkpt lat="44.73801" lon="5.45075">
        <ele>1005.2</ele>
        <time>2022-06-07T13:37:02Z</time>
      </trkpt>
      <trkpt lat="44.73803" lon="5.45072">
        <ele>1005.2</ele>
        <time>2022-06-07T13:37:04Z</time>
      </trkpt>
      <trkpt lat="44.73811" lon="5.45067">
        <ele>1006.16</ele>
        <time>2022-06-07T13:37:12Z</time>
      </trkpt>
      <trkpt lat="44.73809" lon="5.45061">
        <ele>1006.16</ele>
        <time>2022-06-07T13:37:19Z</time>
      </trkpt>
      <trkpt lat="44.73804" lon="5.45046">
        <ele>1006.16</ele>
        <time>2022-06-07T13:37:32Z</time>
      </trkpt>
      <trkpt lat="44.73804" lon="5.45042">
        <ele>1004.72</ele>
        <time>2022-06-07T13:37:34Z</time>
      </trkpt>
      <trkpt lat="44.73802" lon="5.45024">
        <ele>1004.72</ele>
        <time>2022-06-07T13:37:48Z</time>
      </trkpt>
      <trkpt lat="44.738" lon="5.45017">
        <ele>1004.72</ele>
        <time>2022-06-07T13:37:53Z</time>
      </trkpt>
      <trkpt lat="44.73792" lon="5.44995">
        <ele>1002.31</ele>
        <time>2022-06-07T13:38:12Z</time>
      </trkpt>
      <trkpt lat="44.73803" lon="5.44982">
        <ele>1003.27</ele>
        <time>2022-06-07T13:38:25Z</time>
      </trkpt>
      <trkpt lat="44.73815" lon="5.44966">
        <ele>1004.23</ele>
        <time>2022-06-07T13:38:40Z</time>
      </trkpt>
      <trkpt lat="44.73825" lon="5.44954">
        <ele>1004.72</ele>
        <time>2022-06-07T13:38:53Z</time>
      </trkpt>
      <trkpt lat="44.73827" lon="5.44948">
        <ele>1007.6</ele>
        <time>2022-06-07T13:39:05Z</time>
      </trkpt>
      <trkpt lat="44.73825" lon="5.44943">
        <ele>1007.6</ele>
        <time>2022-06-07T13:39:11Z</time>
      </trkpt>
      <trkpt lat="44.73822" lon="5.44935">
        <ele>1006.64</ele>
        <time>2022-06-07T13:39:16Z</time>
      </trkpt>
      <trkpt lat="44.73822" lon="5.44931">
        <ele>1006.16</ele>
        <time>2022-06-07T13:39:18Z</time>
      </trkpt>
      <trkpt lat="44.73823" lon="5.44913">
        <ele>1006.16</ele>
        <time>2022-06-07T13:39:32Z</time>
      </trkpt>
      <trkpt lat="44.73828" lon="5.44904">
        <ele>1008.08</ele>
        <time>2022-06-07T13:39:46Z</time>
      </trkpt>
      <trkpt lat="44.73834" lon="5.44892">
        <ele>1009.52</ele>
        <time>2022-06-07T13:39:57Z</time>
      </trkpt>
      <trkpt lat="44.73841" lon="5.44882">
        <ele>1010.96</ele>
        <time>2022-06-07T13:40:07Z</time>
      </trkpt>
      <trkpt lat="44.73846" lon="5.44873">
        <ele>1011.93</ele>
        <time>2022-06-07T13:40:15Z</time>
      </trkpt>
      <trkpt lat="44.73852" lon="5.44854">
        <ele>1012.41</ele>
        <time>2022-06-07T13:40:29Z</time>
      </trkpt>
      <trkpt lat="44.73853" lon="5.44848">
        <ele>1012.89</ele>
        <time>2022-06-07T13:40:34Z</time>
      </trkpt>
      <trkpt lat="44.73855" lon="5.44839">
        <ele>1013.37</ele>
        <time>2022-06-07T13:40:42Z</time>
      </trkpt>
      <trkpt lat="44.7386" lon="5.44827">
        <ele>1014.33</ele>
        <time>2022-06-07T13:40:50Z</time>
      </trkpt>
      <trkpt lat="44.7387" lon="5.44819">
        <ele>1015.29</ele>
        <time>2022-06-07T13:41:06Z</time>
      </trkpt>
      <trkpt lat="44.73882" lon="5.4481">
        <ele>1017.21</ele>
        <time>2022-06-07T13:41:18Z</time>
      </trkpt>
      <trkpt lat="44.73891" lon="5.44805">
        <ele>1018.17</ele>
        <time>2022-06-07T13:41:29Z</time>
      </trkpt>
      <trkpt lat="44.73901" lon="5.44803">
        <ele>1020.1</ele>
        <time>2022-06-07T13:41:41Z</time>
      </trkpt>
      <trkpt lat="44.73915" lon="5.448">
        <ele>1022.5</ele>
        <time>2022-06-07T13:41:55Z</time>
      </trkpt>
      <trkpt lat="44.73925" lon="5.4479">
        <ele>1023.46</ele>
        <time>2022-06-07T13:42:09Z</time>
      </trkpt>
      <trkpt lat="44.73934" lon="5.44781">
        <ele>1024.42</ele>
        <time>2022-06-07T13:42:22Z</time>
      </trkpt>
      <trkpt lat="44.73941" lon="5.44768">
        <ele>1026.34</ele>
        <time>2022-06-07T13:42:35Z</time>
      </trkpt>
      <trkpt lat="44.73946" lon="5.44761">
        <ele>1026.83</ele>
        <time>2022-06-07T13:42:43Z</time>
      </trkpt>
      <trkpt lat="44.73957" lon="5.44745">
        <ele>1028.27</ele>
        <time>2022-06-07T13:42:59Z</time>
      </trkpt>
      <trkpt lat="44.73964" lon="5.44738">
        <ele>1028.75</ele>
        <time>2022-06-07T13:43:06Z</time>
      </trkpt>
      <trkpt lat="44.73972" lon="5.44721">
        <ele>1030.19</ele>
        <time>2022-06-07T13:43:20Z</time>
      </trkpt>
      <trkpt lat="44.7398" lon="5.44703">
        <ele>1030.19</ele>
        <time>2022-06-07T13:43:35Z</time>
      </trkpt>
      <trkpt lat="44.73981" lon="5.44697">
        <ele>1030.67</ele>
        <time>2022-06-07T13:43:39Z</time>
      </trkpt>
      <trkpt lat="44.73984" lon="5.4469">
        <ele>1030.67</ele>
        <time>2022-06-07T13:43:44Z</time>
      </trkpt>
      <trkpt lat="44.73988" lon="5.44672">
        <ele>1032.11</ele>
        <time>2022-06-07T13:43:57Z</time>
      </trkpt>
      <trkpt lat="44.73987" lon="5.44667">
        <ele>1032.11</ele>
        <time>2022-06-07T13:44:00Z</time>
      </trkpt>
      <trkpt lat="44.73984" lon="5.44651">
        <ele>1032.59</ele>
        <time>2022-06-07T13:44:08Z</time>
      </trkpt>
      <trkpt lat="44.73985" lon="5.44643">
        <ele>1033.07</ele>
        <time>2022-06-07T13:44:13Z</time>
      </trkpt>
      <trkpt lat="44.73986" lon="5.44639">
        <ele>1033.55</ele>
        <time>2022-06-07T13:44:16Z</time>
      </trkpt>
      <trkpt lat="44.73996" lon="5.44636">
        <ele>1035.48</ele>
        <time>2022-06-07T13:44:31Z</time>
      </trkpt>
      <trkpt lat="44.74008" lon="5.44629">
        <ele>1036.92</ele>
        <time>2022-06-07T13:44:43Z</time>
      </trkpt>
      <trkpt lat="44.74018" lon="5.44617">
        <ele>1039.32</ele>
        <time>2022-06-07T13:44:56Z</time>
      </trkpt>
      <trkpt lat="44.7403" lon="5.44605">
        <ele>1041.25</ele>
        <time>2022-06-07T13:45:10Z</time>
      </trkpt>
      <trkpt lat="44.74028" lon="5.446">
        <ele>1041.25</ele>
        <time>2022-06-07T13:45:15Z</time>
      </trkpt>
      <trkpt lat="44.74027" lon="5.44597">
        <ele>1041.25</ele>
        <time>2022-06-07T13:45:17Z</time>
      </trkpt>
      <trkpt lat="44.74029" lon="5.4458">
        <ele>1042.21</ele>
        <time>2022-06-07T13:45:30Z</time>
      </trkpt>
      <trkpt lat="44.74028" lon="5.4457">
        <ele>1042.21</ele>
        <time>2022-06-07T13:45:38Z</time>
      </trkpt>
      <trkpt lat="44.74027" lon="5.44553">
        <ele>1043.17</ele>
        <time>2022-06-07T13:45:50Z</time>
      </trkpt>
      <trkpt lat="44.74028" lon="5.4455">
        <ele>1043.65</ele>
        <time>2022-06-07T13:45:52Z</time>
      </trkpt>
      <trkpt lat="44.74018" lon="5.44533">
        <ele>1043.65</ele>
        <time>2022-06-07T13:46:05Z</time>
      </trkpt>
      <trkpt lat="44.74006" lon="5.44522">
        <ele>1044.61</ele>
        <time>2022-06-07T13:46:14Z</time>
      </trkpt>
      <trkpt lat="44.73999" lon="5.44507">
        <ele>1045.57</ele>
        <time>2022-06-07T13:46:26Z</time>
      </trkpt>
      <trkpt lat="44.73984" lon="5.44474">
        <ele>1047.49</ele>
        <time>2022-06-07T13:46:41Z</time>
      </trkpt>
      <trkpt lat="44.73983" lon="5.4446">
        <ele>1047.49</ele>
        <time>2022-06-07T13:46:48Z</time>
      </trkpt>
      <trkpt lat="44.73984" lon="5.44457">
        <ele>1047.49</ele>
        <time>2022-06-07T13:46:50Z</time>
      </trkpt>
      <trkpt lat="44.73992" lon="5.44444">
        <ele>1048.94</ele>
        <time>2022-06-07T13:47:02Z</time>
      </trkpt>
      <trkpt lat="44.73994" lon="5.4444">
        <ele>1047.97</ele>
        <time>2022-06-07T13:47:18Z</time>
      </trkpt>
      <trkpt lat="44.74" lon="5.44437">
        <ele>1048.94</ele>
        <time>2022-06-07T13:47:24Z</time>
      </trkpt>
      <trkpt lat="44.74002" lon="5.44437">
        <ele>1049.42</ele>
        <time>2022-06-07T13:47:27Z</time>
      </trkpt>
      <trkpt lat="44.74008" lon="5.44434">
        <ele>1050.38</ele>
        <time>2022-06-07T13:47:32Z</time>
      </trkpt>
      <trkpt lat="44.74019" lon="5.44428">
        <ele>1051.82</ele>
        <time>2022-06-07T13:47:42Z</time>
      </trkpt>
      <trkpt lat="44.74035" lon="5.44408">
        <ele>1054.22</ele>
        <time>2022-06-07T13:47:58Z</time>
      </trkpt>
      <trkpt lat="44.74036" lon="5.44407">
        <ele>1054.22</ele>
        <time>2022-06-07T13:47:59Z</time>
      </trkpt>
      <trkpt lat="44.74043" lon="5.4438">
        <ele>1055.67</ele>
        <time>2022-06-07T13:48:15Z</time>
      </trkpt>
      <trkpt lat="44.74057" lon="5.4437">
        <ele>1056.15</ele>
        <time>2022-06-07T13:48:29Z</time>
      </trkpt>
      <trkpt lat="44.7407" lon="5.44359">
        <ele>1057.59</ele>
        <time>2022-06-07T13:48:43Z</time>
      </trkpt>
      <trkpt lat="44.7408" lon="5.44347">
        <ele>1058.55</ele>
        <time>2022-06-07T13:48:55Z</time>
      </trkpt>
      <trkpt lat="44.74081" lon="5.44346">
        <ele>1058.55</ele>
        <time>2022-06-07T13:48:56Z</time>
      </trkpt>
      <trkpt lat="44.74083" lon="5.44341">
        <ele>1058.55</ele>
        <time>2022-06-07T13:49:08Z</time>
      </trkpt>
      <trkpt lat="44.74086" lon="5.44327">
        <ele>1058.07</ele>
        <time>2022-06-07T13:49:21Z</time>
      </trkpt>
      <trkpt lat="44.74094" lon="5.44308">
        <ele>1055.18</ele>
        <time>2022-06-07T13:49:35Z</time>
      </trkpt>
      <trkpt lat="44.741" lon="5.44287">
        <ele>1052.78</ele>
        <time>2022-06-07T13:49:47Z</time>
      </trkpt>
      <trkpt lat="44.74099" lon="5.44253">
        <ele>1049.9</ele>
        <time>2022-06-07T13:50:04Z</time>
      </trkpt>
      <trkpt lat="44.741" lon="5.4423">
        <ele>1046.53</ele>
        <time>2022-06-07T13:50:17Z</time>
      </trkpt>
      <trkpt lat="44.74101" lon="5.44229">
        <ele>1046.53</ele>
        <time>2022-06-07T13:50:22Z</time>
      </trkpt>
      <trkpt lat="44.74108" lon="5.44214">
        <ele>1045.09</ele>
        <time>2022-06-07T13:50:33Z</time>
      </trkpt>
      <trkpt lat="44.74112" lon="5.4421">
        <ele>1044.13</ele>
        <time>2022-06-07T13:50:37Z</time>
      </trkpt>
      <trkpt lat="44.74123" lon="5.44209">
        <ele>1041.25</ele>
        <time>2022-06-07T13:50:51Z</time>
      </trkpt>
      <trkpt lat="44.7413" lon="5.44215">
        <ele>1039.8</ele>
        <time>2022-06-07T13:50:59Z</time>
      </trkpt>
      <trkpt lat="44.74144" lon="5.44232">
        <ele>1036.92</ele>
        <time>2022-06-07T13:51:15Z</time>
      </trkpt>
      <trkpt lat="44.74153" lon="5.44241">
        <ele>1035</ele>
        <time>2022-06-07T13:51:25Z</time>
      </trkpt>
      <trkpt lat="44.74163" lon="5.44259">
        <ele>1033.07</ele>
        <time>2022-06-07T13:51:41Z</time>
      </trkpt>
      <trkpt lat="44.74172" lon="5.44273">
        <ele>1031.15</ele>
        <time>2022-06-07T13:51:55Z</time>
      </trkpt>
      <trkpt lat="44.74182" lon="5.44291">
        <ele>1028.75</ele>
        <time>2022-06-07T13:52:10Z</time>
      </trkpt>
      <trkpt lat="44.74191" lon="5.44307">
        <ele>1026.83</ele>
        <time>2022-06-07T13:52:24Z</time>
      </trkpt>
      <trkpt lat="44.74202" lon="5.44325">
        <ele>1024.42</ele>
        <time>2022-06-07T13:52:39Z</time>
      </trkpt>
      <trkpt lat="44.74205" lon="5.4433">
        <ele>1023.46</ele>
        <time>2022-06-07T13:52:44Z</time>
      </trkpt>
      <trkpt lat="44.7421" lon="5.4435">
        <ele>1021.06</ele>
        <time>2022-06-07T13:52:57Z</time>
      </trkpt>
      <trkpt lat="44.74213" lon="5.44359">
        <ele>1020.1</ele>
        <time>2022-06-07T13:53:03Z</time>
      </trkpt>
      <trkpt lat="44.74225" lon="5.44376">
        <ele>1017.69</ele>
        <time>2022-06-07T13:53:18Z</time>
      </trkpt>
      <trkpt lat="44.74231" lon="5.44385">
        <ele>1015.77</ele>
        <time>2022-06-07T13:53:29Z</time>
      </trkpt>
      <trkpt lat="44.74239" lon="5.44395">
        <ele>1012.89</ele>
        <time>2022-06-07T13:53:42Z</time>
      </trkpt>
      <trkpt lat="44.74244" lon="5.44397">
        <ele>1010.48</ele>
        <time>2022-06-07T13:53:53Z</time>
      </trkpt>
      <trkpt lat="44.74257" lon="5.44395">
        <ele>1009.52</ele>
        <time>2022-06-07T13:54:03Z</time>
      </trkpt>
      <trkpt lat="44.74264" lon="5.44396">
        <ele>1009.04</ele>
        <time>2022-06-07T13:54:05Z</time>
      </trkpt>
      <trkpt lat="44.74288" lon="5.44397">
        <ele>1007.12</ele>
        <time>2022-06-07T13:54:18Z</time>
      </trkpt>
      <trkpt lat="44.74305" lon="5.44397">
        <ele>1005.68</ele>
        <time>2022-06-07T13:54:29Z</time>
      </trkpt>
      <trkpt lat="44.74308" lon="5.44395">
        <ele>1004.72</ele>
        <time>2022-06-07T13:54:32Z</time>
      </trkpt>
      <trkpt lat="44.74312" lon="5.44387">
        <ele>1003.75</ele>
        <time>2022-06-07T13:54:38Z</time>
      </trkpt>
      <trkpt lat="44.74321" lon="5.44372">
        <ele>1001.83</ele>
        <time>2022-06-07T13:54:50Z</time>
      </trkpt>
      <trkpt lat="44.74332" lon="5.4436">
        <ele>999.43</ele>
        <time>2022-06-07T13:55:04Z</time>
      </trkpt>
      <trkpt lat="44.74333" lon="5.4436">
        <ele>998.95</ele>
        <time>2022-06-07T13:55:05Z</time>
      </trkpt>
      <trkpt lat="44.74352" lon="5.44354">
        <ele>996.54</ele>
        <time>2022-06-07T13:55:21Z</time>
      </trkpt>
      <trkpt lat="44.74366" lon="5.44354">
        <ele>993.66</ele>
        <time>2022-06-07T13:55:34Z</time>
      </trkpt>
      <trkpt lat="44.74379" lon="5.44351">
        <ele>991.74</ele>
        <time>2022-06-07T13:55:46Z</time>
      </trkpt>
      <trkpt lat="44.74395" lon="5.44348">
        <ele>990.3</ele>
        <time>2022-06-07T13:55:58Z</time>
      </trkpt>
      <trkpt lat="44.74412" lon="5.44346">
        <ele>987.89</ele>
        <time>2022-06-07T13:56:11Z</time>
      </trkpt>
      <trkpt lat="44.74419" lon="5.44341">
        <ele>986.93</ele>
        <time>2022-06-07T13:56:24Z</time>
      </trkpt>
      <trkpt lat="44.74427" lon="5.44327">
        <ele>985.01</ele>
        <time>2022-06-07T13:56:39Z</time>
      </trkpt>
      <trkpt lat="44.74442" lon="5.4431">
        <ele>982.12</ele>
        <time>2022-06-07T13:56:56Z</time>
      </trkpt>
      <trkpt lat="44.74455" lon="5.44305">
        <ele>980.68</ele>
        <time>2022-06-07T13:57:10Z</time>
      </trkpt>
      <trkpt lat="44.74461" lon="5.44312">
        <ele>979.72</ele>
        <time>2022-06-07T13:57:18Z</time>
      </trkpt>
      <trkpt lat="44.7447" lon="5.4433">
        <ele>976.84</ele>
        <time>2022-06-07T13:57:32Z</time>
      </trkpt>
      <trkpt lat="44.74477" lon="5.44344">
        <ele>975.39</ele>
        <time>2022-06-07T13:57:43Z</time>
      </trkpt>
      <trkpt lat="44.74477" lon="5.44346">
        <ele>975.39</ele>
        <time>2022-06-07T13:57:44Z</time>
      </trkpt>
      <trkpt lat="44.74486" lon="5.44354">
        <ele>974.43</ele>
        <time>2022-06-07T13:57:52Z</time>
      </trkpt>
      <trkpt lat="44.74496" lon="5.44367">
        <ele>972.51</ele>
        <time>2022-06-07T13:58:03Z</time>
      </trkpt>
      <trkpt lat="44.74506" lon="5.44385">
        <ele>970.11</ele>
        <time>2022-06-07T13:58:16Z</time>
      </trkpt>
      <trkpt lat="44.74518" lon="5.44401">
        <ele>967.7</ele>
        <time>2022-06-07T13:58:30Z</time>
      </trkpt>
      <trkpt lat="44.74524" lon="5.44413">
        <ele>966.26</ele>
        <time>2022-06-07T13:58:41Z</time>
      </trkpt>
      <trkpt lat="44.74525" lon="5.44432">
        <ele>963.86</ele>
        <time>2022-06-07T13:58:56Z</time>
      </trkpt>
      <trkpt lat="44.74525" lon="5.4444">
        <ele>962.9</ele>
        <time>2022-06-07T13:59:01Z</time>
      </trkpt>
      <trkpt lat="44.74532" lon="5.44446">
        <ele>961.46</ele>
        <time>2022-06-07T13:59:09Z</time>
      </trkpt>
      <trkpt lat="44.7454" lon="5.44445">
        <ele>959.05</ele>
        <time>2022-06-07T13:59:22Z</time>
      </trkpt>
      <trkpt lat="44.74534" lon="5.44428">
        <ele>956.65</ele>
        <time>2022-06-07T13:59:37Z</time>
      </trkpt>
      <trkpt lat="44.74537" lon="5.44414">
        <ele>954.73</ele>
        <time>2022-06-07T13:59:50Z</time>
      </trkpt>
      <trkpt lat="44.74536" lon="5.44396">
        <ele>951.84</ele>
        <time>2022-06-07T14:00:03Z</time>
      </trkpt>
      <trkpt lat="44.74534" lon="5.44379">
        <ele>949.44</ele>
        <time>2022-06-07T14:00:16Z</time>
      </trkpt>
      <trkpt lat="44.74531" lon="5.44356">
        <ele>947.04</ele>
        <time>2022-06-07T14:00:31Z</time>
      </trkpt>
      <trkpt lat="44.74532" lon="5.4434">
        <ele>943.67</ele>
        <time>2022-06-07T14:00:41Z</time>
      </trkpt>
      <trkpt lat="44.7453" lon="5.44326">
        <ele>941.27</ele>
        <time>2022-06-07T14:00:55Z</time>
      </trkpt>
      <trkpt lat="44.74529" lon="5.44323">
        <ele>941.27</ele>
        <time>2022-06-07T14:00:58Z</time>
      </trkpt>
      <trkpt lat="44.7452" lon="5.443">
        <ele>938.86</ele>
        <time>2022-06-07T14:01:12Z</time>
      </trkpt>
      <trkpt lat="44.74516" lon="5.44286">
        <ele>936.94</ele>
        <time>2022-06-07T14:01:21Z</time>
      </trkpt>
      <trkpt lat="44.74518" lon="5.44279">
        <ele>935.02</ele>
        <time>2022-06-07T14:01:30Z</time>
      </trkpt>
      <trkpt lat="44.7453" lon="5.44297">
        <ele>932.62</ele>
        <time>2022-06-07T14:01:46Z</time>
      </trkpt>
      <trkpt lat="44.74532" lon="5.44301">
        <ele>932.14</ele>
        <time>2022-06-07T14:01:49Z</time>
      </trkpt>
      <trkpt lat="44.74546" lon="5.4431">
        <ele>930.69</ele>
        <time>2022-06-07T14:02:02Z</time>
      </trkpt>
      <trkpt lat="44.74554" lon="5.44333">
        <ele>928.29</ele>
        <time>2022-06-07T14:02:18Z</time>
      </trkpt>
      <trkpt lat="44.74554" lon="5.4434">
        <ele>927.81</ele>
        <time>2022-06-07T14:02:22Z</time>
      </trkpt>
      <trkpt lat="44.74558" lon="5.4435">
        <ele>926.37</ele>
        <time>2022-06-07T14:02:29Z</time>
      </trkpt>
      <trkpt lat="44.74564" lon="5.44366">
        <ele>923.96</ele>
        <time>2022-06-07T14:02:44Z</time>
      </trkpt>
      <trkpt lat="44.74566" lon="5.44379">
        <ele>923</ele>
        <time>2022-06-07T14:02:58Z</time>
      </trkpt>
      <trkpt lat="44.74566" lon="5.44381">
        <ele>923</ele>
        <time>2022-06-07T14:02:59Z</time>
      </trkpt>
      <trkpt lat="44.74566" lon="5.44391">
        <ele>922.04</ele>
        <time>2022-06-07T14:03:11Z</time>
      </trkpt>
      <trkpt lat="44.74569" lon="5.44379">
        <ele>924.93</ele>
        <time>2022-06-07T14:10:34Z</time>
      </trkpt>
      <trkpt lat="44.74569" lon="5.44371">
        <ele>922.04</ele>
        <time>2022-06-07T14:10:46Z</time>
      </trkpt>
      <trkpt lat="44.74568" lon="5.44355">
        <ele>920.12</ele>
        <time>2022-06-07T14:11:00Z</time>
      </trkpt>
      <trkpt lat="44.74566" lon="5.44341">
        <ele>918.2</ele>
        <time>2022-06-07T14:11:12Z</time>
      </trkpt>
      <trkpt lat="44.74567" lon="5.44327">
        <ele>916.75</ele>
        <time>2022-06-07T14:11:25Z</time>
      </trkpt>
      <trkpt lat="44.74568" lon="5.44312">
        <ele>914.83</ele>
        <time>2022-06-07T14:11:37Z</time>
      </trkpt>
      <trkpt lat="44.74567" lon="5.44305">
        <ele>913.87</ele>
        <time>2022-06-07T14:11:43Z</time>
      </trkpt>
      <trkpt lat="44.74559" lon="5.44284">
        <ele>911.95</ele>
        <time>2022-06-07T14:11:58Z</time>
      </trkpt>
      <trkpt lat="44.74557" lon="5.44271">
        <ele>909.54</ele>
        <time>2022-06-07T14:12:09Z</time>
      </trkpt>
      <trkpt lat="44.74549" lon="5.44256">
        <ele>907.62</ele>
        <time>2022-06-07T14:12:22Z</time>
      </trkpt>
      <trkpt lat="44.74546" lon="5.44248">
        <ele>905.7</ele>
        <time>2022-06-07T14:12:34Z</time>
      </trkpt>
      <trkpt lat="44.74537" lon="5.44235">
        <ele>904.26</ele>
        <time>2022-06-07T14:12:45Z</time>
      </trkpt>
      <trkpt lat="44.7453" lon="5.44215">
        <ele>901.85</ele>
        <time>2022-06-07T14:12:58Z</time>
      </trkpt>
      <trkpt lat="44.74533" lon="5.44212">
        <ele>899.45</ele>
        <time>2022-06-07T14:13:10Z</time>
      </trkpt>
      <trkpt lat="44.74533" lon="5.44213">
        <ele>898.49</ele>
        <time>2022-06-07T14:13:11Z</time>
      </trkpt>
      <trkpt lat="44.74535" lon="5.44214">
        <ele>898.49</ele>
        <time>2022-06-07T14:13:13Z</time>
      </trkpt>
      <trkpt lat="44.74545" lon="5.4422">
        <ele>897.53</ele>
        <time>2022-06-07T14:13:23Z</time>
      </trkpt>
      <trkpt lat="44.74547" lon="5.44223">
        <ele>897.53</ele>
        <time>2022-06-07T14:13:26Z</time>
      </trkpt>
      <trkpt lat="44.7456" lon="5.44233">
        <ele>895.12</ele>
        <time>2022-06-07T14:13:40Z</time>
      </trkpt>
      <trkpt lat="44.74572" lon="5.44238">
        <ele>894.16</ele>
        <time>2022-06-07T14:13:51Z</time>
      </trkpt>
      <trkpt lat="44.74586" lon="5.44239">
        <ele>891.76</ele>
        <time>2022-06-07T14:14:05Z</time>
      </trkpt>
      <trkpt lat="44.74587" lon="5.44242">
        <ele>891.76</ele>
        <time>2022-06-07T14:14:07Z</time>
      </trkpt>
      <trkpt lat="44.74592" lon="5.44262">
        <ele>890.32</ele>
        <time>2022-06-07T14:14:21Z</time>
      </trkpt>
      <trkpt lat="44.74594" lon="5.44268">
        <ele>889.84</ele>
        <time>2022-06-07T14:14:26Z</time>
      </trkpt>
      <trkpt lat="44.74602" lon="5.44282">
        <ele>888.4</ele>
        <time>2022-06-07T14:14:41Z</time>
      </trkpt>
      <trkpt lat="44.74605" lon="5.44295">
        <ele>886.95</ele>
        <time>2022-06-07T14:14:53Z</time>
      </trkpt>
      <trkpt lat="44.74605" lon="5.44292">
        <ele>885.99</ele>
        <time>2022-06-07T14:14:57Z</time>
      </trkpt>
      <trkpt lat="44.746" lon="5.44278">
        <ele>883.59</ele>
        <time>2022-06-07T14:15:09Z</time>
      </trkpt>
      <trkpt lat="44.74599" lon="5.44277">
        <ele>883.59</ele>
        <time>2022-06-07T14:15:10Z</time>
      </trkpt>
      <trkpt lat="44.74598" lon="5.44259">
        <ele>881.67</ele>
        <time>2022-06-07T14:15:22Z</time>
      </trkpt>
      <trkpt lat="44.74597" lon="5.4424">
        <ele>878.3</ele>
        <time>2022-06-07T14:15:37Z</time>
      </trkpt>
      <trkpt lat="44.74593" lon="5.44227">
        <ele>875.9</ele>
        <time>2022-06-07T14:15:50Z</time>
      </trkpt>
      <trkpt lat="44.74584" lon="5.44215">
        <ele>873.98</ele>
        <time>2022-06-07T14:16:04Z</time>
      </trkpt>
      <trkpt lat="44.74572" lon="5.44207">
        <ele>872.53</ele>
        <time>2022-06-07T14:16:17Z</time>
      </trkpt>
      <trkpt lat="44.74556" lon="5.44193">
        <ele>870.13</ele>
        <time>2022-06-07T14:16:31Z</time>
      </trkpt>
      <trkpt lat="44.74543" lon="5.44171">
        <ele>867.73</ele>
        <time>2022-06-07T14:16:48Z</time>
      </trkpt>
      <trkpt lat="44.7454" lon="5.44159">
        <ele>866.29</ele>
        <time>2022-06-07T14:16:57Z</time>
      </trkpt>
      <trkpt lat="44.74541" lon="5.44153">
        <ele>865.8</ele>
        <time>2022-06-07T14:17:09Z</time>
      </trkpt>
      <trkpt lat="44.74547" lon="5.44156">
        <ele>864.84</ele>
        <time>2022-06-07T14:17:30Z</time>
      </trkpt>
      <trkpt lat="44.74549" lon="5.44159">
        <ele>864.36</ele>
        <time>2022-06-07T14:17:35Z</time>
      </trkpt>
      <trkpt lat="44.74559" lon="5.44174">
        <ele>862.92</ele>
        <time>2022-06-07T14:17:51Z</time>
      </trkpt>
      <trkpt lat="44.74563" lon="5.44176">
        <ele>861.96</ele>
        <time>2022-06-07T14:17:56Z</time>
      </trkpt>
      <trkpt lat="44.74583" lon="5.44184">
        <ele>861</ele>
        <time>2022-06-07T14:18:13Z</time>
      </trkpt>
      <trkpt lat="44.74606" lon="5.44194">
        <ele>859.08</ele>
        <time>2022-06-07T14:18:31Z</time>
      </trkpt>
      <trkpt lat="44.7462" lon="5.44204">
        <ele>857.63</ele>
        <time>2022-06-07T14:18:46Z</time>
      </trkpt>
      <trkpt lat="44.74623" lon="5.44207">
        <ele>857.15</ele>
        <time>2022-06-07T14:18:50Z</time>
      </trkpt>
      <trkpt lat="44.74631" lon="5.44229">
        <ele>855.23</ele>
        <time>2022-06-07T14:19:06Z</time>
      </trkpt>
      <trkpt lat="44.74626" lon="5.44247">
        <ele>853.31</ele>
        <time>2022-06-07T14:19:21Z</time>
      </trkpt>
      <trkpt lat="44.74624" lon="5.44253">
        <ele>853.31</ele>
        <time>2022-06-07T14:19:26Z</time>
      </trkpt>
      <trkpt lat="44.74626" lon="5.44276">
        <ele>852.35</ele>
        <time>2022-06-07T14:19:41Z</time>
      </trkpt>
      <trkpt lat="44.74635" lon="5.44281">
        <ele>851.87</ele>
        <time>2022-06-07T14:19:51Z</time>
      </trkpt>
      <trkpt lat="44.74644" lon="5.44288">
        <ele>849.94</ele>
        <time>2022-06-07T14:20:03Z</time>
      </trkpt>
      <trkpt lat="44.74649" lon="5.44285">
        <ele>849.94</ele>
        <time>2022-06-07T14:20:08Z</time>
      </trkpt>
      <trkpt lat="44.74664" lon="5.44285">
        <ele>847.54</ele>
        <time>2022-06-07T14:20:23Z</time>
      </trkpt>
      <trkpt lat="44.74673" lon="5.44279">
        <ele>845.62</ele>
        <time>2022-06-07T14:20:32Z</time>
      </trkpt>
      <trkpt lat="44.74684" lon="5.44272">
        <ele>844.66</ele>
        <time>2022-06-07T14:20:43Z</time>
      </trkpt>
      <trkpt lat="44.74687" lon="5.44268">
        <ele>844.18</ele>
        <time>2022-06-07T14:20:46Z</time>
      </trkpt>
      <trkpt lat="44.747" lon="5.44271">
        <ele>842.73</ele>
        <time>2022-06-07T14:20:56Z</time>
      </trkpt>
      <trkpt lat="44.74713" lon="5.44282">
        <ele>839.85</ele>
        <time>2022-06-07T14:21:11Z</time>
      </trkpt>
      <trkpt lat="44.74714" lon="5.44281">
        <ele>839.85</ele>
        <time>2022-06-07T14:21:12Z</time>
      </trkpt>
      <trkpt lat="44.7473" lon="5.44279">
        <ele>837.45</ele>
        <time>2022-06-07T14:21:27Z</time>
      </trkpt>
      <trkpt lat="44.74741" lon="5.44272">
        <ele>835.52</ele>
        <time>2022-06-07T14:21:37Z</time>
      </trkpt>
      <trkpt lat="44.74756" lon="5.44262">
        <ele>832.64</ele>
        <time>2022-06-07T14:21:52Z</time>
      </trkpt>
      <trkpt lat="44.74749" lon="5.44259">
        <ele>829.27</ele>
        <time>2022-06-07T14:22:06Z</time>
      </trkpt>
      <trkpt lat="44.74738" lon="5.44255">
        <ele>827.35</ele>
        <time>2022-06-07T14:22:21Z</time>
      </trkpt>
      <trkpt lat="44.74727" lon="5.44238">
        <ele>825.43</ele>
        <time>2022-06-07T14:22:35Z</time>
      </trkpt>
      <trkpt lat="44.74717" lon="5.44238">
        <ele>823.51</ele>
        <time>2022-06-07T14:22:48Z</time>
      </trkpt>
      <trkpt lat="44.74716" lon="5.4424">
        <ele>823.03</ele>
        <time>2022-06-07T14:22:50Z</time>
      </trkpt>
      <trkpt lat="44.74713" lon="5.44246">
        <ele>821.58</ele>
        <time>2022-06-07T14:22:56Z</time>
      </trkpt>
      <trkpt lat="44.74705" lon="5.44241">
        <ele>818.7</ele>
        <time>2022-06-07T14:23:10Z</time>
      </trkpt>
      <trkpt lat="44.74696" lon="5.44227">
        <ele>816.78</ele>
        <time>2022-06-07T14:23:24Z</time>
      </trkpt>
      <trkpt lat="44.74692" lon="5.44213">
        <ele>814.37</ele>
        <time>2022-06-07T14:23:35Z</time>
      </trkpt>
      <trkpt lat="44.74686" lon="5.44202">
        <ele>813.41</ele>
        <time>2022-06-07T14:23:41Z</time>
      </trkpt>
      <trkpt lat="44.7468" lon="5.44176">
        <ele>811.01</ele>
        <time>2022-06-07T14:23:54Z</time>
      </trkpt>
      <trkpt lat="44.74671" lon="5.44149">
        <ele>809.09</ele>
        <time>2022-06-07T14:24:10Z</time>
      </trkpt>
      <trkpt lat="44.74657" lon="5.44128">
        <ele>806.68</ele>
        <time>2022-06-07T14:24:25Z</time>
      </trkpt>
      <trkpt lat="44.74645" lon="5.44113">
        <ele>804.76</ele>
        <time>2022-06-07T14:24:39Z</time>
      </trkpt>
      <trkpt lat="44.74634" lon="5.44106">
        <ele>801.88</ele>
        <time>2022-06-07T14:24:52Z</time>
      </trkpt>
      <trkpt lat="44.74619" lon="5.44104">
        <ele>798.99</ele>
        <time>2022-06-07T14:25:07Z</time>
      </trkpt>
      <trkpt lat="44.74604" lon="5.44094">
        <ele>797.07</ele>
        <time>2022-06-07T14:25:21Z</time>
      </trkpt>
      <trkpt lat="44.74595" lon="5.44072">
        <ele>795.15</ele>
        <time>2022-06-07T14:25:35Z</time>
      </trkpt>
      <trkpt lat="44.74585" lon="5.44056">
        <ele>792.74</ele>
        <time>2022-06-07T14:25:48Z</time>
      </trkpt>
      <trkpt lat="44.74573" lon="5.44041">
        <ele>789.86</ele>
        <time>2022-06-07T14:26:04Z</time>
      </trkpt>
      <trkpt lat="44.74558" lon="5.44018">
        <ele>787.94</ele>
        <time>2022-06-07T14:26:21Z</time>
      </trkpt>
      <trkpt lat="44.74545" lon="5.44009">
        <ele>785.53</ele>
        <time>2022-06-07T14:26:38Z</time>
      </trkpt>
      <trkpt lat="44.74543" lon="5.44007">
        <ele>785.05</ele>
        <time>2022-06-07T14:26:41Z</time>
      </trkpt>
      <trkpt lat="44.74532" lon="5.44005">
        <ele>784.09</ele>
        <time>2022-06-07T14:26:53Z</time>
      </trkpt>
      <trkpt lat="44.74515" lon="5.44006">
        <ele>781.69</ele>
        <time>2022-06-07T14:27:07Z</time>
      </trkpt>
      <trkpt lat="44.74501" lon="5.44007">
        <ele>781.21</ele>
        <time>2022-06-07T14:27:21Z</time>
      </trkpt>
      <trkpt lat="44.74493" lon="5.44004">
        <ele>779.77</ele>
        <time>2022-06-07T14:27:34Z</time>
      </trkpt>
      <trkpt lat="44.74488" lon="5.43996">
        <ele>778.32</ele>
        <time>2022-06-07T14:27:40Z</time>
      </trkpt>
      <trkpt lat="44.74494" lon="5.4399">
        <ele>775.92</ele>
        <time>2022-06-07T14:27:56Z</time>
      </trkpt>
      <trkpt lat="44.74504" lon="5.43979">
        <ele>774</ele>
        <time>2022-06-07T14:28:09Z</time>
      </trkpt>
      <trkpt lat="44.74514" lon="5.43972">
        <ele>773.04</ele>
        <time>2022-06-07T14:28:20Z</time>
      </trkpt>
      <trkpt lat="44.74524" lon="5.43967">
        <ele>771.11</ele>
        <time>2022-06-07T14:28:30Z</time>
      </trkpt>
      <trkpt lat="44.74534" lon="5.43967">
        <ele>769.67</ele>
        <time>2022-06-07T14:28:38Z</time>
      </trkpt>
      <trkpt lat="44.74543" lon="5.43966">
        <ele>769.19</ele>
        <time>2022-06-07T14:28:44Z</time>
      </trkpt>
      <trkpt lat="44.74553" lon="5.43966">
        <ele>767.75</ele>
        <time>2022-06-07T14:28:53Z</time>
      </trkpt>
      <trkpt lat="44.74568" lon="5.4397">
        <ele>765.35</ele>
        <time>2022-06-07T14:29:06Z</time>
      </trkpt>
      <trkpt lat="44.74574" lon="5.43972">
        <ele>763.9</ele>
        <time>2022-06-07T14:29:15Z</time>
      </trkpt>
      <trkpt lat="44.74584" lon="5.43976">
        <ele>761.98</ele>
        <time>2022-06-07T14:29:27Z</time>
      </trkpt>
      <trkpt lat="44.74586" lon="5.43977">
        <ele>761.5</ele>
        <time>2022-06-07T14:29:29Z</time>
      </trkpt>
      <trkpt lat="44.74598" lon="5.43984">
        <ele>759.58</ele>
        <time>2022-06-07T14:29:41Z</time>
      </trkpt>
      <trkpt lat="44.74614" lon="5.43987">
        <ele>757.18</ele>
        <time>2022-06-07T14:29:53Z</time>
      </trkpt>
      <trkpt lat="44.74618" lon="5.43989">
        <ele>756.21</ele>
        <time>2022-06-07T14:29:57Z</time>
      </trkpt>
      <trkpt lat="44.74626" lon="5.4399">
        <ele>755.25</ele>
        <time>2022-06-07T14:30:04Z</time>
      </trkpt>
      <trkpt lat="44.74638" lon="5.43985">
        <ele>753.33</ele>
        <time>2022-06-07T14:30:14Z</time>
      </trkpt>
      <trkpt lat="44.74652" lon="5.43975">
        <ele>750.93</ele>
        <time>2022-06-07T14:30:28Z</time>
      </trkpt>
      <trkpt lat="44.74655" lon="5.43977">
        <ele>750.45</ele>
        <time>2022-06-07T14:30:32Z</time>
      </trkpt>
      <trkpt lat="44.74659" lon="5.43981">
        <ele>749.97</ele>
        <time>2022-06-07T14:30:37Z</time>
      </trkpt>
      <trkpt lat="44.74663" lon="5.43986">
        <ele>749.49</ele>
        <time>2022-06-07T14:30:43Z</time>
      </trkpt>
      <trkpt lat="44.74665" lon="5.43987">
        <ele>749</ele>
        <time>2022-06-07T14:30:45Z</time>
      </trkpt>
      <trkpt lat="44.74667" lon="5.43991">
        <ele>748.52</ele>
        <time>2022-06-07T14:30:48Z</time>
      </trkpt>
      <trkpt lat="44.74677" lon="5.43992">
        <ele>748.04</ele>
        <time>2022-06-07T14:30:58Z</time>
      </trkpt>
      <trkpt lat="44.74685" lon="5.43983">
        <ele>746.6</ele>
        <time>2022-06-07T14:31:06Z</time>
      </trkpt>
      <trkpt lat="44.74692" lon="5.43973">
        <ele>745.64</ele>
        <time>2022-06-07T14:31:14Z</time>
      </trkpt>
      <trkpt lat="44.74704" lon="5.43959">
        <ele>744.2</ele>
        <time>2022-06-07T14:31:28Z</time>
      </trkpt>
      <trkpt lat="44.74704" lon="5.4395">
        <ele>742.28</ele>
        <time>2022-06-07T14:31:41Z</time>
      </trkpt>
      <trkpt lat="44.747" lon="5.43936">
        <ele>739.39</ele>
        <time>2022-06-07T14:31:55Z</time>
      </trkpt>
      <trkpt lat="44.74695" lon="5.43919">
        <ele>736.51</ele>
        <time>2022-06-07T14:32:08Z</time>
      </trkpt>
      <trkpt lat="44.74691" lon="5.43907">
        <ele>733.62</ele>
        <time>2022-06-07T14:32:20Z</time>
      </trkpt>
      <trkpt lat="44.7469" lon="5.43902">
        <ele>732.66</ele>
        <time>2022-06-07T14:32:24Z</time>
      </trkpt>
      <trkpt lat="44.74684" lon="5.43883">
        <ele>730.26</ele>
        <time>2022-06-07T14:32:39Z</time>
      </trkpt>
      <trkpt lat="44.74677" lon="5.43865">
        <ele>727.37</ele>
        <time>2022-06-07T14:32:54Z</time>
      </trkpt>
      <trkpt lat="44.74672" lon="5.4385">
        <ele>725.93</ele>
        <time>2022-06-07T14:33:05Z</time>
      </trkpt>
      <trkpt lat="44.74663" lon="5.43821">
        <ele>723.53</ele>
        <time>2022-06-07T14:33:22Z</time>
      </trkpt>
      <trkpt lat="44.74659" lon="5.43805">
        <ele>721.13</ele>
        <time>2022-06-07T14:33:38Z</time>
      </trkpt>
      <trkpt lat="44.74653" lon="5.43813">
        <ele>720.16</ele>
        <time>2022-06-07T14:33:51Z</time>
      </trkpt>
      <trkpt lat="44.74647" lon="5.4383">
        <ele>717.76</ele>
        <time>2022-06-07T14:34:07Z</time>
      </trkpt>
      <trkpt lat="44.74644" lon="5.43844">
        <ele>717.76</ele>
        <time>2022-06-07T14:34:19Z</time>
      </trkpt>
      <trkpt lat="44.74639" lon="5.43851">
        <ele>718.24</ele>
        <time>2022-06-07T14:34:30Z</time>
      </trkpt>
      <trkpt lat="44.7463" lon="5.43854">
        <ele>719.2</ele>
        <time>2022-06-07T14:34:44Z</time>
      </trkpt>
      <trkpt lat="44.74628" lon="5.43855">
        <ele>717.76</ele>
        <time>2022-06-07T14:34:47Z</time>
      </trkpt>
      <trkpt lat="44.74621" lon="5.43851">
        <ele>715.84</ele>
        <time>2022-06-07T14:35:02Z</time>
      </trkpt>
      <trkpt lat="44.74614" lon="5.4384">
        <ele>718.24</ele>
        <time>2022-06-07T14:35:16Z</time>
      </trkpt>
      <trkpt lat="44.74611" lon="5.43838">
        <ele>717.28</ele>
        <time>2022-06-07T14:35:20Z</time>
      </trkpt>
      <trkpt lat="44.74605" lon="5.43827">
        <ele>713.92</ele>
        <time>2022-06-07T14:35:32Z</time>
      </trkpt>
      <trkpt lat="44.74595" lon="5.43814">
        <ele>712.95</ele>
        <time>2022-06-07T14:35:46Z</time>
      </trkpt>
      <trkpt lat="44.74585" lon="5.43813">
        <ele>715.84</ele>
        <time>2022-06-07T14:36:01Z</time>
      </trkpt>
      <trkpt lat="44.74576" lon="5.43809">
        <ele>717.76</ele>
        <time>2022-06-07T14:36:15Z</time>
      </trkpt>
      <trkpt lat="44.74573" lon="5.43793">
        <ele>717.76</ele>
        <time>2022-06-07T14:36:28Z</time>
      </trkpt>
      <trkpt lat="44.74572" lon="5.43791">
        <ele>716.8</ele>
        <time>2022-06-07T14:36:30Z</time>
      </trkpt>
      <trkpt lat="44.74572" lon="5.43787">
        <ele>715.84</ele>
        <time>2022-06-07T14:36:34Z</time>
      </trkpt>
      <trkpt lat="44.74569" lon="5.43764">
        <ele>713.92</ele>
        <time>2022-06-07T14:36:47Z</time>
      </trkpt>
      <trkpt lat="44.74567" lon="5.43742">
        <ele>711.51</ele>
        <time>2022-06-07T14:37:02Z</time>
      </trkpt>
      <trkpt lat="44.7456" lon="5.43715">
        <ele>709.11</ele>
        <time>2022-06-07T14:37:18Z</time>
      </trkpt>
      <trkpt lat="44.74557" lon="5.43697">
        <ele>706.71</ele>
        <time>2022-06-07T14:37:32Z</time>
      </trkpt>
      <trkpt lat="44.74553" lon="5.43671">
        <ele>703.82</ele>
        <time>2022-06-07T14:37:47Z</time>
      </trkpt>
      <trkpt lat="44.74552" lon="5.43646">
        <ele>700.94</ele>
        <time>2022-06-07T14:38:01Z</time>
      </trkpt>
      <trkpt lat="44.74551" lon="5.43622">
        <ele>698.53</ele>
        <time>2022-06-07T14:38:17Z</time>
      </trkpt>
      <trkpt lat="44.74549" lon="5.436">
        <ele>695.65</ele>
        <time>2022-06-07T14:38:33Z</time>
      </trkpt>
      <trkpt lat="44.7455" lon="5.43582">
        <ele>693.25</ele>
        <time>2022-06-07T14:38:45Z</time>
      </trkpt>
      <trkpt lat="44.74547" lon="5.43568">
        <ele>691.33</ele>
        <time>2022-06-07T14:38:55Z</time>
      </trkpt>
      <trkpt lat="44.74547" lon="5.43546">
        <ele>688.44</ele>
        <time>2022-06-07T14:39:09Z</time>
      </trkpt>
      <trkpt lat="44.74544" lon="5.43522">
        <ele>685.08</ele>
        <time>2022-06-07T14:39:22Z</time>
      </trkpt>
      <trkpt lat="44.74543" lon="5.43505">
        <ele>682.67</ele>
        <time>2022-06-07T14:39:35Z</time>
      </trkpt>
      <trkpt lat="44.74544" lon="5.4349">
        <ele>680.75</ele>
        <time>2022-06-07T14:39:47Z</time>
      </trkpt>
      <trkpt lat="44.74542" lon="5.43469">
        <ele>676.91</ele>
        <time>2022-06-07T14:40:02Z</time>
      </trkpt>
      <trkpt lat="44.74542" lon="5.43459">
        <ele>675.94</ele>
        <time>2022-06-07T14:40:10Z</time>
      </trkpt>
      <trkpt lat="44.74539" lon="5.43442">
        <ele>673.06</ele>
        <time>2022-06-07T14:40:24Z</time>
      </trkpt>
      <trkpt lat="44.74539" lon="5.43439">
        <ele>672.58</ele>
        <time>2022-06-07T14:40:27Z</time>
      </trkpt>
      <trkpt lat="44.74539" lon="5.43423">
        <ele>670.18</ele>
        <time>2022-06-07T14:40:40Z</time>
      </trkpt>
      <trkpt lat="44.74539" lon="5.43406">
        <ele>667.77</ele>
        <time>2022-06-07T14:40:52Z</time>
      </trkpt>
      <trkpt lat="44.74539" lon="5.43387">
        <ele>665.85</ele>
        <time>2022-06-07T14:41:05Z</time>
      </trkpt>
      <trkpt lat="44.7454" lon="5.43377">
        <ele>664.41</ele>
        <time>2022-06-07T14:41:14Z</time>
      </trkpt>
      <trkpt lat="44.74538" lon="5.43365">
        <ele>662.97</ele>
        <time>2022-06-07T14:41:21Z</time>
      </trkpt>
      <trkpt lat="44.74543" lon="5.43343">
        <ele>661.52</ele>
        <time>2022-06-07T14:41:36Z</time>
      </trkpt>
      <trkpt lat="44.74542" lon="5.4333">
        <ele>660.56</ele>
        <time>2022-06-07T14:41:51Z</time>
      </trkpt>
      <trkpt lat="44.74537" lon="5.43313">
        <ele>659.12</ele>
        <time>2022-06-07T14:42:04Z</time>
      </trkpt>
      <trkpt lat="44.74536" lon="5.43298">
        <ele>658.64</ele>
        <time>2022-06-07T14:42:16Z</time>
      </trkpt>
      <trkpt lat="44.7454" lon="5.43282">
        <ele>656.72</ele>
        <time>2022-06-07T14:42:30Z</time>
      </trkpt>
      <trkpt lat="44.74544" lon="5.43277">
        <ele>656.72</ele>
        <time>2022-06-07T14:42:42Z</time>
      </trkpt>
    </trkseg>
  </trk>
</gpx>